<?xml version="1.0" encoding="UTF-8" standalone="no" ?>
<gpx xmlns="http://www.topografix.com/GPX/1/1" xmlns:xsi="http://www.w3.org/2001/XMLSchema-instance" xsi:schemaLocation="http://www.topografix.com/GPX/1/1 http://www.topografix.com/GPX/1/1/gpx.xsd" version="1.1" creator="VisuGPX - https://www.visugpx.com">
  <metadata>
    <name>Canyon de la Louyre</name>
    <desc><![CDATA[Orientation délicate au fond du canyon ...]]></desc>
  </metadata>
  <trk>
    <name><![CDATA[Canyon de la Louyre]]></name>
    <trkseg>
      <trkpt lat="44.62121" lon="4.42353">
        <ele>150.27</ele>
        <time>2021-05-30T08:02:42Z</time>
      </trkpt>
      <trkpt lat="44.62122" lon="4.42352">
        <ele>150.27</ele>
        <time>2021-05-30T08:02:43Z</time>
      </trkpt>
      <trkpt lat="44.6212" lon="4.42357">
        <ele>148.68</ele>
        <time>2021-05-30T08:02:48Z</time>
      </trkpt>
      <trkpt lat="44.6212" lon="4.42359">
        <ele>150.98</ele>
        <time>2021-05-30T08:02:50Z</time>
      </trkpt>
      <trkpt lat="44.62121" lon="4.42347">
        <ele>147.69</ele>
        <time>2021-05-30T08:03:06Z</time>
      </trkpt>
      <trkpt lat="44.62121" lon="4.42347">
        <ele>153.02</ele>
        <time>2021-05-30T08:03:13Z</time>
      </trkpt>
      <trkpt lat="44.62121" lon="4.42347">
        <ele>153.05</ele>
        <time>2021-05-30T08:03:14Z</time>
      </trkpt>
      <trkpt lat="44.62121" lon="4.42347">
        <ele>149.26</ele>
        <time>2021-05-30T08:03:15Z</time>
      </trkpt>
      <trkpt lat="44.62121" lon="4.42347">
        <ele>152.27</ele>
        <time>2021-05-30T08:03:22Z</time>
      </trkpt>
      <trkpt lat="44.62121" lon="4.42346">
        <ele>149.63</ele>
        <time>2021-05-30T08:03:24Z</time>
      </trkpt>
      <trkpt lat="44.62116" lon="4.42345">
        <ele>149.71</ele>
        <time>2021-05-30T08:03:31Z</time>
      </trkpt>
      <trkpt lat="44.62109" lon="4.42339">
        <ele>150.05</ele>
        <time>2021-05-30T08:03:45Z</time>
      </trkpt>
      <trkpt lat="44.62108" lon="4.42339">
        <ele>151.67</ele>
        <time>2021-05-30T08:03:49Z</time>
      </trkpt>
      <trkpt lat="44.62114" lon="4.42341">
        <ele>152.41</ele>
        <time>2021-05-30T08:04:07Z</time>
      </trkpt>
      <trkpt lat="44.62119" lon="4.42339">
        <ele>151.37</ele>
        <time>2021-05-30T08:04:22Z</time>
      </trkpt>
      <trkpt lat="44.62121" lon="4.42341">
        <ele>151.63</ele>
        <time>2021-05-30T08:04:38Z</time>
      </trkpt>
      <trkpt lat="44.62119" lon="4.42347">
        <ele>152.1</ele>
        <time>2021-05-30T08:05:04Z</time>
      </trkpt>
      <trkpt lat="44.6212" lon="4.42348">
        <ele>152.23</ele>
        <time>2021-05-30T08:05:11Z</time>
      </trkpt>
      <trkpt lat="44.62132" lon="4.4236">
        <ele>152.52</ele>
        <time>2021-05-30T08:05:27Z</time>
      </trkpt>
      <trkpt lat="44.62134" lon="4.42361">
        <ele>152.57</ele>
        <time>2021-05-30T08:05:29Z</time>
      </trkpt>
      <trkpt lat="44.62148" lon="4.42371">
        <ele>152.8</ele>
        <time>2021-05-30T08:05:42Z</time>
      </trkpt>
      <trkpt lat="44.62158" lon="4.42376">
        <ele>152.98</ele>
        <time>2021-05-30T08:05:54Z</time>
      </trkpt>
      <trkpt lat="44.62179" lon="4.42385">
        <ele>153.22</ele>
        <time>2021-05-30T08:06:12Z</time>
      </trkpt>
      <trkpt lat="44.62195" lon="4.42397">
        <ele>153.33</ele>
        <time>2021-05-30T08:06:29Z</time>
      </trkpt>
      <trkpt lat="44.62203" lon="4.424">
        <ele>155.81</ele>
        <time>2021-05-30T08:06:39Z</time>
      </trkpt>
      <trkpt lat="44.62206" lon="4.42403">
        <ele>155.85</ele>
        <time>2021-05-30T08:06:43Z</time>
      </trkpt>
      <trkpt lat="44.62224" lon="4.42414">
        <ele>156.03</ele>
        <time>2021-05-30T08:06:58Z</time>
      </trkpt>
      <trkpt lat="44.62249" lon="4.42424">
        <ele>156.27</ele>
        <time>2021-05-30T08:07:16Z</time>
      </trkpt>
      <trkpt lat="44.62267" lon="4.42437">
        <ele>156.53</ele>
        <time>2021-05-30T08:07:32Z</time>
      </trkpt>
      <trkpt lat="44.62279" lon="4.42442">
        <ele>156.76</ele>
        <time>2021-05-30T08:07:45Z</time>
      </trkpt>
      <trkpt lat="44.62301" lon="4.42451">
        <ele>157.07</ele>
        <time>2021-05-30T08:08:02Z</time>
      </trkpt>
      <trkpt lat="44.62322" lon="4.42463">
        <ele>157.38</ele>
        <time>2021-05-30T08:08:19Z</time>
      </trkpt>
      <trkpt lat="44.62336" lon="4.42471">
        <ele>157.67</ele>
        <time>2021-05-30T08:08:34Z</time>
      </trkpt>
      <trkpt lat="44.62338" lon="4.42472">
        <ele>157.7</ele>
        <time>2021-05-30T08:08:36Z</time>
      </trkpt>
      <trkpt lat="44.62337" lon="4.42478">
        <ele>157.79</ele>
        <time>2021-05-30T08:08:40Z</time>
      </trkpt>
      <trkpt lat="44.62332" lon="4.4249">
        <ele>158.01</ele>
        <time>2021-05-30T08:08:51Z</time>
      </trkpt>
      <trkpt lat="44.62328" lon="4.42497">
        <ele>158.12</ele>
        <time>2021-05-30T08:08:56Z</time>
      </trkpt>
      <trkpt lat="44.62312" lon="4.42531">
        <ele>158.57</ele>
        <time>2021-05-30T08:09:19Z</time>
      </trkpt>
      <trkpt lat="44.62298" lon="4.42562">
        <ele>158.98</ele>
        <time>2021-05-30T08:09:39Z</time>
      </trkpt>
      <trkpt lat="44.62285" lon="4.4259">
        <ele>159.32</ele>
        <time>2021-05-30T08:09:57Z</time>
      </trkpt>
      <trkpt lat="44.62268" lon="4.42626">
        <ele>159.76</ele>
        <time>2021-05-30T08:10:20Z</time>
      </trkpt>
      <trkpt lat="44.62254" lon="4.42656">
        <ele>160.11</ele>
        <time>2021-05-30T08:10:40Z</time>
      </trkpt>
      <trkpt lat="44.62241" lon="4.42686">
        <ele>160.45</ele>
        <time>2021-05-30T08:10:59Z</time>
      </trkpt>
      <trkpt lat="44.62227" lon="4.42715">
        <ele>160.83</ele>
        <time>2021-05-30T08:11:18Z</time>
      </trkpt>
      <trkpt lat="44.62211" lon="4.42749">
        <ele>161.26</ele>
        <time>2021-05-30T08:11:40Z</time>
      </trkpt>
      <trkpt lat="44.62195" lon="4.42783">
        <ele>161.67</ele>
        <time>2021-05-30T08:12:03Z</time>
      </trkpt>
      <trkpt lat="44.62182" lon="4.42814">
        <ele>162.04</ele>
        <time>2021-05-30T08:12:23Z</time>
      </trkpt>
      <trkpt lat="44.62168" lon="4.42842">
        <ele>162.41</ele>
        <time>2021-05-30T08:12:42Z</time>
      </trkpt>
      <trkpt lat="44.62153" lon="4.42876">
        <ele>162.82</ele>
        <time>2021-05-30T08:13:04Z</time>
      </trkpt>
      <trkpt lat="44.62145" lon="4.42896">
        <ele>163.07</ele>
        <time>2021-05-30T08:13:20Z</time>
      </trkpt>
      <trkpt lat="44.62138" lon="4.42913">
        <ele>163.24</ele>
        <time>2021-05-30T08:13:31Z</time>
      </trkpt>
      <trkpt lat="44.62134" lon="4.42925">
        <ele>163.38</ele>
        <time>2021-05-30T08:13:39Z</time>
      </trkpt>
      <trkpt lat="44.62125" lon="4.42945">
        <ele>163.63</ele>
        <time>2021-05-30T08:13:54Z</time>
      </trkpt>
      <trkpt lat="44.62114" lon="4.42969">
        <ele>163.89</ele>
        <time>2021-05-30T08:14:12Z</time>
      </trkpt>
      <trkpt lat="44.62105" lon="4.42987">
        <ele>164.08</ele>
        <time>2021-05-30T08:14:25Z</time>
      </trkpt>
      <trkpt lat="44.621" lon="4.43">
        <ele>164.22</ele>
        <time>2021-05-30T08:14:34Z</time>
      </trkpt>
      <trkpt lat="44.62097" lon="4.43006">
        <ele>164.28</ele>
        <time>2021-05-30T08:14:38Z</time>
      </trkpt>
      <trkpt lat="44.62094" lon="4.43012">
        <ele>164.35</ele>
        <time>2021-05-30T08:14:42Z</time>
      </trkpt>
      <trkpt lat="44.62086" lon="4.4303">
        <ele>164.51</ele>
        <time>2021-05-30T08:14:55Z</time>
      </trkpt>
      <trkpt lat="44.62081" lon="4.43038">
        <ele>164.62</ele>
        <time>2021-05-30T08:15:02Z</time>
      </trkpt>
      <trkpt lat="44.62074" lon="4.43051">
        <ele>164.74</ele>
        <time>2021-05-30T08:15:11Z</time>
      </trkpt>
      <trkpt lat="44.62067" lon="4.43069">
        <ele>164.92</ele>
        <time>2021-05-30T08:15:23Z</time>
      </trkpt>
      <trkpt lat="44.62057" lon="4.43086">
        <ele>165.09</ele>
        <time>2021-05-30T08:15:35Z</time>
      </trkpt>
      <trkpt lat="44.62049" lon="4.43104">
        <ele>165.28</ele>
        <time>2021-05-30T08:15:50Z</time>
      </trkpt>
      <trkpt lat="44.62038" lon="4.43118">
        <ele>165.47</ele>
        <time>2021-05-30T08:16:06Z</time>
      </trkpt>
      <trkpt lat="44.62034" lon="4.43138">
        <ele>165.65</ele>
        <time>2021-05-30T08:16:20Z</time>
      </trkpt>
      <trkpt lat="44.62023" lon="4.43159">
        <ele>165.69</ele>
        <time>2021-05-30T08:16:33Z</time>
      </trkpt>
      <trkpt lat="44.62018" lon="4.4317">
        <ele>165.75</ele>
        <time>2021-05-30T08:16:41Z</time>
      </trkpt>
      <trkpt lat="44.62011" lon="4.4318">
        <ele>165.85</ele>
        <time>2021-05-30T08:16:52Z</time>
      </trkpt>
      <trkpt lat="44.61998" lon="4.43204">
        <ele>166.01</ele>
        <time>2021-05-30T08:17:07Z</time>
      </trkpt>
      <trkpt lat="44.61989" lon="4.43224">
        <ele>166.94</ele>
        <time>2021-05-30T08:17:19Z</time>
      </trkpt>
      <trkpt lat="44.61978" lon="4.43243">
        <ele>167.86</ele>
        <time>2021-05-30T08:17:32Z</time>
      </trkpt>
      <trkpt lat="44.61969" lon="4.43264">
        <ele>168.93</ele>
        <time>2021-05-30T08:17:48Z</time>
      </trkpt>
      <trkpt lat="44.61957" lon="4.43288">
        <ele>171.54</ele>
        <time>2021-05-30T08:18:05Z</time>
      </trkpt>
      <trkpt lat="44.61943" lon="4.4332">
        <ele>172.64</ele>
        <time>2021-05-30T08:18:27Z</time>
      </trkpt>
      <trkpt lat="44.61935" lon="4.43338">
        <ele>173.59</ele>
        <time>2021-05-30T08:18:42Z</time>
      </trkpt>
      <trkpt lat="44.61924" lon="4.43361">
        <ele>174.55</ele>
        <time>2021-05-30T08:18:57Z</time>
      </trkpt>
      <trkpt lat="44.61912" lon="4.43392">
        <ele>174.82</ele>
        <time>2021-05-30T08:19:17Z</time>
      </trkpt>
      <trkpt lat="44.61899" lon="4.43419">
        <ele>175.06</ele>
        <time>2021-05-30T08:19:36Z</time>
      </trkpt>
      <trkpt lat="44.61891" lon="4.4344">
        <ele>175.24</ele>
        <time>2021-05-30T08:19:50Z</time>
      </trkpt>
      <trkpt lat="44.6188" lon="4.43466">
        <ele>176.26</ele>
        <time>2021-05-30T08:20:08Z</time>
      </trkpt>
      <trkpt lat="44.61873" lon="4.43487">
        <ele>176.07</ele>
        <time>2021-05-30T08:20:22Z</time>
      </trkpt>
      <trkpt lat="44.61873" lon="4.43489">
        <ele>176.09</ele>
        <time>2021-05-30T08:20:23Z</time>
      </trkpt>
      <trkpt lat="44.61867" lon="4.43504">
        <ele>176.25</ele>
        <time>2021-05-30T08:20:35Z</time>
      </trkpt>
      <trkpt lat="44.61861" lon="4.43523">
        <ele>176.45</ele>
        <time>2021-05-30T08:20:47Z</time>
      </trkpt>
      <trkpt lat="44.61857" lon="4.43535">
        <ele>176.54</ele>
        <time>2021-05-30T08:20:54Z</time>
      </trkpt>
      <trkpt lat="44.61862" lon="4.43545">
        <ele>176.62</ele>
        <time>2021-05-30T08:21:04Z</time>
      </trkpt>
      <trkpt lat="44.61862" lon="4.43549">
        <ele>176.69</ele>
        <time>2021-05-30T08:21:08Z</time>
      </trkpt>
      <trkpt lat="44.61869" lon="4.43562">
        <ele>179.66</ele>
        <time>2021-05-30T08:21:22Z</time>
      </trkpt>
      <trkpt lat="44.61878" lon="4.43558">
        <ele>181.94</ele>
        <time>2021-05-30T08:21:39Z</time>
      </trkpt>
      <trkpt lat="44.61878" lon="4.43557">
        <ele>181.96</ele>
        <time>2021-05-30T08:21:40Z</time>
      </trkpt>
      <trkpt lat="44.61882" lon="4.43541">
        <ele>182.86</ele>
        <time>2021-05-30T08:21:54Z</time>
      </trkpt>
      <trkpt lat="44.61884" lon="4.43537">
        <ele>183.68</ele>
        <time>2021-05-30T08:21:58Z</time>
      </trkpt>
      <trkpt lat="44.61893" lon="4.43525">
        <ele>183.77</ele>
        <time>2021-05-30T08:22:11Z</time>
      </trkpt>
      <trkpt lat="44.61898" lon="4.4352">
        <ele>184.7</ele>
        <time>2021-05-30T08:22:20Z</time>
      </trkpt>
      <trkpt lat="44.61906" lon="4.43513">
        <ele>185.7</ele>
        <time>2021-05-30T08:22:32Z</time>
      </trkpt>
      <trkpt lat="44.61917" lon="4.435">
        <ele>186.75</ele>
        <time>2021-05-30T08:22:46Z</time>
      </trkpt>
      <trkpt lat="44.61927" lon="4.43489">
        <ele>187.83</ele>
        <time>2021-05-30T08:23:00Z</time>
      </trkpt>
      <trkpt lat="44.61934" lon="4.43482">
        <ele>188.78</ele>
        <time>2021-05-30T08:23:11Z</time>
      </trkpt>
      <trkpt lat="44.61945" lon="4.43473">
        <ele>190.7</ele>
        <time>2021-05-30T08:23:24Z</time>
      </trkpt>
      <trkpt lat="44.61954" lon="4.43459">
        <ele>191.89</ele>
        <time>2021-05-30T08:23:39Z</time>
      </trkpt>
      <trkpt lat="44.61959" lon="4.43453">
        <ele>192.8</ele>
        <time>2021-05-30T08:23:46Z</time>
      </trkpt>
      <trkpt lat="44.6196" lon="4.43452">
        <ele>193.75</ele>
        <time>2021-05-30T08:23:48Z</time>
      </trkpt>
      <trkpt lat="44.61964" lon="4.43448">
        <ele>193.84</ele>
        <time>2021-05-30T08:23:53Z</time>
      </trkpt>
      <trkpt lat="44.61967" lon="4.43444">
        <ele>194.7</ele>
        <time>2021-05-30T08:23:57Z</time>
      </trkpt>
      <trkpt lat="44.61975" lon="4.43436">
        <ele>195.88</ele>
        <time>2021-05-30T08:24:09Z</time>
      </trkpt>
      <trkpt lat="44.61985" lon="4.43428">
        <ele>198.72</ele>
        <time>2021-05-30T08:24:24Z</time>
      </trkpt>
      <trkpt lat="44.61995" lon="4.43417">
        <ele>200.54</ele>
        <time>2021-05-30T08:24:38Z</time>
      </trkpt>
      <trkpt lat="44.61997" lon="4.43417">
        <ele>200.6</ele>
        <time>2021-05-30T08:24:41Z</time>
      </trkpt>
      <trkpt lat="44.61999" lon="4.43429">
        <ele>202.46</ele>
        <time>2021-05-30T08:24:55Z</time>
      </trkpt>
      <trkpt lat="44.61996" lon="4.43435">
        <ele>203.4</ele>
        <time>2021-05-30T08:25:02Z</time>
      </trkpt>
      <trkpt lat="44.61992" lon="4.43448">
        <ele>204.37</ele>
        <time>2021-05-30T08:25:15Z</time>
      </trkpt>
      <trkpt lat="44.61992" lon="4.4345">
        <ele>206.28</ele>
        <time>2021-05-30T08:25:18Z</time>
      </trkpt>
      <trkpt lat="44.6199" lon="4.43463">
        <ele>206.59</ele>
        <time>2021-05-30T08:25:35Z</time>
      </trkpt>
      <trkpt lat="44.61991" lon="4.43467">
        <ele>208.09</ele>
        <time>2021-05-30T08:25:39Z</time>
      </trkpt>
      <trkpt lat="44.61986" lon="4.43474">
        <ele>208.28</ele>
        <time>2021-05-30T08:25:54Z</time>
      </trkpt>
      <trkpt lat="44.61985" lon="4.43472">
        <ele>208.71</ele>
        <time>2021-05-30T08:26:25Z</time>
      </trkpt>
      <trkpt lat="44.61982" lon="4.43477">
        <ele>209.82</ele>
        <time>2021-05-30T08:26:50Z</time>
      </trkpt>
      <trkpt lat="44.61979" lon="4.43486">
        <ele>210.01</ele>
        <time>2021-05-30T08:27:08Z</time>
      </trkpt>
      <trkpt lat="44.61975" lon="4.43499">
        <ele>210.93</ele>
        <time>2021-05-30T08:27:20Z</time>
      </trkpt>
      <trkpt lat="44.61974" lon="4.435">
        <ele>212.73</ele>
        <time>2021-05-30T08:27:24Z</time>
      </trkpt>
      <trkpt lat="44.61974" lon="4.43505">
        <ele>212.77</ele>
        <time>2021-05-30T08:27:30Z</time>
      </trkpt>
      <trkpt lat="44.61971" lon="4.43521">
        <ele>213.71</ele>
        <time>2021-05-30T08:27:45Z</time>
      </trkpt>
      <trkpt lat="44.61962" lon="4.43537">
        <ele>215.62</ele>
        <time>2021-05-30T08:27:59Z</time>
      </trkpt>
      <trkpt lat="44.61957" lon="4.43546">
        <ele>216.54</ele>
        <time>2021-05-30T08:28:08Z</time>
      </trkpt>
      <trkpt lat="44.61954" lon="4.43551">
        <ele>217.36</ele>
        <time>2021-05-30T08:28:13Z</time>
      </trkpt>
      <trkpt lat="44.61953" lon="4.43555">
        <ele>218.33</ele>
        <time>2021-05-30T08:28:16Z</time>
      </trkpt>
      <trkpt lat="44.61949" lon="4.43566">
        <ele>219.23</ele>
        <time>2021-05-30T08:28:26Z</time>
      </trkpt>
      <trkpt lat="44.61949" lon="4.43567">
        <ele>219.22</ele>
        <time>2021-05-30T08:28:27Z</time>
      </trkpt>
      <trkpt lat="44.61954" lon="4.43577">
        <ele>220.07</ele>
        <time>2021-05-30T08:28:40Z</time>
      </trkpt>
      <trkpt lat="44.61959" lon="4.43568">
        <ele>221.91</ele>
        <time>2021-05-30T08:28:53Z</time>
      </trkpt>
      <trkpt lat="44.61959" lon="4.43567">
        <ele>222.89</ele>
        <time>2021-05-30T08:28:54Z</time>
      </trkpt>
      <trkpt lat="44.61965" lon="4.4356">
        <ele>223.66</ele>
        <time>2021-05-30T08:29:06Z</time>
      </trkpt>
      <trkpt lat="44.61973" lon="4.43555">
        <ele>224.53</ele>
        <time>2021-05-30T08:29:20Z</time>
      </trkpt>
      <trkpt lat="44.61983" lon="4.43545">
        <ele>225.54</ele>
        <time>2021-05-30T08:29:34Z</time>
      </trkpt>
      <trkpt lat="44.61994" lon="4.43533">
        <ele>228.08</ele>
        <time>2021-05-30T08:29:51Z</time>
      </trkpt>
      <trkpt lat="44.62" lon="4.43526">
        <ele>229.02</ele>
        <time>2021-05-30T08:30:05Z</time>
      </trkpt>
      <trkpt lat="44.6201" lon="4.43514">
        <ele>229.99</ele>
        <time>2021-05-30T08:30:19Z</time>
      </trkpt>
      <trkpt lat="44.62024" lon="4.43501">
        <ele>231.73</ele>
        <time>2021-05-30T08:30:37Z</time>
      </trkpt>
      <trkpt lat="44.62035" lon="4.43492">
        <ele>234.67</ele>
        <time>2021-05-30T08:30:56Z</time>
      </trkpt>
      <trkpt lat="44.62046" lon="4.43481">
        <ele>237.33</ele>
        <time>2021-05-30T08:31:14Z</time>
      </trkpt>
      <trkpt lat="44.62057" lon="4.43474">
        <ele>239.21</ele>
        <time>2021-05-30T08:31:31Z</time>
      </trkpt>
      <trkpt lat="44.62069" lon="4.43467">
        <ele>241.85</ele>
        <time>2021-05-30T08:31:50Z</time>
      </trkpt>
      <trkpt lat="44.6208" lon="4.43459">
        <ele>243.71</ele>
        <time>2021-05-30T08:32:05Z</time>
      </trkpt>
      <trkpt lat="44.62093" lon="4.4345">
        <ele>247.43</ele>
        <time>2021-05-30T08:32:23Z</time>
      </trkpt>
      <trkpt lat="44.62104" lon="4.43447">
        <ele>249.32</ele>
        <time>2021-05-30T08:32:39Z</time>
      </trkpt>
      <trkpt lat="44.62113" lon="4.43438">
        <ele>251.16</ele>
        <time>2021-05-30T08:32:52Z</time>
      </trkpt>
      <trkpt lat="44.62115" lon="4.43438">
        <ele>252.22</ele>
        <time>2021-05-30T08:33:10Z</time>
      </trkpt>
      <trkpt lat="44.62116" lon="4.43431">
        <ele>253.32</ele>
        <time>2021-05-30T08:33:22Z</time>
      </trkpt>
      <trkpt lat="44.62119" lon="4.43414">
        <ele>256.21</ele>
        <time>2021-05-30T08:33:37Z</time>
      </trkpt>
      <trkpt lat="44.62124" lon="4.434">
        <ele>257.09</ele>
        <time>2021-05-30T08:33:50Z</time>
      </trkpt>
      <trkpt lat="44.62129" lon="4.43388">
        <ele>258.88</ele>
        <time>2021-05-30T08:34:02Z</time>
      </trkpt>
      <trkpt lat="44.62132" lon="4.43382">
        <ele>260.57</ele>
        <time>2021-05-30T08:34:17Z</time>
      </trkpt>
      <trkpt lat="44.62133" lon="4.43381">
        <ele>260.67</ele>
        <time>2021-05-30T08:34:28Z</time>
      </trkpt>
      <trkpt lat="44.62139" lon="4.43369">
        <ele>261.64</ele>
        <time>2021-05-30T08:34:46Z</time>
      </trkpt>
      <trkpt lat="44.62143" lon="4.43361">
        <ele>262.56</ele>
        <time>2021-05-30T08:34:54Z</time>
      </trkpt>
      <trkpt lat="44.62148" lon="4.43355">
        <ele>264.5</ele>
        <time>2021-05-30T08:35:01Z</time>
      </trkpt>
      <trkpt lat="44.62151" lon="4.43359">
        <ele>266.26</ele>
        <time>2021-05-30T08:35:16Z</time>
      </trkpt>
      <trkpt lat="44.6215" lon="4.4336">
        <ele>266.24</ele>
        <time>2021-05-30T08:35:18Z</time>
      </trkpt>
      <trkpt lat="44.62146" lon="4.4338">
        <ele>268.01</ele>
        <time>2021-05-30T08:35:37Z</time>
      </trkpt>
      <trkpt lat="44.62148" lon="4.43402">
        <ele>270.74</ele>
        <time>2021-05-30T08:35:57Z</time>
      </trkpt>
      <trkpt lat="44.62151" lon="4.43425">
        <ele>273.25</ele>
        <time>2021-05-30T08:36:20Z</time>
      </trkpt>
      <trkpt lat="44.62153" lon="4.43447">
        <ele>275.79</ele>
        <time>2021-05-30T08:36:38Z</time>
      </trkpt>
      <trkpt lat="44.62155" lon="4.43465">
        <ele>277.61</ele>
        <time>2021-05-30T08:36:54Z</time>
      </trkpt>
      <trkpt lat="44.62152" lon="4.43481">
        <ele>279.36</ele>
        <time>2021-05-30T08:37:11Z</time>
      </trkpt>
      <trkpt lat="44.62145" lon="4.43501">
        <ele>281.94</ele>
        <time>2021-05-30T08:37:30Z</time>
      </trkpt>
      <trkpt lat="44.62141" lon="4.43514">
        <ele>283.69</ele>
        <time>2021-05-30T08:37:44Z</time>
      </trkpt>
      <trkpt lat="44.62143" lon="4.43517">
        <ele>284.63</ele>
        <time>2021-05-30T08:37:56Z</time>
      </trkpt>
      <trkpt lat="44.62147" lon="4.43513">
        <ele>285.47</ele>
        <time>2021-05-30T08:38:04Z</time>
      </trkpt>
      <trkpt lat="44.62153" lon="4.43508">
        <ele>287.33</ele>
        <time>2021-05-30T08:38:23Z</time>
      </trkpt>
      <trkpt lat="44.62153" lon="4.43506">
        <ele>287.43</ele>
        <time>2021-05-30T08:38:41Z</time>
      </trkpt>
      <trkpt lat="44.62152" lon="4.43505">
        <ele>287.56</ele>
        <time>2021-05-30T08:39:02Z</time>
      </trkpt>
      <trkpt lat="44.62153" lon="4.43506">
        <ele>287.66</ele>
        <time>2021-05-30T08:39:20Z</time>
      </trkpt>
      <trkpt lat="44.62157" lon="4.43505">
        <ele>287.78</ele>
        <time>2021-05-30T08:39:44Z</time>
      </trkpt>
      <trkpt lat="44.62169" lon="4.43498">
        <ele>289.61</ele>
        <time>2021-05-30T08:39:59Z</time>
      </trkpt>
      <trkpt lat="44.62183" lon="4.43494">
        <ele>292.27</ele>
        <time>2021-05-30T08:40:17Z</time>
      </trkpt>
      <trkpt lat="44.62186" lon="4.43487">
        <ele>293.22</ele>
        <time>2021-05-30T08:40:27Z</time>
      </trkpt>
      <trkpt lat="44.62186" lon="4.43487">
        <ele>294.07</ele>
        <time>2021-05-30T08:40:28Z</time>
      </trkpt>
      <trkpt lat="44.62193" lon="4.43471">
        <ele>294.94</ele>
        <time>2021-05-30T08:40:43Z</time>
      </trkpt>
      <trkpt lat="44.622" lon="4.43457">
        <ele>296.67</ele>
        <time>2021-05-30T08:40:56Z</time>
      </trkpt>
      <trkpt lat="44.62207" lon="4.43447">
        <ele>297.73</ele>
        <time>2021-05-30T08:41:07Z</time>
      </trkpt>
      <trkpt lat="44.62213" lon="4.43431">
        <ele>299.41</ele>
        <time>2021-05-30T08:41:21Z</time>
      </trkpt>
      <trkpt lat="44.62217" lon="4.43426">
        <ele>299.45</ele>
        <time>2021-05-30T08:41:26Z</time>
      </trkpt>
      <trkpt lat="44.62223" lon="4.43423">
        <ele>300.44</ele>
        <time>2021-05-30T08:41:35Z</time>
      </trkpt>
      <trkpt lat="44.62229" lon="4.43428">
        <ele>301.57</ele>
        <time>2021-05-30T08:41:43Z</time>
      </trkpt>
      <trkpt lat="44.62237" lon="4.43442">
        <ele>303.35</ele>
        <time>2021-05-30T08:41:58Z</time>
      </trkpt>
      <trkpt lat="44.62245" lon="4.43454">
        <ele>305.17</ele>
        <time>2021-05-30T08:42:13Z</time>
      </trkpt>
      <trkpt lat="44.62252" lon="4.43467">
        <ele>306.12</ele>
        <time>2021-05-30T08:42:29Z</time>
      </trkpt>
      <trkpt lat="44.62261" lon="4.43482">
        <ele>307.24</ele>
        <time>2021-05-30T08:42:46Z</time>
      </trkpt>
      <trkpt lat="44.6227" lon="4.43488">
        <ele>308.91</ele>
        <time>2021-05-30T08:42:58Z</time>
      </trkpt>
      <trkpt lat="44.62281" lon="4.43494">
        <ele>309.84</ele>
        <time>2021-05-30T08:43:12Z</time>
      </trkpt>
      <trkpt lat="44.6229" lon="4.43504">
        <ele>310.78</ele>
        <time>2021-05-30T08:43:25Z</time>
      </trkpt>
      <trkpt lat="44.6229" lon="4.43508">
        <ele>311.87</ele>
        <time>2021-05-30T08:43:42Z</time>
      </trkpt>
      <trkpt lat="44.62294" lon="4.43529">
        <ele>311.98</ele>
        <time>2021-05-30T08:44:00Z</time>
      </trkpt>
      <trkpt lat="44.62304" lon="4.43535">
        <ele>312.8</ele>
        <time>2021-05-30T08:44:13Z</time>
      </trkpt>
      <trkpt lat="44.62307" lon="4.43538">
        <ele>313.71</ele>
        <time>2021-05-30T08:44:17Z</time>
      </trkpt>
      <trkpt lat="44.62316" lon="4.43549">
        <ele>314.98</ele>
        <time>2021-05-30T08:44:30Z</time>
      </trkpt>
      <trkpt lat="44.62316" lon="4.4355">
        <ele>314.99</ele>
        <time>2021-05-30T08:44:31Z</time>
      </trkpt>
      <trkpt lat="44.62319" lon="4.43556">
        <ele>315.81</ele>
        <time>2021-05-30T08:44:37Z</time>
      </trkpt>
      <trkpt lat="44.62327" lon="4.43571">
        <ele>316.74</ele>
        <time>2021-05-30T08:44:52Z</time>
      </trkpt>
      <trkpt lat="44.62336" lon="4.43578">
        <ele>317.83</ele>
        <time>2021-05-30T08:45:05Z</time>
      </trkpt>
      <trkpt lat="44.62338" lon="4.43581">
        <ele>318.78</ele>
        <time>2021-05-30T08:45:08Z</time>
      </trkpt>
      <trkpt lat="44.62339" lon="4.43583">
        <ele>318.79</ele>
        <time>2021-05-30T08:45:10Z</time>
      </trkpt>
      <trkpt lat="44.62343" lon="4.43594">
        <ele>319.64</ele>
        <time>2021-05-30T08:45:20Z</time>
      </trkpt>
      <trkpt lat="44.6235" lon="4.43609">
        <ele>321.35</ele>
        <time>2021-05-30T08:45:34Z</time>
      </trkpt>
      <trkpt lat="44.62355" lon="4.43622">
        <ele>322.26</ele>
        <time>2021-05-30T08:45:46Z</time>
      </trkpt>
      <trkpt lat="44.62359" lon="4.43631">
        <ele>323.12</ele>
        <time>2021-05-30T08:45:56Z</time>
      </trkpt>
      <trkpt lat="44.62362" lon="4.43632">
        <ele>324.05</ele>
        <time>2021-05-30T08:45:59Z</time>
      </trkpt>
      <trkpt lat="44.6237" lon="4.4364">
        <ele>324.92</ele>
        <time>2021-05-30T08:46:10Z</time>
      </trkpt>
      <trkpt lat="44.6237" lon="4.43643">
        <ele>324.94</ele>
        <time>2021-05-30T08:46:12Z</time>
      </trkpt>
      <trkpt lat="44.62374" lon="4.43647">
        <ele>324.97</ele>
        <time>2021-05-30T08:46:17Z</time>
      </trkpt>
      <trkpt lat="44.62375" lon="4.4365">
        <ele>325.93</ele>
        <time>2021-05-30T08:46:19Z</time>
      </trkpt>
      <trkpt lat="44.62379" lon="4.43666">
        <ele>326.9</ele>
        <time>2021-05-30T08:46:33Z</time>
      </trkpt>
      <trkpt lat="44.62387" lon="4.43679">
        <ele>327.8</ele>
        <time>2021-05-30T08:46:47Z</time>
      </trkpt>
      <trkpt lat="44.62388" lon="4.43686">
        <ele>328.63</ele>
        <time>2021-05-30T08:46:54Z</time>
      </trkpt>
      <trkpt lat="44.62393" lon="4.43698">
        <ele>330.25</ele>
        <time>2021-05-30T08:47:07Z</time>
      </trkpt>
      <trkpt lat="44.62401" lon="4.43705">
        <ele>331.9</ele>
        <time>2021-05-30T08:47:18Z</time>
      </trkpt>
      <trkpt lat="44.62412" lon="4.43718">
        <ele>332.81</ele>
        <time>2021-05-30T08:47:32Z</time>
      </trkpt>
      <trkpt lat="44.62421" lon="4.4373">
        <ele>334.57</ele>
        <time>2021-05-30T08:47:45Z</time>
      </trkpt>
      <trkpt lat="44.62427" lon="4.43743">
        <ele>335.52</ele>
        <time>2021-05-30T08:47:57Z</time>
      </trkpt>
      <trkpt lat="44.62429" lon="4.43747">
        <ele>335.53</ele>
        <time>2021-05-30T08:48:00Z</time>
      </trkpt>
      <trkpt lat="44.62436" lon="4.43755">
        <ele>336.47</ele>
        <time>2021-05-30T08:48:09Z</time>
      </trkpt>
      <trkpt lat="44.62439" lon="4.43758">
        <ele>336.54</ele>
        <time>2021-05-30T08:48:13Z</time>
      </trkpt>
      <trkpt lat="44.62435" lon="4.43761">
        <ele>337.43</ele>
        <time>2021-05-30T08:48:26Z</time>
      </trkpt>
      <trkpt lat="44.62435" lon="4.43764">
        <ele>338.49</ele>
        <time>2021-05-30T08:48:49Z</time>
      </trkpt>
      <trkpt lat="44.62435" lon="4.43764">
        <ele>338.6</ele>
        <time>2021-05-30T08:49:10Z</time>
      </trkpt>
      <trkpt lat="44.62435" lon="4.43765">
        <ele>336.38</ele>
        <time>2021-05-30T08:49:27Z</time>
      </trkpt>
      <trkpt lat="44.62435" lon="4.43765">
        <ele>338.69</ele>
        <time>2021-05-30T08:49:34Z</time>
      </trkpt>
      <trkpt lat="44.62435" lon="4.43765">
        <ele>335.31</ele>
        <time>2021-05-30T08:50:01Z</time>
      </trkpt>
      <trkpt lat="44.62435" lon="4.43765">
        <ele>333.4</ele>
        <time>2021-05-30T08:50:04Z</time>
      </trkpt>
      <trkpt lat="44.62435" lon="4.43765">
        <ele>338.74</ele>
        <time>2021-05-30T08:50:05Z</time>
      </trkpt>
      <trkpt lat="44.62435" lon="4.43765">
        <ele>338.74</ele>
        <time>2021-05-30T08:50:06Z</time>
      </trkpt>
      <trkpt lat="44.62435" lon="4.43765">
        <ele>335.35</ele>
        <time>2021-05-30T08:50:15Z</time>
      </trkpt>
      <trkpt lat="44.62435" lon="4.43765">
        <ele>335.35</ele>
        <time>2021-05-30T08:50:16Z</time>
      </trkpt>
      <trkpt lat="44.62435" lon="4.43764">
        <ele>338.47</ele>
        <time>2021-05-30T08:50:22Z</time>
      </trkpt>
      <trkpt lat="44.62435" lon="4.43764">
        <ele>338.48</ele>
        <time>2021-05-30T08:50:23Z</time>
      </trkpt>
      <trkpt lat="44.62435" lon="4.43764">
        <ele>343.54</ele>
        <time>2021-05-30T08:50:29Z</time>
      </trkpt>
      <trkpt lat="44.62435" lon="4.43764">
        <ele>343.54</ele>
        <time>2021-05-30T08:50:30Z</time>
      </trkpt>
      <trkpt lat="44.62435" lon="4.43764">
        <ele>339.9</ele>
        <time>2021-05-30T08:50:32Z</time>
      </trkpt>
      <trkpt lat="44.62435" lon="4.43764">
        <ele>338.79</ele>
        <time>2021-05-30T08:50:34Z</time>
      </trkpt>
      <trkpt lat="44.62435" lon="4.43765">
        <ele>338.07</ele>
        <time>2021-05-30T08:50:58Z</time>
      </trkpt>
      <trkpt lat="44.62435" lon="4.43765">
        <ele>338.18</ele>
        <time>2021-05-30T08:51:28Z</time>
      </trkpt>
      <trkpt lat="44.62435" lon="4.43765">
        <ele>338.29</ele>
        <time>2021-05-30T08:52:02Z</time>
      </trkpt>
      <trkpt lat="44.62434" lon="4.43765">
        <ele>338.45</ele>
        <time>2021-05-30T08:52:48Z</time>
      </trkpt>
      <trkpt lat="44.62435" lon="4.43766">
        <ele>325.99</ele>
        <time>2021-05-30T08:53:11Z</time>
      </trkpt>
      <trkpt lat="44.62435" lon="4.43766">
        <ele>334.31</ele>
        <time>2021-05-30T08:53:12Z</time>
      </trkpt>
      <trkpt lat="44.62435" lon="4.43766">
        <ele>349.04</ele>
        <time>2021-05-30T08:53:13Z</time>
      </trkpt>
      <trkpt lat="44.62435" lon="4.43766">
        <ele>343.32</ele>
        <time>2021-05-30T08:53:14Z</time>
      </trkpt>
      <trkpt lat="44.62435" lon="4.43766">
        <ele>338.92</ele>
        <time>2021-05-30T08:53:15Z</time>
      </trkpt>
      <trkpt lat="44.62435" lon="4.43765">
        <ele>342.93</ele>
        <time>2021-05-30T08:53:18Z</time>
      </trkpt>
      <trkpt lat="44.62435" lon="4.43765">
        <ele>342.93</ele>
        <time>2021-05-30T08:53:19Z</time>
      </trkpt>
      <trkpt lat="44.62435" lon="4.43765">
        <ele>339.94</ele>
        <time>2021-05-30T08:53:22Z</time>
      </trkpt>
      <trkpt lat="44.62436" lon="4.43767">
        <ele>337.51</ele>
        <time>2021-05-30T08:53:30Z</time>
      </trkpt>
      <trkpt lat="44.62437" lon="4.4377">
        <ele>339.53</ele>
        <time>2021-05-30T08:53:33Z</time>
      </trkpt>
      <trkpt lat="44.62439" lon="4.43775">
        <ele>339.63</ele>
        <time>2021-05-30T08:53:37Z</time>
      </trkpt>
      <trkpt lat="44.62447" lon="4.43787">
        <ele>341.55</ele>
        <time>2021-05-30T08:53:51Z</time>
      </trkpt>
      <trkpt lat="44.62447" lon="4.43788">
        <ele>341.4</ele>
        <time>2021-05-30T08:53:52Z</time>
      </trkpt>
      <trkpt lat="44.62449" lon="4.43791">
        <ele>336.69</ele>
        <time>2021-05-30T08:53:59Z</time>
      </trkpt>
      <trkpt lat="44.6245" lon="4.43792">
        <ele>340.01</ele>
        <time>2021-05-30T08:54:00Z</time>
      </trkpt>
      <trkpt lat="44.62454" lon="4.43796">
        <ele>343.11</ele>
        <time>2021-05-30T08:54:05Z</time>
      </trkpt>
      <trkpt lat="44.62455" lon="4.43797">
        <ele>338.46</ele>
        <time>2021-05-30T08:54:06Z</time>
      </trkpt>
      <trkpt lat="44.62455" lon="4.43797">
        <ele>341.59</ele>
        <time>2021-05-30T08:54:07Z</time>
      </trkpt>
      <trkpt lat="44.62458" lon="4.43801">
        <ele>338.4</ele>
        <time>2021-05-30T08:54:12Z</time>
      </trkpt>
      <trkpt lat="44.6246" lon="4.43805">
        <ele>342.08</ele>
        <time>2021-05-30T08:54:16Z</time>
      </trkpt>
      <trkpt lat="44.62462" lon="4.43807">
        <ele>340.56</ele>
        <time>2021-05-30T08:54:19Z</time>
      </trkpt>
      <trkpt lat="44.62463" lon="4.43808">
        <ele>343.95</ele>
        <time>2021-05-30T08:54:20Z</time>
      </trkpt>
      <trkpt lat="44.62463" lon="4.43809">
        <ele>339.45</ele>
        <time>2021-05-30T08:54:21Z</time>
      </trkpt>
      <trkpt lat="44.62464" lon="4.43809">
        <ele>342.59</ele>
        <time>2021-05-30T08:54:22Z</time>
      </trkpt>
      <trkpt lat="44.62465" lon="4.43811">
        <ele>343.67</ele>
        <time>2021-05-30T08:54:24Z</time>
      </trkpt>
      <trkpt lat="44.62466" lon="4.43814">
        <ele>341.74</ele>
        <time>2021-05-30T08:54:28Z</time>
      </trkpt>
      <trkpt lat="44.62467" lon="4.43817">
        <ele>344.6</ele>
        <time>2021-05-30T08:54:31Z</time>
      </trkpt>
      <trkpt lat="44.62467" lon="4.43818">
        <ele>340.59</ele>
        <time>2021-05-30T08:54:32Z</time>
      </trkpt>
      <trkpt lat="44.62468" lon="4.43821">
        <ele>345.34</ele>
        <time>2021-05-30T08:54:35Z</time>
      </trkpt>
      <trkpt lat="44.62468" lon="4.43822">
        <ele>342.08</ele>
        <time>2021-05-30T08:54:36Z</time>
      </trkpt>
      <trkpt lat="44.62468" lon="4.43823">
        <ele>342.37</ele>
        <time>2021-05-30T08:54:37Z</time>
      </trkpt>
      <trkpt lat="44.62469" lon="4.43824">
        <ele>345.43</ele>
        <time>2021-05-30T08:54:39Z</time>
      </trkpt>
      <trkpt lat="44.62469" lon="4.43825">
        <ele>345.44</ele>
        <time>2021-05-30T08:54:40Z</time>
      </trkpt>
      <trkpt lat="44.6247" lon="4.43829">
        <ele>345.1</ele>
        <time>2021-05-30T08:54:43Z</time>
      </trkpt>
      <trkpt lat="44.62473" lon="4.43838">
        <ele>344.97</ele>
        <time>2021-05-30T08:54:51Z</time>
      </trkpt>
      <trkpt lat="44.62473" lon="4.4385">
        <ele>344.95</ele>
        <time>2021-05-30T08:55:00Z</time>
      </trkpt>
      <trkpt lat="44.62477" lon="4.43867">
        <ele>345.05</ele>
        <time>2021-05-30T08:55:13Z</time>
      </trkpt>
      <trkpt lat="44.62482" lon="4.43878">
        <ele>346.95</ele>
        <time>2021-05-30T08:55:27Z</time>
      </trkpt>
      <trkpt lat="44.62485" lon="4.43887">
        <ele>348.91</ele>
        <time>2021-05-30T08:55:36Z</time>
      </trkpt>
      <trkpt lat="44.62491" lon="4.43898">
        <ele>348.91</ele>
        <time>2021-05-30T08:55:49Z</time>
      </trkpt>
      <trkpt lat="44.62492" lon="4.43899">
        <ele>348.93</ele>
        <time>2021-05-30T08:55:51Z</time>
      </trkpt>
      <trkpt lat="44.625" lon="4.43909">
        <ele>350.53</ele>
        <time>2021-05-30T08:56:03Z</time>
      </trkpt>
      <trkpt lat="44.62501" lon="4.4393">
        <ele>351.35</ele>
        <time>2021-05-30T08:56:18Z</time>
      </trkpt>
      <trkpt lat="44.62504" lon="4.43949">
        <ele>352.2</ele>
        <time>2021-05-30T08:56:34Z</time>
      </trkpt>
      <trkpt lat="44.62508" lon="4.43954">
        <ele>353.12</ele>
        <time>2021-05-30T08:56:41Z</time>
      </trkpt>
      <trkpt lat="44.62519" lon="4.43962">
        <ele>354.04</ele>
        <time>2021-05-30T08:56:56Z</time>
      </trkpt>
      <trkpt lat="44.62526" lon="4.43973">
        <ele>355.71</ele>
        <time>2021-05-30T08:57:09Z</time>
      </trkpt>
      <trkpt lat="44.62531" lon="4.43973">
        <ele>355.78</ele>
        <time>2021-05-30T08:57:16Z</time>
      </trkpt>
      <trkpt lat="44.62533" lon="4.43973">
        <ele>356.55</ele>
        <time>2021-05-30T08:57:19Z</time>
      </trkpt>
      <trkpt lat="44.62544" lon="4.43974">
        <ele>356.61</ele>
        <time>2021-05-30T08:57:30Z</time>
      </trkpt>
      <trkpt lat="44.62552" lon="4.43973">
        <ele>358.32</ele>
        <time>2021-05-30T08:57:47Z</time>
      </trkpt>
      <trkpt lat="44.62558" lon="4.43972">
        <ele>358.51</ele>
        <time>2021-05-30T08:58:21Z</time>
      </trkpt>
      <trkpt lat="44.62565" lon="4.43974">
        <ele>358.64</ele>
        <time>2021-05-30T08:58:39Z</time>
      </trkpt>
      <trkpt lat="44.62571" lon="4.43975">
        <ele>358.68</ele>
        <time>2021-05-30T08:58:46Z</time>
      </trkpt>
      <trkpt lat="44.62578" lon="4.43975">
        <ele>359.67</ele>
        <time>2021-05-30T08:58:56Z</time>
      </trkpt>
      <trkpt lat="44.6259" lon="4.43974">
        <ele>359.74</ele>
        <time>2021-05-30T08:59:09Z</time>
      </trkpt>
      <trkpt lat="44.62602" lon="4.43975">
        <ele>361.8</ele>
        <time>2021-05-30T08:59:22Z</time>
      </trkpt>
      <trkpt lat="44.62615" lon="4.43974">
        <ele>361.86</ele>
        <time>2021-05-30T08:59:36Z</time>
      </trkpt>
      <trkpt lat="44.62622" lon="4.43973">
        <ele>362.76</ele>
        <time>2021-05-30T08:59:45Z</time>
      </trkpt>
      <trkpt lat="44.62635" lon="4.43971">
        <ele>363.64</ele>
        <time>2021-05-30T09:00:00Z</time>
      </trkpt>
      <trkpt lat="44.62647" lon="4.43967">
        <ele>365.37</ele>
        <time>2021-05-30T09:00:14Z</time>
      </trkpt>
      <trkpt lat="44.62661" lon="4.43964">
        <ele>367.03</ele>
        <time>2021-05-30T09:00:30Z</time>
      </trkpt>
      <trkpt lat="44.62666" lon="4.43961">
        <ele>367.08</ele>
        <time>2021-05-30T09:00:37Z</time>
      </trkpt>
      <trkpt lat="44.62674" lon="4.4396">
        <ele>368.05</ele>
        <time>2021-05-30T09:00:45Z</time>
      </trkpt>
      <trkpt lat="44.62686" lon="4.43955">
        <ele>369.88</ele>
        <time>2021-05-30T09:00:59Z</time>
      </trkpt>
      <trkpt lat="44.62696" lon="4.43951">
        <ele>371.76</ele>
        <time>2021-05-30T09:01:13Z</time>
      </trkpt>
      <trkpt lat="44.62703" lon="4.43955">
        <ele>372.65</ele>
        <time>2021-05-30T09:01:22Z</time>
      </trkpt>
      <trkpt lat="44.62706" lon="4.43959">
        <ele>373.46</ele>
        <time>2021-05-30T09:01:26Z</time>
      </trkpt>
      <trkpt lat="44.62712" lon="4.43963">
        <ele>374.24</ele>
        <time>2021-05-30T09:01:34Z</time>
      </trkpt>
      <trkpt lat="44.62723" lon="4.4397">
        <ele>376.11</ele>
        <time>2021-05-30T09:01:49Z</time>
      </trkpt>
      <trkpt lat="44.62725" lon="4.43971">
        <ele>376.97</ele>
        <time>2021-05-30T09:01:51Z</time>
      </trkpt>
      <trkpt lat="44.62731" lon="4.43969">
        <ele>377.79</ele>
        <time>2021-05-30T09:01:59Z</time>
      </trkpt>
      <trkpt lat="44.62735" lon="4.43967">
        <ele>377.79</ele>
        <time>2021-05-30T09:02:04Z</time>
      </trkpt>
      <trkpt lat="44.62738" lon="4.43965">
        <ele>378.77</ele>
        <time>2021-05-30T09:02:08Z</time>
      </trkpt>
      <trkpt lat="44.6274" lon="4.43964">
        <ele>378.78</ele>
        <time>2021-05-30T09:02:10Z</time>
      </trkpt>
      <trkpt lat="44.62746" lon="4.43959">
        <ele>379.72</ele>
        <time>2021-05-30T09:02:19Z</time>
      </trkpt>
      <trkpt lat="44.62748" lon="4.43958">
        <ele>379.72</ele>
        <time>2021-05-30T09:02:22Z</time>
      </trkpt>
      <trkpt lat="44.6276" lon="4.43947">
        <ele>380.57</ele>
        <time>2021-05-30T09:02:38Z</time>
      </trkpt>
      <trkpt lat="44.62768" lon="4.43945">
        <ele>381.42</ele>
        <time>2021-05-30T09:02:49Z</time>
      </trkpt>
      <trkpt lat="44.62773" lon="4.43948">
        <ele>382.45</ele>
        <time>2021-05-30T09:02:56Z</time>
      </trkpt>
      <trkpt lat="44.62781" lon="4.43957">
        <ele>384.98</ele>
        <time>2021-05-30T09:03:09Z</time>
      </trkpt>
      <trkpt lat="44.62782" lon="4.43957">
        <ele>384.97</ele>
        <time>2021-05-30T09:03:10Z</time>
      </trkpt>
      <trkpt lat="44.62789" lon="4.43967">
        <ele>385.89</ele>
        <time>2021-05-30T09:03:24Z</time>
      </trkpt>
      <trkpt lat="44.62794" lon="4.43972">
        <ele>386.7</ele>
        <time>2021-05-30T09:03:42Z</time>
      </trkpt>
      <trkpt lat="44.62795" lon="4.43977">
        <ele>387.71</ele>
        <time>2021-05-30T09:03:56Z</time>
      </trkpt>
      <trkpt lat="44.62795" lon="4.43977">
        <ele>387.81</ele>
        <time>2021-05-30T09:04:22Z</time>
      </trkpt>
      <trkpt lat="44.62795" lon="4.43975">
        <ele>387.93</ele>
        <time>2021-05-30T09:04:56Z</time>
      </trkpt>
      <trkpt lat="44.62796" lon="4.43983">
        <ele>387.97</ele>
        <time>2021-05-30T09:05:07Z</time>
      </trkpt>
      <trkpt lat="44.62803" lon="4.44">
        <ele>389.63</ele>
        <time>2021-05-30T09:05:21Z</time>
      </trkpt>
      <trkpt lat="44.62817" lon="4.44012">
        <ele>392.43</ele>
        <time>2021-05-30T09:05:37Z</time>
      </trkpt>
      <trkpt lat="44.62832" lon="4.44017">
        <ele>393.41</ele>
        <time>2021-05-30T09:05:53Z</time>
      </trkpt>
      <trkpt lat="44.62847" lon="4.44021">
        <ele>395.33</ele>
        <time>2021-05-30T09:06:09Z</time>
      </trkpt>
      <trkpt lat="44.62862" lon="4.44028">
        <ele>397.08</ele>
        <time>2021-05-30T09:06:25Z</time>
      </trkpt>
      <trkpt lat="44.62873" lon="4.44031">
        <ele>398.84</ele>
        <time>2021-05-30T09:06:36Z</time>
      </trkpt>
      <trkpt lat="44.62875" lon="4.44032">
        <ele>398.85</ele>
        <time>2021-05-30T09:06:38Z</time>
      </trkpt>
      <trkpt lat="44.62877" lon="4.44032">
        <ele>398.84</ele>
        <time>2021-05-30T09:06:40Z</time>
      </trkpt>
      <trkpt lat="44.6289" lon="4.44041">
        <ele>400.59</ele>
        <time>2021-05-30T09:06:56Z</time>
      </trkpt>
      <trkpt lat="44.62891" lon="4.44041">
        <ele>401.39</ele>
        <time>2021-05-30T09:07:09Z</time>
      </trkpt>
      <trkpt lat="44.62892" lon="4.44045">
        <ele>401.39</ele>
        <time>2021-05-30T09:07:21Z</time>
      </trkpt>
      <trkpt lat="44.62895" lon="4.4405">
        <ele>401.43</ele>
        <time>2021-05-30T09:07:33Z</time>
      </trkpt>
      <trkpt lat="44.62896" lon="4.44049">
        <ele>401.5</ele>
        <time>2021-05-30T09:07:57Z</time>
      </trkpt>
      <trkpt lat="44.62904" lon="4.44057">
        <ele>401.56</ele>
        <time>2021-05-30T09:08:10Z</time>
      </trkpt>
      <trkpt lat="44.6291" lon="4.44062">
        <ele>401.57</ele>
        <time>2021-05-30T09:08:17Z</time>
      </trkpt>
      <trkpt lat="44.62924" lon="4.44066">
        <ele>402.4</ele>
        <time>2021-05-30T09:08:30Z</time>
      </trkpt>
      <trkpt lat="44.62925" lon="4.44067">
        <ele>402.41</ele>
        <time>2021-05-30T09:08:31Z</time>
      </trkpt>
      <trkpt lat="44.62927" lon="4.44068">
        <ele>402.41</ele>
        <time>2021-05-30T09:08:34Z</time>
      </trkpt>
      <trkpt lat="44.62941" lon="4.44073">
        <ele>403.27</ele>
        <time>2021-05-30T09:08:48Z</time>
      </trkpt>
      <trkpt lat="44.62954" lon="4.44081">
        <ele>403.28</ele>
        <time>2021-05-30T09:09:00Z</time>
      </trkpt>
      <trkpt lat="44.62968" lon="4.44091">
        <ele>404.9</ele>
        <time>2021-05-30T09:09:13Z</time>
      </trkpt>
      <trkpt lat="44.62979" lon="4.44104">
        <ele>404.94</ele>
        <time>2021-05-30T09:09:26Z</time>
      </trkpt>
      <trkpt lat="44.62987" lon="4.44119">
        <ele>405.81</ele>
        <time>2021-05-30T09:09:40Z</time>
      </trkpt>
      <trkpt lat="44.62993" lon="4.4413">
        <ele>405.83</ele>
        <time>2021-05-30T09:09:53Z</time>
      </trkpt>
      <trkpt lat="44.62993" lon="4.44132">
        <ele>405.88</ele>
        <time>2021-05-30T09:10:10Z</time>
      </trkpt>
      <trkpt lat="44.62995" lon="4.44135">
        <ele>405.89</ele>
        <time>2021-05-30T09:10:18Z</time>
      </trkpt>
      <trkpt lat="44.63001" lon="4.44144">
        <ele>405.94</ele>
        <time>2021-05-30T09:10:26Z</time>
      </trkpt>
      <trkpt lat="44.63003" lon="4.44149">
        <ele>405.96</ele>
        <time>2021-05-30T09:10:30Z</time>
      </trkpt>
      <trkpt lat="44.63005" lon="4.44153">
        <ele>405.97</ele>
        <time>2021-05-30T09:10:33Z</time>
      </trkpt>
      <trkpt lat="44.63012" lon="4.44169">
        <ele>406.87</ele>
        <time>2021-05-30T09:10:46Z</time>
      </trkpt>
      <trkpt lat="44.63015" lon="4.44173">
        <ele>406.88</ele>
        <time>2021-05-30T09:10:50Z</time>
      </trkpt>
      <trkpt lat="44.63017" lon="4.44176">
        <ele>406.91</ele>
        <time>2021-05-30T09:10:52Z</time>
      </trkpt>
      <trkpt lat="44.63024" lon="4.44187">
        <ele>401.95</ele>
        <time>2021-05-30T09:11:02Z</time>
      </trkpt>
      <trkpt lat="44.63025" lon="4.44188">
        <ele>408.16</ele>
        <time>2021-05-30T09:11:03Z</time>
      </trkpt>
      <trkpt lat="44.63036" lon="4.44201">
        <ele>408.19</ele>
        <time>2021-05-30T09:11:16Z</time>
      </trkpt>
      <trkpt lat="44.63046" lon="4.44212">
        <ele>408.26</ele>
        <time>2021-05-30T09:11:28Z</time>
      </trkpt>
      <trkpt lat="44.6306" lon="4.44224">
        <ele>408.3</ele>
        <time>2021-05-30T09:11:42Z</time>
      </trkpt>
      <trkpt lat="44.63061" lon="4.44225">
        <ele>408.3</ele>
        <time>2021-05-30T09:11:43Z</time>
      </trkpt>
      <trkpt lat="44.63067" lon="4.44228">
        <ele>408.31</ele>
        <time>2021-05-30T09:11:49Z</time>
      </trkpt>
      <trkpt lat="44.63072" lon="4.44232">
        <ele>408.32</ele>
        <time>2021-05-30T09:11:53Z</time>
      </trkpt>
      <trkpt lat="44.63074" lon="4.44233">
        <ele>408.33</ele>
        <time>2021-05-30T09:11:55Z</time>
      </trkpt>
      <trkpt lat="44.63089" lon="4.44244">
        <ele>408.36</ele>
        <time>2021-05-30T09:12:10Z</time>
      </trkpt>
      <trkpt lat="44.63098" lon="4.44249">
        <ele>408.4</ele>
        <time>2021-05-30T09:12:19Z</time>
      </trkpt>
      <trkpt lat="44.63101" lon="4.44251">
        <ele>408.42</ele>
        <time>2021-05-30T09:12:23Z</time>
      </trkpt>
      <trkpt lat="44.63112" lon="4.44256">
        <ele>408.48</ele>
        <time>2021-05-30T09:12:34Z</time>
      </trkpt>
      <trkpt lat="44.63113" lon="4.44256">
        <ele>408.48</ele>
        <time>2021-05-30T09:12:35Z</time>
      </trkpt>
      <trkpt lat="44.63122" lon="4.44258">
        <ele>406.09</ele>
        <time>2021-05-30T09:12:44Z</time>
      </trkpt>
      <trkpt lat="44.63135" lon="4.44263">
        <ele>406.12</ele>
        <time>2021-05-30T09:12:57Z</time>
      </trkpt>
      <trkpt lat="44.63142" lon="4.44265">
        <ele>406.14</ele>
        <time>2021-05-30T09:13:04Z</time>
      </trkpt>
      <trkpt lat="44.63153" lon="4.44268">
        <ele>406.17</ele>
        <time>2021-05-30T09:13:18Z</time>
      </trkpt>
      <trkpt lat="44.63169" lon="4.44272">
        <ele>406.23</ele>
        <time>2021-05-30T09:13:35Z</time>
      </trkpt>
      <trkpt lat="44.6318" lon="4.4427">
        <ele>406.27</ele>
        <time>2021-05-30T09:13:49Z</time>
      </trkpt>
      <trkpt lat="44.6319" lon="4.44272">
        <ele>406.35</ele>
        <time>2021-05-30T09:14:09Z</time>
      </trkpt>
      <trkpt lat="44.63191" lon="4.44272">
        <ele>406.35</ele>
        <time>2021-05-30T09:14:10Z</time>
      </trkpt>
      <trkpt lat="44.63206" lon="4.44272">
        <ele>406.39</ele>
        <time>2021-05-30T09:14:24Z</time>
      </trkpt>
      <trkpt lat="44.63209" lon="4.44273">
        <ele>406.4</ele>
        <time>2021-05-30T09:14:27Z</time>
      </trkpt>
      <trkpt lat="44.63223" lon="4.44274">
        <ele>405.67</ele>
        <time>2021-05-30T09:14:39Z</time>
      </trkpt>
      <trkpt lat="44.6324" lon="4.44275">
        <ele>404.76</ele>
        <time>2021-05-30T09:14:53Z</time>
      </trkpt>
      <trkpt lat="44.63254" lon="4.44286">
        <ele>403.26</ele>
        <time>2021-05-30T09:15:07Z</time>
      </trkpt>
      <trkpt lat="44.63265" lon="4.44304">
        <ele>402.5</ele>
        <time>2021-05-30T09:15:20Z</time>
      </trkpt>
      <trkpt lat="44.63275" lon="4.44321">
        <ele>401.79</ele>
        <time>2021-05-30T09:15:35Z</time>
      </trkpt>
      <trkpt lat="44.63284" lon="4.44335">
        <ele>400.19</ele>
        <time>2021-05-30T09:15:47Z</time>
      </trkpt>
      <trkpt lat="44.63289" lon="4.44343">
        <ele>400.23</ele>
        <time>2021-05-30T09:15:54Z</time>
      </trkpt>
      <trkpt lat="44.63299" lon="4.44359">
        <ele>400.28</ele>
        <time>2021-05-30T09:16:08Z</time>
      </trkpt>
      <trkpt lat="44.633" lon="4.4436">
        <ele>400.28</ele>
        <time>2021-05-30T09:16:09Z</time>
      </trkpt>
      <trkpt lat="44.63303" lon="4.44366">
        <ele>399.45</ele>
        <time>2021-05-30T09:16:15Z</time>
      </trkpt>
      <trkpt lat="44.63317" lon="4.44387">
        <ele>399.51</ele>
        <time>2021-05-30T09:16:31Z</time>
      </trkpt>
      <trkpt lat="44.63317" lon="4.44388">
        <ele>399.52</ele>
        <time>2021-05-30T09:16:32Z</time>
      </trkpt>
      <trkpt lat="44.63324" lon="4.44398">
        <ele>399.54</ele>
        <time>2021-05-30T09:16:40Z</time>
      </trkpt>
      <trkpt lat="44.63335" lon="4.44411">
        <ele>399.57</ele>
        <time>2021-05-30T09:16:53Z</time>
      </trkpt>
      <trkpt lat="44.63353" lon="4.4442">
        <ele>399.61</ele>
        <time>2021-05-30T09:17:09Z</time>
      </trkpt>
      <trkpt lat="44.63356" lon="4.44422">
        <ele>399.61</ele>
        <time>2021-05-30T09:17:12Z</time>
      </trkpt>
      <trkpt lat="44.63359" lon="4.44422">
        <ele>399.62</ele>
        <time>2021-05-30T09:17:14Z</time>
      </trkpt>
      <trkpt lat="44.63372" lon="4.44424">
        <ele>399.65</ele>
        <time>2021-05-30T09:17:30Z</time>
      </trkpt>
      <trkpt lat="44.63381" lon="4.44425">
        <ele>399.7</ele>
        <time>2021-05-30T09:17:45Z</time>
      </trkpt>
      <trkpt lat="44.63395" lon="4.44426">
        <ele>402.1</ele>
        <time>2021-05-30T09:17:58Z</time>
      </trkpt>
      <trkpt lat="44.63397" lon="4.44426">
        <ele>402.1</ele>
        <time>2021-05-30T09:18:00Z</time>
      </trkpt>
      <trkpt lat="44.63409" lon="4.44425">
        <ele>402.98</ele>
        <time>2021-05-30T09:18:13Z</time>
      </trkpt>
      <trkpt lat="44.63426" lon="4.44425">
        <ele>402.98</ele>
        <time>2021-05-30T09:18:28Z</time>
      </trkpt>
      <trkpt lat="44.63437" lon="4.44425">
        <ele>403.82</ele>
        <time>2021-05-30T09:18:37Z</time>
      </trkpt>
      <trkpt lat="44.6345" lon="4.44426">
        <ele>404.66</ele>
        <time>2021-05-30T09:18:50Z</time>
      </trkpt>
      <trkpt lat="44.63464" lon="4.44429">
        <ele>406.38</ele>
        <time>2021-05-30T09:19:06Z</time>
      </trkpt>
      <trkpt lat="44.63478" lon="4.44432">
        <ele>407.27</ele>
        <time>2021-05-30T09:19:19Z</time>
      </trkpt>
      <trkpt lat="44.63484" lon="4.44436">
        <ele>407.29</ele>
        <time>2021-05-30T09:19:24Z</time>
      </trkpt>
      <trkpt lat="44.63488" lon="4.44436">
        <ele>408.04</ele>
        <time>2021-05-30T09:19:27Z</time>
      </trkpt>
      <trkpt lat="44.63501" lon="4.44439">
        <ele>408.07</ele>
        <time>2021-05-30T09:19:39Z</time>
      </trkpt>
      <trkpt lat="44.63514" lon="4.44443">
        <ele>409.72</ele>
        <time>2021-05-30T09:19:53Z</time>
      </trkpt>
      <trkpt lat="44.63528" lon="4.44451">
        <ele>410.74</ele>
        <time>2021-05-30T09:20:09Z</time>
      </trkpt>
      <trkpt lat="44.63538" lon="4.44457">
        <ele>412.4</ele>
        <time>2021-05-30T09:20:23Z</time>
      </trkpt>
      <trkpt lat="44.63542" lon="4.4446">
        <ele>412.4</ele>
        <time>2021-05-30T09:20:28Z</time>
      </trkpt>
      <trkpt lat="44.63546" lon="4.44463">
        <ele>413.32</ele>
        <time>2021-05-30T09:20:34Z</time>
      </trkpt>
      <trkpt lat="44.63558" lon="4.44468">
        <ele>415.06</ele>
        <time>2021-05-30T09:20:48Z</time>
      </trkpt>
      <trkpt lat="44.63568" lon="4.44474">
        <ele>415.88</ele>
        <time>2021-05-30T09:21:01Z</time>
      </trkpt>
      <trkpt lat="44.63578" lon="4.44481">
        <ele>416.81</ele>
        <time>2021-05-30T09:21:14Z</time>
      </trkpt>
      <trkpt lat="44.63589" lon="4.44487">
        <ele>418.54</ele>
        <time>2021-05-30T09:21:28Z</time>
      </trkpt>
      <trkpt lat="44.63602" lon="4.44493">
        <ele>419.44</ele>
        <time>2021-05-30T09:21:43Z</time>
      </trkpt>
      <trkpt lat="44.63605" lon="4.44494">
        <ele>420.28</ele>
        <time>2021-05-30T09:21:56Z</time>
      </trkpt>
      <trkpt lat="44.63614" lon="4.44499">
        <ele>421.15</ele>
        <time>2021-05-30T09:22:12Z</time>
      </trkpt>
      <trkpt lat="44.63627" lon="4.44505">
        <ele>422.28</ele>
        <time>2021-05-30T09:22:28Z</time>
      </trkpt>
      <trkpt lat="44.63632" lon="4.44506">
        <ele>422.28</ele>
        <time>2021-05-30T09:22:33Z</time>
      </trkpt>
      <trkpt lat="44.63647" lon="4.44512">
        <ele>424.1</ele>
        <time>2021-05-30T09:22:51Z</time>
      </trkpt>
      <trkpt lat="44.63651" lon="4.44513">
        <ele>424.12</ele>
        <time>2021-05-30T09:22:56Z</time>
      </trkpt>
      <trkpt lat="44.63664" lon="4.44519">
        <ele>425.89</ele>
        <time>2021-05-30T09:23:08Z</time>
      </trkpt>
      <trkpt lat="44.63665" lon="4.4452">
        <ele>425.9</ele>
        <time>2021-05-30T09:23:10Z</time>
      </trkpt>
      <trkpt lat="44.63667" lon="4.44521">
        <ele>426.67</ele>
        <time>2021-05-30T09:23:12Z</time>
      </trkpt>
      <trkpt lat="44.6367" lon="4.44521">
        <ele>426.71</ele>
        <time>2021-05-30T09:23:15Z</time>
      </trkpt>
      <trkpt lat="44.63671" lon="4.44521">
        <ele>426.71</ele>
        <time>2021-05-30T09:23:16Z</time>
      </trkpt>
      <trkpt lat="44.63674" lon="4.44523">
        <ele>427.56</ele>
        <time>2021-05-30T09:23:20Z</time>
      </trkpt>
      <trkpt lat="44.63676" lon="4.44525">
        <ele>427.57</ele>
        <time>2021-05-30T09:23:22Z</time>
      </trkpt>
      <trkpt lat="44.63679" lon="4.44526">
        <ele>428.36</ele>
        <time>2021-05-30T09:23:26Z</time>
      </trkpt>
      <trkpt lat="44.63681" lon="4.44527">
        <ele>428.39</ele>
        <time>2021-05-30T09:23:28Z</time>
      </trkpt>
      <trkpt lat="44.63687" lon="4.44526">
        <ele>429.37</ele>
        <time>2021-05-30T09:23:36Z</time>
      </trkpt>
      <trkpt lat="44.63698" lon="4.44528">
        <ele>430.33</ele>
        <time>2021-05-30T09:23:49Z</time>
      </trkpt>
      <trkpt lat="44.6371" lon="4.44532">
        <ele>432.23</ele>
        <time>2021-05-30T09:24:03Z</time>
      </trkpt>
      <trkpt lat="44.63711" lon="4.44532">
        <ele>432.23</ele>
        <time>2021-05-30T09:24:05Z</time>
      </trkpt>
      <trkpt lat="44.63722" lon="4.44533">
        <ele>433.18</ele>
        <time>2021-05-30T09:24:18Z</time>
      </trkpt>
      <trkpt lat="44.63733" lon="4.44536">
        <ele>434.91</ele>
        <time>2021-05-30T09:24:31Z</time>
      </trkpt>
      <trkpt lat="44.63739" lon="4.44535">
        <ele>436.59</ele>
        <time>2021-05-30T09:24:39Z</time>
      </trkpt>
      <trkpt lat="44.63742" lon="4.44535">
        <ele>436.62</ele>
        <time>2021-05-30T09:24:42Z</time>
      </trkpt>
      <trkpt lat="44.63752" lon="4.44536">
        <ele>437.53</ele>
        <time>2021-05-30T09:24:52Z</time>
      </trkpt>
      <trkpt lat="44.63763" lon="4.44538">
        <ele>439.28</ele>
        <time>2021-05-30T09:25:04Z</time>
      </trkpt>
      <trkpt lat="44.63769" lon="4.4454">
        <ele>440.29</ele>
        <time>2021-05-30T09:25:21Z</time>
      </trkpt>
      <trkpt lat="44.63772" lon="4.44542">
        <ele>441.41</ele>
        <time>2021-05-30T09:25:52Z</time>
      </trkpt>
      <trkpt lat="44.63783" lon="4.44551">
        <ele>442.43</ele>
        <time>2021-05-30T09:26:13Z</time>
      </trkpt>
      <trkpt lat="44.63794" lon="4.44557">
        <ele>445.13</ele>
        <time>2021-05-30T09:26:28Z</time>
      </trkpt>
      <trkpt lat="44.63809" lon="4.44558">
        <ele>447.74</ele>
        <time>2021-05-30T09:26:47Z</time>
      </trkpt>
      <trkpt lat="44.63825" lon="4.44561">
        <ele>450.37</ele>
        <time>2021-05-30T09:27:06Z</time>
      </trkpt>
      <trkpt lat="44.63851" lon="4.44581">
        <ele>452.95</ele>
        <time>2021-05-30T09:27:26Z</time>
      </trkpt>
      <trkpt lat="44.63854" lon="4.44583">
        <ele>452.99</ele>
        <time>2021-05-30T09:27:29Z</time>
      </trkpt>
      <trkpt lat="44.63855" lon="4.44588">
        <ele>453.75</ele>
        <time>2021-05-30T09:27:33Z</time>
      </trkpt>
      <trkpt lat="44.63853" lon="4.44591">
        <ele>453.76</ele>
        <time>2021-05-30T09:27:36Z</time>
      </trkpt>
      <trkpt lat="44.63852" lon="4.44592">
        <ele>453.77</ele>
        <time>2021-05-30T09:27:37Z</time>
      </trkpt>
      <trkpt lat="44.63847" lon="4.44596">
        <ele>454.6</ele>
        <time>2021-05-30T09:27:55Z</time>
      </trkpt>
      <trkpt lat="44.63835" lon="4.44594">
        <ele>455.55</ele>
        <time>2021-05-30T09:28:14Z</time>
      </trkpt>
      <trkpt lat="44.6383" lon="4.44594">
        <ele>455.57</ele>
        <time>2021-05-30T09:28:19Z</time>
      </trkpt>
      <trkpt lat="44.63821" lon="4.44596">
        <ele>455.62</ele>
        <time>2021-05-30T09:28:29Z</time>
      </trkpt>
      <trkpt lat="44.63813" lon="4.44598">
        <ele>455.66</ele>
        <time>2021-05-30T09:28:37Z</time>
      </trkpt>
      <trkpt lat="44.63812" lon="4.44599">
        <ele>455.67</ele>
        <time>2021-05-30T09:28:38Z</time>
      </trkpt>
      <trkpt lat="44.63811" lon="4.446">
        <ele>455.67</ele>
        <time>2021-05-30T09:28:39Z</time>
      </trkpt>
      <trkpt lat="44.63807" lon="4.44601">
        <ele>455.68</ele>
        <time>2021-05-30T09:28:42Z</time>
      </trkpt>
      <trkpt lat="44.63805" lon="4.44601">
        <ele>455.69</ele>
        <time>2021-05-30T09:28:44Z</time>
      </trkpt>
      <trkpt lat="44.63804" lon="4.44601">
        <ele>455.7</ele>
        <time>2021-05-30T09:28:45Z</time>
      </trkpt>
      <trkpt lat="44.63794" lon="4.44605">
        <ele>456.51</ele>
        <time>2021-05-30T09:28:54Z</time>
      </trkpt>
      <trkpt lat="44.63792" lon="4.44606">
        <ele>456.53</ele>
        <time>2021-05-30T09:28:57Z</time>
      </trkpt>
      <trkpt lat="44.6379" lon="4.44606">
        <ele>456.52</ele>
        <time>2021-05-30T09:28:58Z</time>
      </trkpt>
      <trkpt lat="44.63784" lon="4.44609">
        <ele>457.38</ele>
        <time>2021-05-30T09:29:04Z</time>
      </trkpt>
      <trkpt lat="44.63783" lon="4.44609">
        <ele>457.38</ele>
        <time>2021-05-30T09:29:05Z</time>
      </trkpt>
      <trkpt lat="44.63781" lon="4.4461">
        <ele>457.39</ele>
        <time>2021-05-30T09:29:07Z</time>
      </trkpt>
      <trkpt lat="44.6378" lon="4.44611">
        <ele>457.39</ele>
        <time>2021-05-30T09:29:08Z</time>
      </trkpt>
      <trkpt lat="44.63779" lon="4.44612">
        <ele>457.41</ele>
        <time>2021-05-30T09:29:10Z</time>
      </trkpt>
      <trkpt lat="44.63777" lon="4.44613">
        <ele>457.42</ele>
        <time>2021-05-30T09:29:11Z</time>
      </trkpt>
      <trkpt lat="44.63776" lon="4.44614">
        <ele>457.42</ele>
        <time>2021-05-30T09:29:12Z</time>
      </trkpt>
      <trkpt lat="44.63774" lon="4.44614">
        <ele>457.43</ele>
        <time>2021-05-30T09:29:14Z</time>
      </trkpt>
      <trkpt lat="44.63773" lon="4.44614">
        <ele>457.43</ele>
        <time>2021-05-30T09:29:15Z</time>
      </trkpt>
      <trkpt lat="44.63772" lon="4.44615">
        <ele>457.44</ele>
        <time>2021-05-30T09:29:16Z</time>
      </trkpt>
      <trkpt lat="44.63764" lon="4.44618">
        <ele>458.23</ele>
        <time>2021-05-30T09:29:23Z</time>
      </trkpt>
      <trkpt lat="44.63763" lon="4.44619">
        <ele>458.23</ele>
        <time>2021-05-30T09:29:24Z</time>
      </trkpt>
      <trkpt lat="44.63762" lon="4.44619">
        <ele>458.23</ele>
        <time>2021-05-30T09:29:25Z</time>
      </trkpt>
      <trkpt lat="44.63758" lon="4.44619">
        <ele>458.25</ele>
        <time>2021-05-30T09:29:28Z</time>
      </trkpt>
      <trkpt lat="44.63757" lon="4.4462">
        <ele>458.26</ele>
        <time>2021-05-30T09:29:29Z</time>
      </trkpt>
      <trkpt lat="44.63756" lon="4.44621">
        <ele>458.26</ele>
        <time>2021-05-30T09:29:30Z</time>
      </trkpt>
      <trkpt lat="44.63752" lon="4.44622">
        <ele>458.29</ele>
        <time>2021-05-30T09:29:34Z</time>
      </trkpt>
      <trkpt lat="44.63749" lon="4.44623">
        <ele>458.3</ele>
        <time>2021-05-30T09:29:37Z</time>
      </trkpt>
      <trkpt lat="44.63746" lon="4.44624">
        <ele>459.09</ele>
        <time>2021-05-30T09:29:41Z</time>
      </trkpt>
      <trkpt lat="44.63742" lon="4.44626">
        <ele>459.11</ele>
        <time>2021-05-30T09:29:45Z</time>
      </trkpt>
      <trkpt lat="44.63738" lon="4.44632">
        <ele>459.13</ele>
        <time>2021-05-30T09:29:50Z</time>
      </trkpt>
      <trkpt lat="44.63734" lon="4.44635">
        <ele>459.97</ele>
        <time>2021-05-30T09:29:54Z</time>
      </trkpt>
      <trkpt lat="44.63731" lon="4.44637">
        <ele>459.99</ele>
        <time>2021-05-30T09:29:58Z</time>
      </trkpt>
      <trkpt lat="44.63722" lon="4.44646">
        <ele>460.88</ele>
        <time>2021-05-30T09:30:08Z</time>
      </trkpt>
      <trkpt lat="44.63711" lon="4.44656">
        <ele>461.76</ele>
        <time>2021-05-30T09:30:23Z</time>
      </trkpt>
      <trkpt lat="44.63703" lon="4.4467">
        <ele>462.56</ele>
        <time>2021-05-30T09:30:34Z</time>
      </trkpt>
      <trkpt lat="44.637" lon="4.44675">
        <ele>462.57</ele>
        <time>2021-05-30T09:30:40Z</time>
      </trkpt>
      <trkpt lat="44.637" lon="4.44677">
        <ele>462.58</ele>
        <time>2021-05-30T09:30:41Z</time>
      </trkpt>
      <trkpt lat="44.63701" lon="4.44683">
        <ele>462.6</ele>
        <time>2021-05-30T09:30:49Z</time>
      </trkpt>
      <trkpt lat="44.63701" lon="4.44684">
        <ele>463.4</ele>
        <time>2021-05-30T09:30:50Z</time>
      </trkpt>
      <trkpt lat="44.63705" lon="4.44694">
        <ele>464.3</ele>
        <time>2021-05-30T09:31:00Z</time>
      </trkpt>
      <trkpt lat="44.63712" lon="4.44707">
        <ele>466.08</ele>
        <time>2021-05-30T09:31:12Z</time>
      </trkpt>
      <trkpt lat="44.63718" lon="4.44718">
        <ele>466.89</ele>
        <time>2021-05-30T09:31:23Z</time>
      </trkpt>
      <trkpt lat="44.63731" lon="4.44732">
        <ele>468.66</ele>
        <time>2021-05-30T09:31:41Z</time>
      </trkpt>
      <trkpt lat="44.63745" lon="4.44753">
        <ele>469.42</ele>
        <time>2021-05-30T09:31:59Z</time>
      </trkpt>
      <trkpt lat="44.63755" lon="4.44768">
        <ele>469.42</ele>
        <time>2021-05-30T09:32:12Z</time>
      </trkpt>
      <trkpt lat="44.63764" lon="4.44777">
        <ele>470.27</ele>
        <time>2021-05-30T09:32:25Z</time>
      </trkpt>
      <trkpt lat="44.63775" lon="4.44787">
        <ele>471.11</ele>
        <time>2021-05-30T09:32:40Z</time>
      </trkpt>
      <trkpt lat="44.63789" lon="4.44798">
        <ele>471.89</ele>
        <time>2021-05-30T09:32:57Z</time>
      </trkpt>
      <trkpt lat="44.63797" lon="4.44803">
        <ele>471.86</ele>
        <time>2021-05-30T09:33:06Z</time>
      </trkpt>
      <trkpt lat="44.638" lon="4.44806">
        <ele>472.66</ele>
        <time>2021-05-30T09:33:10Z</time>
      </trkpt>
      <trkpt lat="44.63813" lon="4.44815">
        <ele>472.62</ele>
        <time>2021-05-30T09:33:24Z</time>
      </trkpt>
      <trkpt lat="44.63819" lon="4.4482">
        <ele>472.6</ele>
        <time>2021-05-30T09:33:30Z</time>
      </trkpt>
      <trkpt lat="44.6383" lon="4.44836">
        <ele>472.51</ele>
        <time>2021-05-30T09:33:43Z</time>
      </trkpt>
      <trkpt lat="44.63839" lon="4.44851">
        <ele>472.54</ele>
        <time>2021-05-30T09:33:56Z</time>
      </trkpt>
      <trkpt lat="44.63852" lon="4.44864">
        <ele>472.52</ele>
        <time>2021-05-30T09:34:11Z</time>
      </trkpt>
      <trkpt lat="44.63866" lon="4.44873">
        <ele>472.54</ele>
        <time>2021-05-30T09:34:25Z</time>
      </trkpt>
      <trkpt lat="44.6387" lon="4.44873">
        <ele>472.51</ele>
        <time>2021-05-30T09:34:29Z</time>
      </trkpt>
      <trkpt lat="44.63876" lon="4.44873">
        <ele>472.48</ele>
        <time>2021-05-30T09:34:36Z</time>
      </trkpt>
      <trkpt lat="44.63877" lon="4.44873">
        <ele>472.5</ele>
        <time>2021-05-30T09:34:37Z</time>
      </trkpt>
      <trkpt lat="44.63878" lon="4.44874">
        <ele>472.48</ele>
        <time>2021-05-30T09:34:38Z</time>
      </trkpt>
      <trkpt lat="44.63891" lon="4.44885">
        <ele>472.49</ele>
        <time>2021-05-30T09:34:52Z</time>
      </trkpt>
      <trkpt lat="44.63896" lon="4.44894">
        <ele>472.53</ele>
        <time>2021-05-30T09:35:04Z</time>
      </trkpt>
      <trkpt lat="44.63904" lon="4.44904">
        <ele>472.54</ele>
        <time>2021-05-30T09:35:17Z</time>
      </trkpt>
      <trkpt lat="44.63905" lon="4.44904">
        <ele>472.57</ele>
        <time>2021-05-30T09:35:18Z</time>
      </trkpt>
      <trkpt lat="44.63918" lon="4.44912">
        <ele>472.57</ele>
        <time>2021-05-30T09:35:33Z</time>
      </trkpt>
      <trkpt lat="44.63923" lon="4.44914">
        <ele>468.45</ele>
        <time>2021-05-30T09:35:45Z</time>
      </trkpt>
      <trkpt lat="44.63924" lon="4.44915">
        <ele>468.4</ele>
        <time>2021-05-30T09:35:46Z</time>
      </trkpt>
      <trkpt lat="44.63924" lon="4.44915">
        <ele>471.9</ele>
        <time>2021-05-30T09:35:47Z</time>
      </trkpt>
      <trkpt lat="44.63926" lon="4.44917">
        <ele>472.65</ele>
        <time>2021-05-30T09:35:49Z</time>
      </trkpt>
      <trkpt lat="44.63936" lon="4.44928">
        <ele>472.68</ele>
        <time>2021-05-30T09:36:01Z</time>
      </trkpt>
      <trkpt lat="44.63942" lon="4.44948">
        <ele>472.76</ele>
        <time>2021-05-30T09:36:15Z</time>
      </trkpt>
      <trkpt lat="44.63945" lon="4.44968">
        <ele>472.77</ele>
        <time>2021-05-30T09:36:29Z</time>
      </trkpt>
      <trkpt lat="44.63949" lon="4.44987">
        <ele>472.73</ele>
        <time>2021-05-30T09:36:42Z</time>
      </trkpt>
      <trkpt lat="44.6395" lon="4.44992">
        <ele>472.7</ele>
        <time>2021-05-30T09:36:46Z</time>
      </trkpt>
      <trkpt lat="44.6395" lon="4.44994">
        <ele>472.69</ele>
        <time>2021-05-30T09:36:47Z</time>
      </trkpt>
      <trkpt lat="44.63951" lon="4.44998">
        <ele>470.33</ele>
        <time>2021-05-30T09:36:50Z</time>
      </trkpt>
      <trkpt lat="44.63953" lon="4.45004">
        <ele>470.31</ele>
        <time>2021-05-30T09:36:55Z</time>
      </trkpt>
      <trkpt lat="44.63957" lon="4.45013">
        <ele>469.57</ele>
        <time>2021-05-30T09:37:01Z</time>
      </trkpt>
      <trkpt lat="44.63957" lon="4.45015">
        <ele>469.55</ele>
        <time>2021-05-30T09:37:02Z</time>
      </trkpt>
      <trkpt lat="44.63958" lon="4.45016">
        <ele>468.32</ele>
        <time>2021-05-30T09:37:03Z</time>
      </trkpt>
      <trkpt lat="44.63958" lon="4.45018">
        <ele>468.23</ele>
        <time>2021-05-30T09:37:04Z</time>
      </trkpt>
      <trkpt lat="44.63958" lon="4.4502">
        <ele>468.23</ele>
        <time>2021-05-30T09:37:05Z</time>
      </trkpt>
      <trkpt lat="44.6396" lon="4.45025">
        <ele>468.33</ele>
        <time>2021-05-30T09:37:09Z</time>
      </trkpt>
      <trkpt lat="44.6396" lon="4.45027">
        <ele>468.26</ele>
        <time>2021-05-30T09:37:10Z</time>
      </trkpt>
      <trkpt lat="44.6396" lon="4.45029">
        <ele>468.26</ele>
        <time>2021-05-30T09:37:11Z</time>
      </trkpt>
      <trkpt lat="44.6396" lon="4.45031">
        <ele>468.27</ele>
        <time>2021-05-30T09:37:12Z</time>
      </trkpt>
      <trkpt lat="44.6396" lon="4.45032">
        <ele>467.52</ele>
        <time>2021-05-30T09:37:13Z</time>
      </trkpt>
      <trkpt lat="44.63961" lon="4.45035">
        <ele>467.58</ele>
        <time>2021-05-30T09:37:15Z</time>
      </trkpt>
      <trkpt lat="44.63961" lon="4.45038">
        <ele>467.52</ele>
        <time>2021-05-30T09:37:16Z</time>
      </trkpt>
      <trkpt lat="44.63961" lon="4.45039">
        <ele>467.52</ele>
        <time>2021-05-30T09:37:17Z</time>
      </trkpt>
      <trkpt lat="44.63963" lon="4.4505">
        <ele>467.58</ele>
        <time>2021-05-30T09:37:24Z</time>
      </trkpt>
      <trkpt lat="44.63964" lon="4.45052">
        <ele>467.54</ele>
        <time>2021-05-30T09:37:25Z</time>
      </trkpt>
      <trkpt lat="44.63964" lon="4.45054">
        <ele>467.54</ele>
        <time>2021-05-30T09:37:26Z</time>
      </trkpt>
      <trkpt lat="44.63964" lon="4.45056">
        <ele>466.82</ele>
        <time>2021-05-30T09:37:27Z</time>
      </trkpt>
      <trkpt lat="44.63964" lon="4.45057">
        <ele>466.77</ele>
        <time>2021-05-30T09:37:28Z</time>
      </trkpt>
      <trkpt lat="44.63966" lon="4.45066">
        <ele>466.73</ele>
        <time>2021-05-30T09:37:35Z</time>
      </trkpt>
      <trkpt lat="44.63967" lon="4.45068">
        <ele>466.73</ele>
        <time>2021-05-30T09:37:36Z</time>
      </trkpt>
      <trkpt lat="44.63977" lon="4.45083">
        <ele>465.15</ele>
        <time>2021-05-30T09:37:50Z</time>
      </trkpt>
      <trkpt lat="44.6398" lon="4.45091">
        <ele>464.36</ele>
        <time>2021-05-30T09:38:04Z</time>
      </trkpt>
      <trkpt lat="44.63983" lon="4.45095">
        <ele>463.62</ele>
        <time>2021-05-30T09:38:22Z</time>
      </trkpt>
      <trkpt lat="44.63992" lon="4.45107">
        <ele>462.86</ele>
        <time>2021-05-30T09:38:34Z</time>
      </trkpt>
      <trkpt lat="44.64003" lon="4.45119">
        <ele>462.09</ele>
        <time>2021-05-30T09:38:48Z</time>
      </trkpt>
      <trkpt lat="44.64007" lon="4.45127">
        <ele>462.09</ele>
        <time>2021-05-30T09:38:53Z</time>
      </trkpt>
      <trkpt lat="44.6401" lon="4.45146">
        <ele>461.36</ele>
        <time>2021-05-30T09:39:09Z</time>
      </trkpt>
      <trkpt lat="44.64009" lon="4.45145">
        <ele>461.36</ele>
        <time>2021-05-30T09:39:27Z</time>
      </trkpt>
      <trkpt lat="44.6401" lon="4.45151">
        <ele>461.36</ele>
        <time>2021-05-30T09:39:42Z</time>
      </trkpt>
      <trkpt lat="44.64013" lon="4.4515">
        <ele>461.34</ele>
        <time>2021-05-30T09:39:47Z</time>
      </trkpt>
      <trkpt lat="44.64011" lon="4.45149">
        <ele>461.35</ele>
        <time>2021-05-30T09:40:00Z</time>
      </trkpt>
      <trkpt lat="44.64009" lon="4.45147">
        <ele>461.34</ele>
        <time>2021-05-30T09:40:03Z</time>
      </trkpt>
      <trkpt lat="44.64008" lon="4.45146">
        <ele>461.34</ele>
        <time>2021-05-30T09:40:04Z</time>
      </trkpt>
      <trkpt lat="44.64005" lon="4.45144">
        <ele>461.34</ele>
        <time>2021-05-30T09:40:19Z</time>
      </trkpt>
      <trkpt lat="44.64011" lon="4.45149">
        <ele>461.34</ele>
        <time>2021-05-30T09:40:37Z</time>
      </trkpt>
      <trkpt lat="44.64012" lon="4.4515">
        <ele>461.33</ele>
        <time>2021-05-30T09:40:38Z</time>
      </trkpt>
      <trkpt lat="44.64027" lon="4.45163">
        <ele>461.3</ele>
        <time>2021-05-30T09:40:54Z</time>
      </trkpt>
      <trkpt lat="44.6403" lon="4.45172">
        <ele>461.34</ele>
        <time>2021-05-30T09:41:02Z</time>
      </trkpt>
      <trkpt lat="44.64031" lon="4.45191">
        <ele>461.34</ele>
        <time>2021-05-30T09:41:16Z</time>
      </trkpt>
      <trkpt lat="44.64028" lon="4.45195">
        <ele>461.32</ele>
        <time>2021-05-30T09:41:30Z</time>
      </trkpt>
      <trkpt lat="44.64023" lon="4.45202">
        <ele>461.3</ele>
        <time>2021-05-30T09:41:46Z</time>
      </trkpt>
      <trkpt lat="44.64023" lon="4.45203">
        <ele>459.71</ele>
        <time>2021-05-30T09:41:59Z</time>
      </trkpt>
      <trkpt lat="44.64023" lon="4.45203">
        <ele>462.04</ele>
        <time>2021-05-30T09:42:03Z</time>
      </trkpt>
      <trkpt lat="44.6402" lon="4.45204">
        <ele>462.04</ele>
        <time>2021-05-30T09:42:19Z</time>
      </trkpt>
      <trkpt lat="44.6401" lon="4.45211">
        <ele>462.02</ele>
        <time>2021-05-30T09:42:34Z</time>
      </trkpt>
      <trkpt lat="44.64007" lon="4.45213">
        <ele>462</ele>
        <time>2021-05-30T09:42:38Z</time>
      </trkpt>
      <trkpt lat="44.64004" lon="4.45215">
        <ele>461.96</ele>
        <time>2021-05-30T09:42:42Z</time>
      </trkpt>
      <trkpt lat="44.64003" lon="4.45216">
        <ele>459.61</ele>
        <time>2021-05-30T09:42:43Z</time>
      </trkpt>
      <trkpt lat="44.64002" lon="4.45217">
        <ele>459.62</ele>
        <time>2021-05-30T09:42:44Z</time>
      </trkpt>
      <trkpt lat="44.63993" lon="4.45228">
        <ele>457.93</ele>
        <time>2021-05-30T09:42:56Z</time>
      </trkpt>
      <trkpt lat="44.63993" lon="4.45234">
        <ele>457.1</ele>
        <time>2021-05-30T09:43:13Z</time>
      </trkpt>
      <trkpt lat="44.63991" lon="4.45235">
        <ele>457.04</ele>
        <time>2021-05-30T09:43:41Z</time>
      </trkpt>
      <trkpt lat="44.63991" lon="4.45237">
        <ele>457</ele>
        <time>2021-05-30T09:44:12Z</time>
      </trkpt>
      <trkpt lat="44.63988" lon="4.45246">
        <ele>456.14</ele>
        <time>2021-05-30T09:44:20Z</time>
      </trkpt>
      <trkpt lat="44.63988" lon="4.45248">
        <ele>456.13</ele>
        <time>2021-05-30T09:44:21Z</time>
      </trkpt>
      <trkpt lat="44.63987" lon="4.45249">
        <ele>456.12</ele>
        <time>2021-05-30T09:44:22Z</time>
      </trkpt>
      <trkpt lat="44.63986" lon="4.45251">
        <ele>456.11</ele>
        <time>2021-05-30T09:44:24Z</time>
      </trkpt>
      <trkpt lat="44.63987" lon="4.45254">
        <ele>454.99</ele>
        <time>2021-05-30T09:44:27Z</time>
      </trkpt>
      <trkpt lat="44.63987" lon="4.45256">
        <ele>454.97</ele>
        <time>2021-05-30T09:44:28Z</time>
      </trkpt>
      <trkpt lat="44.63986" lon="4.45257">
        <ele>454.13</ele>
        <time>2021-05-30T09:44:29Z</time>
      </trkpt>
      <trkpt lat="44.63985" lon="4.45259">
        <ele>454.16</ele>
        <time>2021-05-30T09:44:30Z</time>
      </trkpt>
      <trkpt lat="44.63985" lon="4.4526">
        <ele>454.12</ele>
        <time>2021-05-30T09:44:31Z</time>
      </trkpt>
      <trkpt lat="44.63982" lon="4.45269">
        <ele>452.53</ele>
        <time>2021-05-30T09:44:37Z</time>
      </trkpt>
      <trkpt lat="44.63981" lon="4.45273">
        <ele>452.49</ele>
        <time>2021-05-30T09:44:40Z</time>
      </trkpt>
      <trkpt lat="44.63981" lon="4.45276">
        <ele>451.75</ele>
        <time>2021-05-30T09:44:42Z</time>
      </trkpt>
      <trkpt lat="44.6398" lon="4.45277">
        <ele>451.74</ele>
        <time>2021-05-30T09:44:43Z</time>
      </trkpt>
      <trkpt lat="44.63979" lon="4.4528">
        <ele>451.76</ele>
        <time>2021-05-30T09:44:46Z</time>
      </trkpt>
      <trkpt lat="44.63978" lon="4.45283">
        <ele>451.77</ele>
        <time>2021-05-30T09:44:48Z</time>
      </trkpt>
      <trkpt lat="44.63976" lon="4.45287">
        <ele>450.84</ele>
        <time>2021-05-30T09:44:51Z</time>
      </trkpt>
      <trkpt lat="44.63968" lon="4.45293">
        <ele>450.1</ele>
        <time>2021-05-30T09:44:59Z</time>
      </trkpt>
      <trkpt lat="44.63959" lon="4.453">
        <ele>450.16</ele>
        <time>2021-05-30T09:45:08Z</time>
      </trkpt>
      <trkpt lat="44.63959" lon="4.45301">
        <ele>450.17</ele>
        <time>2021-05-30T09:45:09Z</time>
      </trkpt>
      <trkpt lat="44.63958" lon="4.45302">
        <ele>450.16</ele>
        <time>2021-05-30T09:45:10Z</time>
      </trkpt>
      <trkpt lat="44.63954" lon="4.45306">
        <ele>449.24</ele>
        <time>2021-05-30T09:45:15Z</time>
      </trkpt>
      <trkpt lat="44.63953" lon="4.45307">
        <ele>449.25</ele>
        <time>2021-05-30T09:45:16Z</time>
      </trkpt>
      <trkpt lat="44.63943" lon="4.45317">
        <ele>448.45</ele>
        <time>2021-05-30T09:45:28Z</time>
      </trkpt>
      <trkpt lat="44.63926" lon="4.45335">
        <ele>447.85</ele>
        <time>2021-05-30T09:45:46Z</time>
      </trkpt>
      <trkpt lat="44.63915" lon="4.45346">
        <ele>447.18</ele>
        <time>2021-05-30T09:45:59Z</time>
      </trkpt>
      <trkpt lat="44.63897" lon="4.45366">
        <ele>445.82</ele>
        <time>2021-05-30T09:46:20Z</time>
      </trkpt>
      <trkpt lat="44.63889" lon="4.45379">
        <ele>445.06</ele>
        <time>2021-05-30T09:46:32Z</time>
      </trkpt>
      <trkpt lat="44.63885" lon="4.45382">
        <ele>444.24</ele>
        <time>2021-05-30T09:46:36Z</time>
      </trkpt>
      <trkpt lat="44.63883" lon="4.45383">
        <ele>444.24</ele>
        <time>2021-05-30T09:46:38Z</time>
      </trkpt>
      <trkpt lat="44.63871" lon="4.45398">
        <ele>442.41</ele>
        <time>2021-05-30T09:46:53Z</time>
      </trkpt>
      <trkpt lat="44.63867" lon="4.45399">
        <ele>441.58</ele>
        <time>2021-05-30T09:46:57Z</time>
      </trkpt>
      <trkpt lat="44.63866" lon="4.45398">
        <ele>441.57</ele>
        <time>2021-05-30T09:46:58Z</time>
      </trkpt>
      <trkpt lat="44.63865" lon="4.45399">
        <ele>441.59</ele>
        <time>2021-05-30T09:46:59Z</time>
      </trkpt>
      <trkpt lat="44.63864" lon="4.45399">
        <ele>441.66</ele>
        <time>2021-05-30T09:47:00Z</time>
      </trkpt>
      <trkpt lat="44.63851" lon="4.45407">
        <ele>441.77</ele>
        <time>2021-05-30T09:47:15Z</time>
      </trkpt>
      <trkpt lat="44.63838" lon="4.4541">
        <ele>441.8</ele>
        <time>2021-05-30T09:47:29Z</time>
      </trkpt>
      <trkpt lat="44.63832" lon="4.45411">
        <ele>441.82</ele>
        <time>2021-05-30T09:47:35Z</time>
      </trkpt>
      <trkpt lat="44.63821" lon="4.4541">
        <ele>441.04</ele>
        <time>2021-05-30T09:47:47Z</time>
      </trkpt>
      <trkpt lat="44.63812" lon="4.4541">
        <ele>441.03</ele>
        <time>2021-05-30T09:47:55Z</time>
      </trkpt>
      <trkpt lat="44.63807" lon="4.4541">
        <ele>441.03</ele>
        <time>2021-05-30T09:48:00Z</time>
      </trkpt>
      <trkpt lat="44.63806" lon="4.4541">
        <ele>441.02</ele>
        <time>2021-05-30T09:48:01Z</time>
      </trkpt>
      <trkpt lat="44.63792" lon="4.4541">
        <ele>440.99</ele>
        <time>2021-05-30T09:48:15Z</time>
      </trkpt>
      <trkpt lat="44.63775" lon="4.45405">
        <ele>440.15</ele>
        <time>2021-05-30T09:48:31Z</time>
      </trkpt>
      <trkpt lat="44.63758" lon="4.454">
        <ele>439.18</ele>
        <time>2021-05-30T09:48:49Z</time>
      </trkpt>
      <trkpt lat="44.6374" lon="4.45388">
        <ele>438.29</ele>
        <time>2021-05-30T09:49:07Z</time>
      </trkpt>
      <trkpt lat="44.63733" lon="4.45383">
        <ele>437.36</ele>
        <time>2021-05-30T09:49:26Z</time>
      </trkpt>
      <trkpt lat="44.63721" lon="4.45373">
        <ele>437.28</ele>
        <time>2021-05-30T09:49:45Z</time>
      </trkpt>
      <trkpt lat="44.63707" lon="4.45363">
        <ele>436.34</ele>
        <time>2021-05-30T09:49:57Z</time>
      </trkpt>
      <trkpt lat="44.63691" lon="4.45351">
        <ele>436.34</ele>
        <time>2021-05-30T09:50:14Z</time>
      </trkpt>
      <trkpt lat="44.63676" lon="4.45344">
        <ele>435.43</ele>
        <time>2021-05-30T09:50:28Z</time>
      </trkpt>
      <trkpt lat="44.6367" lon="4.45365">
        <ele>435.51</ele>
        <time>2021-05-30T09:50:47Z</time>
      </trkpt>
      <trkpt lat="44.63668" lon="4.45372">
        <ele>437.82</ele>
        <time>2021-05-30T09:50:52Z</time>
      </trkpt>
      <trkpt lat="44.63667" lon="4.45378">
        <ele>437.82</ele>
        <time>2021-05-30T09:50:56Z</time>
      </trkpt>
      <trkpt lat="44.63666" lon="4.4538">
        <ele>438.74</ele>
        <time>2021-05-30T09:50:57Z</time>
      </trkpt>
      <trkpt lat="44.63659" lon="4.45401">
        <ele>438.62</ele>
        <time>2021-05-30T09:51:13Z</time>
      </trkpt>
      <trkpt lat="44.63653" lon="4.45408">
        <ele>438.57</ele>
        <time>2021-05-30T09:51:20Z</time>
      </trkpt>
      <trkpt lat="44.63649" lon="4.45415">
        <ele>438.51</ele>
        <time>2021-05-30T09:51:26Z</time>
      </trkpt>
      <trkpt lat="44.63648" lon="4.45417">
        <ele>438.5</ele>
        <time>2021-05-30T09:51:27Z</time>
      </trkpt>
      <trkpt lat="44.63637" lon="4.45426">
        <ele>438.38</ele>
        <time>2021-05-30T09:51:37Z</time>
      </trkpt>
      <trkpt lat="44.63631" lon="4.45433">
        <ele>436.08</ele>
        <time>2021-05-30T09:51:43Z</time>
      </trkpt>
      <trkpt lat="44.6363" lon="4.45435">
        <ele>436.07</ele>
        <time>2021-05-30T09:51:44Z</time>
      </trkpt>
      <trkpt lat="44.63627" lon="4.45441">
        <ele>436.04</ele>
        <time>2021-05-30T09:51:48Z</time>
      </trkpt>
      <trkpt lat="44.63627" lon="4.45443">
        <ele>436.03</ele>
        <time>2021-05-30T09:51:49Z</time>
      </trkpt>
      <trkpt lat="44.63626" lon="4.45445">
        <ele>436.03</ele>
        <time>2021-05-30T09:51:50Z</time>
      </trkpt>
      <trkpt lat="44.63625" lon="4.45446">
        <ele>436.03</ele>
        <time>2021-05-30T09:51:51Z</time>
      </trkpt>
      <trkpt lat="44.63625" lon="4.45448">
        <ele>436.01</ele>
        <time>2021-05-30T09:51:52Z</time>
      </trkpt>
      <trkpt lat="44.63624" lon="4.45449">
        <ele>436.01</ele>
        <time>2021-05-30T09:51:53Z</time>
      </trkpt>
      <trkpt lat="44.63613" lon="4.45458">
        <ele>435.22</ele>
        <time>2021-05-30T09:52:06Z</time>
      </trkpt>
      <trkpt lat="44.6361" lon="4.45459">
        <ele>435.22</ele>
        <time>2021-05-30T09:52:08Z</time>
      </trkpt>
      <trkpt lat="44.63609" lon="4.45459">
        <ele>434.37</ele>
        <time>2021-05-30T09:52:09Z</time>
      </trkpt>
      <trkpt lat="44.63596" lon="4.45463">
        <ele>433.62</ele>
        <time>2021-05-30T09:52:22Z</time>
      </trkpt>
      <trkpt lat="44.63582" lon="4.45459">
        <ele>431.99</ele>
        <time>2021-05-30T09:52:37Z</time>
      </trkpt>
      <trkpt lat="44.63568" lon="4.45458">
        <ele>431.18</ele>
        <time>2021-05-30T09:52:52Z</time>
      </trkpt>
      <trkpt lat="44.63552" lon="4.45452">
        <ele>429.52</ele>
        <time>2021-05-30T09:53:10Z</time>
      </trkpt>
      <trkpt lat="44.63535" lon="4.45437">
        <ele>427.59</ele>
        <time>2021-05-30T09:53:29Z</time>
      </trkpt>
      <trkpt lat="44.63531" lon="4.45436">
        <ele>427.57</ele>
        <time>2021-05-30T09:53:32Z</time>
      </trkpt>
      <trkpt lat="44.63527" lon="4.45435">
        <ele>427.57</ele>
        <time>2021-05-30T09:53:35Z</time>
      </trkpt>
      <trkpt lat="44.63526" lon="4.45436">
        <ele>427.56</ele>
        <time>2021-05-30T09:53:36Z</time>
      </trkpt>
      <trkpt lat="44.63517" lon="4.45429">
        <ele>425.79</ele>
        <time>2021-05-30T09:53:49Z</time>
      </trkpt>
      <trkpt lat="44.63514" lon="4.45426">
        <ele>424.99</ele>
        <time>2021-05-30T09:53:52Z</time>
      </trkpt>
      <trkpt lat="44.63507" lon="4.45407">
        <ele>423.2</ele>
        <time>2021-05-30T09:54:09Z</time>
      </trkpt>
      <trkpt lat="44.63508" lon="4.45406">
        <ele>423.2</ele>
        <time>2021-05-30T09:54:10Z</time>
      </trkpt>
      <trkpt lat="44.63507" lon="4.454">
        <ele>423.21</ele>
        <time>2021-05-30T09:54:13Z</time>
      </trkpt>
      <trkpt lat="44.63506" lon="4.45398">
        <ele>423.21</ele>
        <time>2021-05-30T09:54:14Z</time>
      </trkpt>
      <trkpt lat="44.63506" lon="4.45396">
        <ele>423.19</ele>
        <time>2021-05-30T09:54:15Z</time>
      </trkpt>
      <trkpt lat="44.63505" lon="4.45395">
        <ele>423.2</ele>
        <time>2021-05-30T09:54:16Z</time>
      </trkpt>
      <trkpt lat="44.63503" lon="4.45392">
        <ele>423.17</ele>
        <time>2021-05-30T09:54:18Z</time>
      </trkpt>
      <trkpt lat="44.63493" lon="4.45379">
        <ele>421.11</ele>
        <time>2021-05-30T09:54:30Z</time>
      </trkpt>
      <trkpt lat="44.63482" lon="4.45371">
        <ele>420.3</ele>
        <time>2021-05-30T09:54:41Z</time>
      </trkpt>
      <trkpt lat="44.63481" lon="4.45371">
        <ele>420.29</ele>
        <time>2021-05-30T09:54:42Z</time>
      </trkpt>
      <trkpt lat="44.6348" lon="4.45371">
        <ele>419.47</ele>
        <time>2021-05-30T09:54:43Z</time>
      </trkpt>
      <trkpt lat="44.63479" lon="4.4537">
        <ele>419.45</ele>
        <time>2021-05-30T09:54:44Z</time>
      </trkpt>
      <trkpt lat="44.63477" lon="4.4537">
        <ele>419.47</ele>
        <time>2021-05-30T09:54:45Z</time>
      </trkpt>
      <trkpt lat="44.63476" lon="4.4537">
        <ele>419.49</ele>
        <time>2021-05-30T09:54:46Z</time>
      </trkpt>
      <trkpt lat="44.63475" lon="4.45371">
        <ele>419.48</ele>
        <time>2021-05-30T09:54:47Z</time>
      </trkpt>
      <trkpt lat="44.63474" lon="4.45371">
        <ele>419.5</ele>
        <time>2021-05-30T09:54:48Z</time>
      </trkpt>
      <trkpt lat="44.63463" lon="4.45369">
        <ele>418.73</ele>
        <time>2021-05-30T09:54:59Z</time>
      </trkpt>
      <trkpt lat="44.6346" lon="4.45369">
        <ele>418.74</ele>
        <time>2021-05-30T09:55:02Z</time>
      </trkpt>
      <trkpt lat="44.63459" lon="4.45369">
        <ele>418.74</ele>
        <time>2021-05-30T09:55:03Z</time>
      </trkpt>
      <trkpt lat="44.63458" lon="4.45369">
        <ele>418.75</ele>
        <time>2021-05-30T09:55:04Z</time>
      </trkpt>
      <trkpt lat="44.63457" lon="4.45369">
        <ele>418.75</ele>
        <time>2021-05-30T09:55:05Z</time>
      </trkpt>
      <trkpt lat="44.63449" lon="4.45367">
        <ele>417.85</ele>
        <time>2021-05-30T09:55:14Z</time>
      </trkpt>
      <trkpt lat="44.63448" lon="4.45366">
        <ele>417.85</ele>
        <time>2021-05-30T09:55:15Z</time>
      </trkpt>
      <trkpt lat="44.63446" lon="4.45364">
        <ele>417.85</ele>
        <time>2021-05-30T09:55:17Z</time>
      </trkpt>
      <trkpt lat="44.63442" lon="4.45362">
        <ele>416.99</ele>
        <time>2021-05-30T09:55:20Z</time>
      </trkpt>
      <trkpt lat="44.63441" lon="4.45361">
        <ele>416.98</ele>
        <time>2021-05-30T09:55:21Z</time>
      </trkpt>
      <trkpt lat="44.63432" lon="4.45355">
        <ele>417</ele>
        <time>2021-05-30T09:55:29Z</time>
      </trkpt>
      <trkpt lat="44.63431" lon="4.45354">
        <ele>417</ele>
        <time>2021-05-30T09:55:30Z</time>
      </trkpt>
      <trkpt lat="44.63418" lon="4.45345">
        <ele>414.41</ele>
        <time>2021-05-30T09:55:43Z</time>
      </trkpt>
      <trkpt lat="44.63412" lon="4.45342">
        <ele>413.45</ele>
        <time>2021-05-30T09:55:48Z</time>
      </trkpt>
      <trkpt lat="44.63402" lon="4.45336">
        <ele>413.46</ele>
        <time>2021-05-30T09:55:56Z</time>
      </trkpt>
      <trkpt lat="44.6339" lon="4.45333">
        <ele>412.67</ele>
        <time>2021-05-30T09:56:08Z</time>
      </trkpt>
      <trkpt lat="44.63389" lon="4.45333">
        <ele>412.68</ele>
        <time>2021-05-30T09:56:09Z</time>
      </trkpt>
      <trkpt lat="44.6337" lon="4.45331">
        <ele>412.67</ele>
        <time>2021-05-30T09:56:25Z</time>
      </trkpt>
      <trkpt lat="44.63368" lon="4.45331">
        <ele>412.67</ele>
        <time>2021-05-30T09:56:26Z</time>
      </trkpt>
      <trkpt lat="44.63367" lon="4.4533">
        <ele>412.67</ele>
        <time>2021-05-30T09:56:27Z</time>
      </trkpt>
      <trkpt lat="44.6335" lon="4.45331">
        <ele>412.62</ele>
        <time>2021-05-30T09:56:41Z</time>
      </trkpt>
      <trkpt lat="44.63334" lon="4.45327">
        <ele>410.98</ele>
        <time>2021-05-30T09:56:55Z</time>
      </trkpt>
      <trkpt lat="44.63333" lon="4.45326">
        <ele>410.97</ele>
        <time>2021-05-30T09:56:56Z</time>
      </trkpt>
      <trkpt lat="44.63331" lon="4.45326">
        <ele>410.97</ele>
        <time>2021-05-30T09:56:57Z</time>
      </trkpt>
      <trkpt lat="44.6333" lon="4.45326">
        <ele>410.96</ele>
        <time>2021-05-30T09:56:58Z</time>
      </trkpt>
      <trkpt lat="44.63329" lon="4.45325">
        <ele>410.98</ele>
        <time>2021-05-30T09:56:59Z</time>
      </trkpt>
      <trkpt lat="44.63328" lon="4.45324">
        <ele>410.98</ele>
        <time>2021-05-30T09:57:00Z</time>
      </trkpt>
      <trkpt lat="44.63327" lon="4.45324">
        <ele>410.97</ele>
        <time>2021-05-30T09:57:01Z</time>
      </trkpt>
      <trkpt lat="44.63325" lon="4.45324">
        <ele>410.98</ele>
        <time>2021-05-30T09:57:02Z</time>
      </trkpt>
      <trkpt lat="44.6331" lon="4.45321">
        <ele>409.93</ele>
        <time>2021-05-30T09:57:15Z</time>
      </trkpt>
      <trkpt lat="44.63295" lon="4.4532">
        <ele>409.87</ele>
        <time>2021-05-30T09:57:27Z</time>
      </trkpt>
      <trkpt lat="44.63294" lon="4.45319">
        <ele>409.87</ele>
        <time>2021-05-30T09:57:28Z</time>
      </trkpt>
      <trkpt lat="44.63291" lon="4.45318">
        <ele>409.86</ele>
        <time>2021-05-30T09:57:31Z</time>
      </trkpt>
      <trkpt lat="44.63277" lon="4.45314">
        <ele>409.75</ele>
        <time>2021-05-30T09:57:44Z</time>
      </trkpt>
      <trkpt lat="44.63271" lon="4.4531">
        <ele>408.94</ele>
        <time>2021-05-30T09:57:50Z</time>
      </trkpt>
      <trkpt lat="44.63262" lon="4.45303">
        <ele>408.01</ele>
        <time>2021-05-30T09:57:58Z</time>
      </trkpt>
      <trkpt lat="44.63262" lon="4.45301">
        <ele>408</ele>
        <time>2021-05-30T09:57:59Z</time>
      </trkpt>
      <trkpt lat="44.63261" lon="4.453">
        <ele>407.97</ele>
        <time>2021-05-30T09:58:00Z</time>
      </trkpt>
      <trkpt lat="44.63259" lon="4.45295">
        <ele>407.11</ele>
        <time>2021-05-30T09:58:03Z</time>
      </trkpt>
      <trkpt lat="44.63249" lon="4.45285">
        <ele>406.23</ele>
        <time>2021-05-30T09:58:15Z</time>
      </trkpt>
      <trkpt lat="44.63246" lon="4.45284">
        <ele>406.22</ele>
        <time>2021-05-30T09:58:17Z</time>
      </trkpt>
      <trkpt lat="44.63245" lon="4.45284">
        <ele>406.22</ele>
        <time>2021-05-30T09:58:18Z</time>
      </trkpt>
      <trkpt lat="44.63232" lon="4.45276">
        <ele>406.14</ele>
        <time>2021-05-30T09:58:31Z</time>
      </trkpt>
      <trkpt lat="44.63229" lon="4.45275">
        <ele>406.13</ele>
        <time>2021-05-30T09:58:33Z</time>
      </trkpt>
      <trkpt lat="44.63228" lon="4.45275">
        <ele>406.12</ele>
        <time>2021-05-30T09:58:34Z</time>
      </trkpt>
      <trkpt lat="44.63212" lon="4.45271">
        <ele>405.31</ele>
        <time>2021-05-30T09:58:49Z</time>
      </trkpt>
      <trkpt lat="44.6321" lon="4.45271">
        <ele>403.61</ele>
        <time>2021-05-30T09:58:53Z</time>
      </trkpt>
      <trkpt lat="44.63197" lon="4.45269">
        <ele>403.57</ele>
        <time>2021-05-30T09:59:13Z</time>
      </trkpt>
      <trkpt lat="44.63193" lon="4.45271">
        <ele>403.57</ele>
        <time>2021-05-30T09:59:17Z</time>
      </trkpt>
      <trkpt lat="44.63183" lon="4.45273">
        <ele>403.54</ele>
        <time>2021-05-30T09:59:26Z</time>
      </trkpt>
      <trkpt lat="44.63182" lon="4.45272">
        <ele>403.54</ele>
        <time>2021-05-30T09:59:27Z</time>
      </trkpt>
      <trkpt lat="44.6318" lon="4.45272">
        <ele>403.53</ele>
        <time>2021-05-30T09:59:28Z</time>
      </trkpt>
      <trkpt lat="44.63179" lon="4.45271">
        <ele>403.52</ele>
        <time>2021-05-30T09:59:29Z</time>
      </trkpt>
      <trkpt lat="44.63178" lon="4.45271">
        <ele>403.51</ele>
        <time>2021-05-30T09:59:30Z</time>
      </trkpt>
      <trkpt lat="44.63177" lon="4.45271">
        <ele>403.51</ele>
        <time>2021-05-30T09:59:31Z</time>
      </trkpt>
      <trkpt lat="44.63155" lon="4.45274">
        <ele>403.43</ele>
        <time>2021-05-30T09:59:48Z</time>
      </trkpt>
      <trkpt lat="44.63135" lon="4.4528">
        <ele>402.56</ele>
        <time>2021-05-30T10:00:05Z</time>
      </trkpt>
      <trkpt lat="44.63117" lon="4.4529">
        <ele>400.07</ele>
        <time>2021-05-30T10:00:22Z</time>
      </trkpt>
      <trkpt lat="44.63103" lon="4.45291">
        <ele>398.41</ele>
        <time>2021-05-30T10:00:34Z</time>
      </trkpt>
      <trkpt lat="44.63101" lon="4.45291">
        <ele>398.41</ele>
        <time>2021-05-30T10:00:35Z</time>
      </trkpt>
      <trkpt lat="44.63099" lon="4.4529">
        <ele>397.53</ele>
        <time>2021-05-30T10:00:37Z</time>
      </trkpt>
      <trkpt lat="44.6309" lon="4.45296">
        <ele>395.74</ele>
        <time>2021-05-30T10:00:51Z</time>
      </trkpt>
      <trkpt lat="44.63088" lon="4.45298">
        <ele>395.68</ele>
        <time>2021-05-30T10:01:18Z</time>
      </trkpt>
      <trkpt lat="44.63081" lon="4.45306">
        <ele>394.76</ele>
        <time>2021-05-30T10:01:43Z</time>
      </trkpt>
      <trkpt lat="44.63079" lon="4.45308">
        <ele>394.75</ele>
        <time>2021-05-30T10:01:45Z</time>
      </trkpt>
      <trkpt lat="44.63071" lon="4.45314">
        <ele>393.01</ele>
        <time>2021-05-30T10:01:55Z</time>
      </trkpt>
      <trkpt lat="44.63063" lon="4.45317">
        <ele>391.45</ele>
        <time>2021-05-30T10:02:02Z</time>
      </trkpt>
      <trkpt lat="44.63051" lon="4.45328">
        <ele>389.44</ele>
        <time>2021-05-30T10:02:15Z</time>
      </trkpt>
      <trkpt lat="44.63038" lon="4.45337">
        <ele>387.7</ele>
        <time>2021-05-30T10:02:26Z</time>
      </trkpt>
      <trkpt lat="44.63026" lon="4.45345">
        <ele>386.9</ele>
        <time>2021-05-30T10:02:35Z</time>
      </trkpt>
      <trkpt lat="44.63013" lon="4.4535">
        <ele>385.28</ele>
        <time>2021-05-30T10:02:48Z</time>
      </trkpt>
      <trkpt lat="44.63011" lon="4.45354">
        <ele>385.26</ele>
        <time>2021-05-30T10:02:51Z</time>
      </trkpt>
      <trkpt lat="44.63009" lon="4.45356">
        <ele>385.24</ele>
        <time>2021-05-30T10:02:52Z</time>
      </trkpt>
      <trkpt lat="44.63008" lon="4.45357">
        <ele>385.25</ele>
        <time>2021-05-30T10:02:53Z</time>
      </trkpt>
      <trkpt lat="44.63006" lon="4.45358">
        <ele>384.49</ele>
        <time>2021-05-30T10:02:54Z</time>
      </trkpt>
      <trkpt lat="44.63005" lon="4.45359">
        <ele>384.48</ele>
        <time>2021-05-30T10:02:55Z</time>
      </trkpt>
      <trkpt lat="44.63004" lon="4.45361">
        <ele>384.48</ele>
        <time>2021-05-30T10:02:56Z</time>
      </trkpt>
      <trkpt lat="44.62992" lon="4.45368">
        <ele>383.53</ele>
        <time>2021-05-30T10:03:07Z</time>
      </trkpt>
      <trkpt lat="44.62978" lon="4.45375">
        <ele>381.88</ele>
        <time>2021-05-30T10:03:17Z</time>
      </trkpt>
      <trkpt lat="44.62966" lon="4.45382">
        <ele>380.91</ele>
        <time>2021-05-30T10:03:27Z</time>
      </trkpt>
      <trkpt lat="44.62948" lon="4.45389">
        <ele>379.23</ele>
        <time>2021-05-30T10:03:42Z</time>
      </trkpt>
      <trkpt lat="44.62947" lon="4.4539">
        <ele>378.36</ele>
        <time>2021-05-30T10:03:44Z</time>
      </trkpt>
      <trkpt lat="44.62932" lon="4.45396">
        <ele>376.64</ele>
        <time>2021-05-30T10:03:57Z</time>
      </trkpt>
      <trkpt lat="44.62925" lon="4.45398">
        <ele>375.59</ele>
        <time>2021-05-30T10:04:03Z</time>
      </trkpt>
      <trkpt lat="44.62909" lon="4.45407">
        <ele>374.66</ele>
        <time>2021-05-30T10:04:16Z</time>
      </trkpt>
      <trkpt lat="44.62897" lon="4.45416">
        <ele>373.1</ele>
        <time>2021-05-30T10:04:28Z</time>
      </trkpt>
      <trkpt lat="44.62882" lon="4.45424">
        <ele>371.51</ele>
        <time>2021-05-30T10:04:41Z</time>
      </trkpt>
      <trkpt lat="44.62881" lon="4.45425">
        <ele>371.48</ele>
        <time>2021-05-30T10:04:42Z</time>
      </trkpt>
      <trkpt lat="44.62879" lon="4.45426">
        <ele>371.48</ele>
        <time>2021-05-30T10:04:43Z</time>
      </trkpt>
      <trkpt lat="44.62872" lon="4.45439">
        <ele>368.78</ele>
        <time>2021-05-30T10:04:53Z</time>
      </trkpt>
      <trkpt lat="44.62872" lon="4.4544">
        <ele>368.77</ele>
        <time>2021-05-30T10:04:54Z</time>
      </trkpt>
      <trkpt lat="44.6287" lon="4.4546">
        <ele>366.7</ele>
        <time>2021-05-30T10:05:06Z</time>
      </trkpt>
      <trkpt lat="44.62868" lon="4.45476">
        <ele>365.75</ele>
        <time>2021-05-30T10:05:15Z</time>
      </trkpt>
      <trkpt lat="44.62869" lon="4.45494">
        <ele>363.73</ele>
        <time>2021-05-30T10:05:27Z</time>
      </trkpt>
      <trkpt lat="44.6287" lon="4.45496">
        <ele>363.78</ele>
        <time>2021-05-30T10:05:28Z</time>
      </trkpt>
      <trkpt lat="44.6287" lon="4.45498">
        <ele>362.74</ele>
        <time>2021-05-30T10:05:29Z</time>
      </trkpt>
      <trkpt lat="44.62871" lon="4.45503">
        <ele>362.74</ele>
        <time>2021-05-30T10:05:33Z</time>
      </trkpt>
      <trkpt lat="44.62871" lon="4.45505">
        <ele>361.92</ele>
        <time>2021-05-30T10:05:34Z</time>
      </trkpt>
      <trkpt lat="44.62871" lon="4.45507">
        <ele>361.9</ele>
        <time>2021-05-30T10:05:35Z</time>
      </trkpt>
      <trkpt lat="44.62875" lon="4.45522">
        <ele>360.85</ele>
        <time>2021-05-30T10:05:45Z</time>
      </trkpt>
      <trkpt lat="44.62876" lon="4.45524">
        <ele>360.89</ele>
        <time>2021-05-30T10:05:46Z</time>
      </trkpt>
      <trkpt lat="44.6288" lon="4.45532">
        <ele>360.16</ele>
        <time>2021-05-30T10:05:52Z</time>
      </trkpt>
      <trkpt lat="44.62881" lon="4.45533">
        <ele>360.13</ele>
        <time>2021-05-30T10:05:53Z</time>
      </trkpt>
      <trkpt lat="44.62881" lon="4.45534">
        <ele>360.13</ele>
        <time>2021-05-30T10:05:54Z</time>
      </trkpt>
      <trkpt lat="44.62887" lon="4.45554">
        <ele>358.46</ele>
        <time>2021-05-30T10:06:07Z</time>
      </trkpt>
      <trkpt lat="44.62889" lon="4.45561">
        <ele>358.45</ele>
        <time>2021-05-30T10:06:12Z</time>
      </trkpt>
      <trkpt lat="44.629" lon="4.45575">
        <ele>358.43</ele>
        <time>2021-05-30T10:06:27Z</time>
      </trkpt>
      <trkpt lat="44.62908" lon="4.45589">
        <ele>358.39</ele>
        <time>2021-05-30T10:06:38Z</time>
      </trkpt>
      <trkpt lat="44.62908" lon="4.45591">
        <ele>358.39</ele>
        <time>2021-05-30T10:06:39Z</time>
      </trkpt>
      <trkpt lat="44.6291" lon="4.45594">
        <ele>358.38</ele>
        <time>2021-05-30T10:06:41Z</time>
      </trkpt>
      <trkpt lat="44.62911" lon="4.45597">
        <ele>358.37</ele>
        <time>2021-05-30T10:06:43Z</time>
      </trkpt>
      <trkpt lat="44.62913" lon="4.45603">
        <ele>357.54</ele>
        <time>2021-05-30T10:06:46Z</time>
      </trkpt>
      <trkpt lat="44.62914" lon="4.45605">
        <ele>357.54</ele>
        <time>2021-05-30T10:06:47Z</time>
      </trkpt>
      <trkpt lat="44.62915" lon="4.45607">
        <ele>357.53</ele>
        <time>2021-05-30T10:06:48Z</time>
      </trkpt>
      <trkpt lat="44.62916" lon="4.45608">
        <ele>357.53</ele>
        <time>2021-05-30T10:06:49Z</time>
      </trkpt>
      <trkpt lat="44.62919" lon="4.45619">
        <ele>356.59</ele>
        <time>2021-05-30T10:06:57Z</time>
      </trkpt>
      <trkpt lat="44.62921" lon="4.45626">
        <ele>356.57</ele>
        <time>2021-05-30T10:07:02Z</time>
      </trkpt>
      <trkpt lat="44.62921" lon="4.45628">
        <ele>356.58</ele>
        <time>2021-05-30T10:07:03Z</time>
      </trkpt>
      <trkpt lat="44.62921" lon="4.4563">
        <ele>355.71</ele>
        <time>2021-05-30T10:07:04Z</time>
      </trkpt>
      <trkpt lat="44.62921" lon="4.45631">
        <ele>355.71</ele>
        <time>2021-05-30T10:07:05Z</time>
      </trkpt>
      <trkpt lat="44.62922" lon="4.45633">
        <ele>355.7</ele>
        <time>2021-05-30T10:07:06Z</time>
      </trkpt>
      <trkpt lat="44.62925" lon="4.4566">
        <ele>353.59</ele>
        <time>2021-05-30T10:07:22Z</time>
      </trkpt>
      <trkpt lat="44.62928" lon="4.45685">
        <ele>351.83</ele>
        <time>2021-05-30T10:07:39Z</time>
      </trkpt>
      <trkpt lat="44.62927" lon="4.45702">
        <ele>351.79</ele>
        <time>2021-05-30T10:07:51Z</time>
      </trkpt>
      <trkpt lat="44.6293" lon="4.45711">
        <ele>351.78</ele>
        <time>2021-05-30T10:07:57Z</time>
      </trkpt>
      <trkpt lat="44.62931" lon="4.45713">
        <ele>351.77</ele>
        <time>2021-05-30T10:07:58Z</time>
      </trkpt>
      <trkpt lat="44.62943" lon="4.4573">
        <ele>351.73</ele>
        <time>2021-05-30T10:08:13Z</time>
      </trkpt>
      <trkpt lat="44.62955" lon="4.45741">
        <ele>351.65</ele>
        <time>2021-05-30T10:08:28Z</time>
      </trkpt>
      <trkpt lat="44.62966" lon="4.45746">
        <ele>351.61</ele>
        <time>2021-05-30T10:08:41Z</time>
      </trkpt>
      <trkpt lat="44.62969" lon="4.45746">
        <ele>351.61</ele>
        <time>2021-05-30T10:08:43Z</time>
      </trkpt>
      <trkpt lat="44.62982" lon="4.45753">
        <ele>351.55</ele>
        <time>2021-05-30T10:08:57Z</time>
      </trkpt>
      <trkpt lat="44.62985" lon="4.45761">
        <ele>351.51</ele>
        <time>2021-05-30T10:09:04Z</time>
      </trkpt>
      <trkpt lat="44.62989" lon="4.45772">
        <ele>351.48</ele>
        <time>2021-05-30T10:09:12Z</time>
      </trkpt>
      <trkpt lat="44.62989" lon="4.45773">
        <ele>351.48</ele>
        <time>2021-05-30T10:09:13Z</time>
      </trkpt>
      <trkpt lat="44.6299" lon="4.45784">
        <ele>351.45</ele>
        <time>2021-05-30T10:09:20Z</time>
      </trkpt>
      <trkpt lat="44.6299" lon="4.45785">
        <ele>351.45</ele>
        <time>2021-05-30T10:09:21Z</time>
      </trkpt>
      <trkpt lat="44.6299" lon="4.45787">
        <ele>351.44</ele>
        <time>2021-05-30T10:09:22Z</time>
      </trkpt>
      <trkpt lat="44.62996" lon="4.45808">
        <ele>349.44</ele>
        <time>2021-05-30T10:09:36Z</time>
      </trkpt>
      <trkpt lat="44.63007" lon="4.45825">
        <ele>349.41</ele>
        <time>2021-05-30T10:09:53Z</time>
      </trkpt>
      <trkpt lat="44.63022" lon="4.4584">
        <ele>349.35</ele>
        <time>2021-05-30T10:10:10Z</time>
      </trkpt>
      <trkpt lat="44.63032" lon="4.45853">
        <ele>349.31</ele>
        <time>2021-05-30T10:10:22Z</time>
      </trkpt>
      <trkpt lat="44.63045" lon="4.45871">
        <ele>349.25</ele>
        <time>2021-05-30T10:10:38Z</time>
      </trkpt>
      <trkpt lat="44.63054" lon="4.45882">
        <ele>349.15</ele>
        <time>2021-05-30T10:10:57Z</time>
      </trkpt>
      <trkpt lat="44.6306" lon="4.45887">
        <ele>351.46</ele>
        <time>2021-05-30T10:11:05Z</time>
      </trkpt>
      <trkpt lat="44.63077" lon="4.45904">
        <ele>351.4</ele>
        <time>2021-05-30T10:11:24Z</time>
      </trkpt>
      <trkpt lat="44.63099" lon="4.45916">
        <ele>352.16</ele>
        <time>2021-05-30T10:11:46Z</time>
      </trkpt>
      <trkpt lat="44.63116" lon="4.4592">
        <ele>352.98</ele>
        <time>2021-05-30T10:12:02Z</time>
      </trkpt>
      <trkpt lat="44.63117" lon="4.4592">
        <ele>352.98</ele>
        <time>2021-05-30T10:12:03Z</time>
      </trkpt>
      <trkpt lat="44.63119" lon="4.4592">
        <ele>352.98</ele>
        <time>2021-05-30T10:12:04Z</time>
      </trkpt>
      <trkpt lat="44.6312" lon="4.4592">
        <ele>352.99</ele>
        <time>2021-05-30T10:12:05Z</time>
      </trkpt>
      <trkpt lat="44.63134" lon="4.45923">
        <ele>354.67</ele>
        <time>2021-05-30T10:12:18Z</time>
      </trkpt>
      <trkpt lat="44.63147" lon="4.45917">
        <ele>355.39</ele>
        <time>2021-05-30T10:12:30Z</time>
      </trkpt>
      <trkpt lat="44.63155" lon="4.45919">
        <ele>356.24</ele>
        <time>2021-05-30T10:12:38Z</time>
      </trkpt>
      <trkpt lat="44.63165" lon="4.45921">
        <ele>356.22</ele>
        <time>2021-05-30T10:12:46Z</time>
      </trkpt>
      <trkpt lat="44.6318" lon="4.45928">
        <ele>357.01</ele>
        <time>2021-05-30T10:13:03Z</time>
      </trkpt>
      <trkpt lat="44.63193" lon="4.45945">
        <ele>357.01</ele>
        <time>2021-05-30T10:13:21Z</time>
      </trkpt>
      <trkpt lat="44.63198" lon="4.45949">
        <ele>357.78</ele>
        <time>2021-05-30T10:13:39Z</time>
      </trkpt>
      <trkpt lat="44.63197" lon="4.45948">
        <ele>357.78</ele>
        <time>2021-05-30T10:13:58Z</time>
      </trkpt>
      <trkpt lat="44.63205" lon="4.45958">
        <ele>357.77</ele>
        <time>2021-05-30T10:14:14Z</time>
      </trkpt>
      <trkpt lat="44.63216" lon="4.45975">
        <ele>357.77</ele>
        <time>2021-05-30T10:14:32Z</time>
      </trkpt>
      <trkpt lat="44.6323" lon="4.45986">
        <ele>358.52</ele>
        <time>2021-05-30T10:14:43Z</time>
      </trkpt>
      <trkpt lat="44.63233" lon="4.45989">
        <ele>358.52</ele>
        <time>2021-05-30T10:14:45Z</time>
      </trkpt>
      <trkpt lat="44.63234" lon="4.45991">
        <ele>358.52</ele>
        <time>2021-05-30T10:14:46Z</time>
      </trkpt>
      <trkpt lat="44.63238" lon="4.46">
        <ele>358.53</ele>
        <time>2021-05-30T10:14:53Z</time>
      </trkpt>
      <trkpt lat="44.6324" lon="4.46002">
        <ele>358.53</ele>
        <time>2021-05-30T10:14:54Z</time>
      </trkpt>
      <trkpt lat="44.63241" lon="4.46003">
        <ele>358.53</ele>
        <time>2021-05-30T10:14:55Z</time>
      </trkpt>
      <trkpt lat="44.63242" lon="4.46004">
        <ele>358.53</ele>
        <time>2021-05-30T10:14:56Z</time>
      </trkpt>
      <trkpt lat="44.63244" lon="4.46006">
        <ele>358.53</ele>
        <time>2021-05-30T10:14:57Z</time>
      </trkpt>
      <trkpt lat="44.63247" lon="4.4601">
        <ele>358.53</ele>
        <time>2021-05-30T10:15:00Z</time>
      </trkpt>
      <trkpt lat="44.63248" lon="4.46012">
        <ele>358.53</ele>
        <time>2021-05-30T10:15:01Z</time>
      </trkpt>
      <trkpt lat="44.63248" lon="4.46013">
        <ele>358.53</ele>
        <time>2021-05-30T10:15:02Z</time>
      </trkpt>
      <trkpt lat="44.63249" lon="4.46014">
        <ele>358.53</ele>
        <time>2021-05-30T10:15:03Z</time>
      </trkpt>
      <trkpt lat="44.6325" lon="4.46016">
        <ele>358.53</ele>
        <time>2021-05-30T10:15:04Z</time>
      </trkpt>
      <trkpt lat="44.63254" lon="4.46026">
        <ele>358.52</ele>
        <time>2021-05-30T10:15:14Z</time>
      </trkpt>
      <trkpt lat="44.63268" lon="4.46038">
        <ele>358.5</ele>
        <time>2021-05-30T10:15:30Z</time>
      </trkpt>
      <trkpt lat="44.63271" lon="4.4604">
        <ele>356.25</ele>
        <time>2021-05-30T10:15:33Z</time>
      </trkpt>
      <trkpt lat="44.6328" lon="4.4605">
        <ele>355.49</ele>
        <time>2021-05-30T10:15:48Z</time>
      </trkpt>
      <trkpt lat="44.63292" lon="4.46061">
        <ele>353.81</ele>
        <time>2021-05-30T10:16:03Z</time>
      </trkpt>
      <trkpt lat="44.63295" lon="4.46062">
        <ele>353.81</ele>
        <time>2021-05-30T10:16:05Z</time>
      </trkpt>
      <trkpt lat="44.63303" lon="4.46066">
        <ele>352.07</ele>
        <time>2021-05-30T10:16:17Z</time>
      </trkpt>
      <trkpt lat="44.63315" lon="4.46068">
        <ele>351.19</ele>
        <time>2021-05-30T10:16:36Z</time>
      </trkpt>
      <trkpt lat="44.63318" lon="4.46067">
        <ele>351.19</ele>
        <time>2021-05-30T10:16:39Z</time>
      </trkpt>
      <trkpt lat="44.6332" lon="4.46069">
        <ele>351.19</ele>
        <time>2021-05-30T10:16:41Z</time>
      </trkpt>
      <trkpt lat="44.63325" lon="4.46069">
        <ele>350.4</ele>
        <time>2021-05-30T10:16:46Z</time>
      </trkpt>
      <trkpt lat="44.63334" lon="4.4607">
        <ele>348.65</ele>
        <time>2021-05-30T10:16:57Z</time>
      </trkpt>
      <trkpt lat="44.63336" lon="4.46073">
        <ele>347.84</ele>
        <time>2021-05-30T10:17:00Z</time>
      </trkpt>
      <trkpt lat="44.63335" lon="4.46077">
        <ele>347.06</ele>
        <time>2021-05-30T10:17:05Z</time>
      </trkpt>
      <trkpt lat="44.63336" lon="4.46083">
        <ele>345.19</ele>
        <time>2021-05-30T10:17:11Z</time>
      </trkpt>
      <trkpt lat="44.63346" lon="4.46083">
        <ele>344.35</ele>
        <time>2021-05-30T10:17:26Z</time>
      </trkpt>
      <trkpt lat="44.63358" lon="4.46081">
        <ele>342.78</ele>
        <time>2021-05-30T10:17:40Z</time>
      </trkpt>
      <trkpt lat="44.63366" lon="4.46076">
        <ele>340.93</ele>
        <time>2021-05-30T10:17:58Z</time>
      </trkpt>
      <trkpt lat="44.63377" lon="4.46068">
        <ele>339.25</ele>
        <time>2021-05-30T10:18:14Z</time>
      </trkpt>
      <trkpt lat="44.63389" lon="4.46068">
        <ele>335.91</ele>
        <time>2021-05-30T10:18:28Z</time>
      </trkpt>
      <trkpt lat="44.63405" lon="4.46068">
        <ele>334.14</ele>
        <time>2021-05-30T10:18:45Z</time>
      </trkpt>
      <trkpt lat="44.6341" lon="4.46065">
        <ele>334.14</ele>
        <time>2021-05-30T10:19:01Z</time>
      </trkpt>
      <trkpt lat="44.63412" lon="4.46066">
        <ele>334.03</ele>
        <time>2021-05-30T10:19:21Z</time>
      </trkpt>
      <trkpt lat="44.63413" lon="4.46069">
        <ele>335.25</ele>
        <time>2021-05-30T10:19:28Z</time>
      </trkpt>
      <trkpt lat="44.6342" lon="4.46081">
        <ele>332.76</ele>
        <time>2021-05-30T10:19:44Z</time>
      </trkpt>
      <trkpt lat="44.63421" lon="4.46082">
        <ele>332.76</ele>
        <time>2021-05-30T10:19:45Z</time>
      </trkpt>
      <trkpt lat="44.63427" lon="4.46095">
        <ele>330.23</ele>
        <time>2021-05-30T10:20:00Z</time>
      </trkpt>
      <trkpt lat="44.63429" lon="4.46098">
        <ele>330.2</ele>
        <time>2021-05-30T10:20:03Z</time>
      </trkpt>
      <trkpt lat="44.6343" lon="4.46099">
        <ele>329.39</ele>
        <time>2021-05-30T10:20:04Z</time>
      </trkpt>
      <trkpt lat="44.63429" lon="4.46105">
        <ele>329.22</ele>
        <time>2021-05-30T10:20:08Z</time>
      </trkpt>
      <trkpt lat="44.63427" lon="4.46116">
        <ele>326.5</ele>
        <time>2021-05-30T10:20:18Z</time>
      </trkpt>
      <trkpt lat="44.63425" lon="4.4613">
        <ele>324.04</ele>
        <time>2021-05-30T10:20:37Z</time>
      </trkpt>
      <trkpt lat="44.63426" lon="4.46151">
        <ele>320.69</ele>
        <time>2021-05-30T10:20:54Z</time>
      </trkpt>
      <trkpt lat="44.63427" lon="4.46153">
        <ele>320.7</ele>
        <time>2021-05-30T10:20:56Z</time>
      </trkpt>
      <trkpt lat="44.63431" lon="4.46161">
        <ele>319.11</ele>
        <time>2021-05-30T10:21:13Z</time>
      </trkpt>
      <trkpt lat="44.63431" lon="4.46162">
        <ele>319.24</ele>
        <time>2021-05-30T10:21:29Z</time>
      </trkpt>
      <trkpt lat="44.63426" lon="4.46163">
        <ele>318.58</ele>
        <time>2021-05-30T10:21:46Z</time>
      </trkpt>
      <trkpt lat="44.63429" lon="4.46162">
        <ele>318.74</ele>
        <time>2021-05-30T10:22:12Z</time>
      </trkpt>
      <trkpt lat="44.63431" lon="4.46166">
        <ele>318.92</ele>
        <time>2021-05-30T10:22:39Z</time>
      </trkpt>
      <trkpt lat="44.63423" lon="4.46167">
        <ele>319.06</ele>
        <time>2021-05-30T10:23:01Z</time>
      </trkpt>
      <trkpt lat="44.63411" lon="4.46156">
        <ele>318.3</ele>
        <time>2021-05-30T10:23:18Z</time>
      </trkpt>
      <trkpt lat="44.63405" lon="4.46145">
        <ele>317.7</ele>
        <time>2021-05-30T10:23:34Z</time>
      </trkpt>
      <trkpt lat="44.63395" lon="4.46132">
        <ele>318.57</ele>
        <time>2021-05-30T10:23:53Z</time>
      </trkpt>
      <trkpt lat="44.63387" lon="4.46116">
        <ele>318.75</ele>
        <time>2021-05-30T10:24:11Z</time>
      </trkpt>
      <trkpt lat="44.63382" lon="4.46116">
        <ele>318.85</ele>
        <time>2021-05-30T10:24:27Z</time>
      </trkpt>
      <trkpt lat="44.63375" lon="4.46122">
        <ele>319.01</ele>
        <time>2021-05-30T10:24:42Z</time>
      </trkpt>
      <trkpt lat="44.63368" lon="4.46132">
        <ele>319.1</ele>
        <time>2021-05-30T10:24:52Z</time>
      </trkpt>
      <trkpt lat="44.63358" lon="4.46146">
        <ele>319.24</ele>
        <time>2021-05-30T10:25:11Z</time>
      </trkpt>
      <trkpt lat="44.63355" lon="4.46147">
        <ele>316.91</ele>
        <time>2021-05-30T10:25:18Z</time>
      </trkpt>
      <trkpt lat="44.63347" lon="4.46138">
        <ele>316.29</ele>
        <time>2021-05-30T10:25:48Z</time>
      </trkpt>
      <trkpt lat="44.63344" lon="4.46133">
        <ele>316.36</ele>
        <time>2021-05-30T10:26:18Z</time>
      </trkpt>
      <trkpt lat="44.63345" lon="4.46135">
        <ele>316.29</ele>
        <time>2021-05-30T10:27:15Z</time>
      </trkpt>
      <trkpt lat="44.63344" lon="4.46136">
        <ele>316.1</ele>
        <time>2021-05-30T10:28:15Z</time>
      </trkpt>
      <trkpt lat="44.63346" lon="4.46137">
        <ele>315.93</ele>
        <time>2021-05-30T10:29:13Z</time>
      </trkpt>
      <trkpt lat="44.63347" lon="4.46139">
        <ele>315.78</ele>
        <time>2021-05-30T10:30:17Z</time>
      </trkpt>
      <trkpt lat="44.63346" lon="4.46138">
        <ele>315.65</ele>
        <time>2021-05-30T10:31:19Z</time>
      </trkpt>
      <trkpt lat="44.63346" lon="4.46139">
        <ele>315.52</ele>
        <time>2021-05-30T10:32:06Z</time>
      </trkpt>
      <trkpt lat="44.63347" lon="4.4614">
        <ele>315.35</ele>
        <time>2021-05-30T10:32:59Z</time>
      </trkpt>
      <trkpt lat="44.63345" lon="4.46138">
        <ele>315.11</ele>
        <time>2021-05-30T10:34:09Z</time>
      </trkpt>
      <trkpt lat="44.63347" lon="4.4614">
        <ele>314.89</ele>
        <time>2021-05-30T10:35:17Z</time>
      </trkpt>
      <trkpt lat="44.63347" lon="4.46141">
        <ele>314.64</ele>
        <time>2021-05-30T10:36:21Z</time>
      </trkpt>
      <trkpt lat="44.63348" lon="4.46141">
        <ele>314.45</ele>
        <time>2021-05-30T10:37:11Z</time>
      </trkpt>
      <trkpt lat="44.63349" lon="4.46143">
        <ele>314.14</ele>
        <time>2021-05-30T10:38:26Z</time>
      </trkpt>
      <trkpt lat="44.63349" lon="4.46143">
        <ele>313.89</ele>
        <time>2021-05-30T10:39:31Z</time>
      </trkpt>
      <trkpt lat="44.63349" lon="4.46144">
        <ele>313.67</ele>
        <time>2021-05-30T10:40:39Z</time>
      </trkpt>
      <trkpt lat="44.63348" lon="4.46144">
        <ele>313.54</ele>
        <time>2021-05-30T10:41:19Z</time>
      </trkpt>
      <trkpt lat="44.63349" lon="4.46149">
        <ele>313.42</ele>
        <time>2021-05-30T10:41:50Z</time>
      </trkpt>
      <trkpt lat="44.63348" lon="4.46154">
        <ele>313.31</ele>
        <time>2021-05-30T10:42:21Z</time>
      </trkpt>
      <trkpt lat="44.63349" lon="4.46155">
        <ele>313.27</ele>
        <time>2021-05-30T10:42:48Z</time>
      </trkpt>
      <trkpt lat="44.63347" lon="4.46151">
        <ele>315.09</ele>
        <time>2021-05-30T10:43:00Z</time>
      </trkpt>
      <trkpt lat="44.63347" lon="4.46151">
        <ele>315.09</ele>
        <time>2021-05-30T10:43:01Z</time>
      </trkpt>
      <trkpt lat="44.63336" lon="4.46154">
        <ele>312.74</ele>
        <time>2021-05-30T10:43:16Z</time>
      </trkpt>
      <trkpt lat="44.63333" lon="4.46159">
        <ele>312.75</ele>
        <time>2021-05-30T10:43:21Z</time>
      </trkpt>
      <trkpt lat="44.63323" lon="4.4617">
        <ele>312.73</ele>
        <time>2021-05-30T10:43:41Z</time>
      </trkpt>
      <trkpt lat="44.63312" lon="4.46172">
        <ele>312.66</ele>
        <time>2021-05-30T10:43:59Z</time>
      </trkpt>
      <trkpt lat="44.63306" lon="4.46178">
        <ele>312.65</ele>
        <time>2021-05-30T10:44:16Z</time>
      </trkpt>
      <trkpt lat="44.63296" lon="4.46174">
        <ele>310.87</ele>
        <time>2021-05-30T10:44:30Z</time>
      </trkpt>
      <trkpt lat="44.63288" lon="4.46171">
        <ele>310.84</ele>
        <time>2021-05-30T10:44:41Z</time>
      </trkpt>
      <trkpt lat="44.63271" lon="4.46168">
        <ele>310</ele>
        <time>2021-05-30T10:45:03Z</time>
      </trkpt>
      <trkpt lat="44.63271" lon="4.46175">
        <ele>309.94</ele>
        <time>2021-05-30T10:45:23Z</time>
      </trkpt>
      <trkpt lat="44.63259" lon="4.4618">
        <ele>309.93</ele>
        <time>2021-05-30T10:45:38Z</time>
      </trkpt>
      <trkpt lat="44.63248" lon="4.46177">
        <ele>309.87</ele>
        <time>2021-05-30T10:45:55Z</time>
      </trkpt>
      <trkpt lat="44.63243" lon="4.46178">
        <ele>309.85</ele>
        <time>2021-05-30T10:46:05Z</time>
      </trkpt>
      <trkpt lat="44.6323" lon="4.46177">
        <ele>309.11</ele>
        <time>2021-05-30T10:46:20Z</time>
      </trkpt>
      <trkpt lat="44.63218" lon="4.46175">
        <ele>309.07</ele>
        <time>2021-05-30T10:46:36Z</time>
      </trkpt>
      <trkpt lat="44.63201" lon="4.46176">
        <ele>309.04</ele>
        <time>2021-05-30T10:46:53Z</time>
      </trkpt>
      <trkpt lat="44.63184" lon="4.46171">
        <ele>308.17</ele>
        <time>2021-05-30T10:47:14Z</time>
      </trkpt>
      <trkpt lat="44.63169" lon="4.46171">
        <ele>306.12</ele>
        <time>2021-05-30T10:47:34Z</time>
      </trkpt>
      <trkpt lat="44.63165" lon="4.4617">
        <ele>302.89</ele>
        <time>2021-05-30T10:47:42Z</time>
      </trkpt>
      <trkpt lat="44.63162" lon="4.46171">
        <ele>304.31</ele>
        <time>2021-05-30T10:47:49Z</time>
      </trkpt>
      <trkpt lat="44.63158" lon="4.46193">
        <ele>306.19</ele>
        <time>2021-05-30T10:48:09Z</time>
      </trkpt>
      <trkpt lat="44.63151" lon="4.4621">
        <ele>306.16</ele>
        <time>2021-05-30T10:48:30Z</time>
      </trkpt>
      <trkpt lat="44.63149" lon="4.46209">
        <ele>306.2</ele>
        <time>2021-05-30T10:48:49Z</time>
      </trkpt>
      <trkpt lat="44.63148" lon="4.46215">
        <ele>306.15</ele>
        <time>2021-05-30T10:49:05Z</time>
      </trkpt>
      <trkpt lat="44.63148" lon="4.4622">
        <ele>306.16</ele>
        <time>2021-05-30T10:49:10Z</time>
      </trkpt>
      <trkpt lat="44.6314" lon="4.46237">
        <ele>306.24</ele>
        <time>2021-05-30T10:49:32Z</time>
      </trkpt>
      <trkpt lat="44.63132" lon="4.46252">
        <ele>306.3</ele>
        <time>2021-05-30T10:49:50Z</time>
      </trkpt>
      <trkpt lat="44.63131" lon="4.46253">
        <ele>306.3</ele>
        <time>2021-05-30T10:49:51Z</time>
      </trkpt>
      <trkpt lat="44.63131" lon="4.46253">
        <ele>306.3</ele>
        <time>2021-05-30T10:50:09Z</time>
      </trkpt>
      <trkpt lat="44.63129" lon="4.46255">
        <ele>306.35</ele>
        <time>2021-05-30T10:50:32Z</time>
      </trkpt>
      <trkpt lat="44.63126" lon="4.46256">
        <ele>306.39</ele>
        <time>2021-05-30T10:50:59Z</time>
      </trkpt>
      <trkpt lat="44.63127" lon="4.46258">
        <ele>306.43</ele>
        <time>2021-05-30T10:51:18Z</time>
      </trkpt>
      <trkpt lat="44.63116" lon="4.46268">
        <ele>306.44</ele>
        <time>2021-05-30T10:51:37Z</time>
      </trkpt>
      <trkpt lat="44.63112" lon="4.46268">
        <ele>306.48</ele>
        <time>2021-05-30T10:51:59Z</time>
      </trkpt>
      <trkpt lat="44.63107" lon="4.46266">
        <ele>304.22</ele>
        <time>2021-05-30T10:52:18Z</time>
      </trkpt>
      <trkpt lat="44.63106" lon="4.46266">
        <ele>304.22</ele>
        <time>2021-05-30T10:52:19Z</time>
      </trkpt>
      <trkpt lat="44.63099" lon="4.4627">
        <ele>303.36</ele>
        <time>2021-05-30T10:52:36Z</time>
      </trkpt>
      <trkpt lat="44.63096" lon="4.46276">
        <ele>303.39</ele>
        <time>2021-05-30T10:52:55Z</time>
      </trkpt>
      <trkpt lat="44.63096" lon="4.46276">
        <ele>303.39</ele>
        <time>2021-05-30T10:52:57Z</time>
      </trkpt>
      <trkpt lat="44.63093" lon="4.46283">
        <ele>303.39</ele>
        <time>2021-05-30T10:53:09Z</time>
      </trkpt>
      <trkpt lat="44.63081" lon="4.46294">
        <ele>303.39</ele>
        <time>2021-05-30T10:53:26Z</time>
      </trkpt>
      <trkpt lat="44.63073" lon="4.46306">
        <ele>302.62</ele>
        <time>2021-05-30T10:53:45Z</time>
      </trkpt>
      <trkpt lat="44.63068" lon="4.46315">
        <ele>302.62</ele>
        <time>2021-05-30T10:54:02Z</time>
      </trkpt>
      <trkpt lat="44.63061" lon="4.46323">
        <ele>302.62</ele>
        <time>2021-05-30T10:54:22Z</time>
      </trkpt>
      <trkpt lat="44.63055" lon="4.46324">
        <ele>301.72</ele>
        <time>2021-05-30T10:54:30Z</time>
      </trkpt>
      <trkpt lat="44.63048" lon="4.46333">
        <ele>301.72</ele>
        <time>2021-05-30T10:54:40Z</time>
      </trkpt>
      <trkpt lat="44.63038" lon="4.46341">
        <ele>300.93</ele>
        <time>2021-05-30T10:54:49Z</time>
      </trkpt>
      <trkpt lat="44.63033" lon="4.4635">
        <ele>300.93</ele>
        <time>2021-05-30T10:54:58Z</time>
      </trkpt>
      <trkpt lat="44.63019" lon="4.46351">
        <ele>300.86</ele>
        <time>2021-05-30T10:55:19Z</time>
      </trkpt>
      <trkpt lat="44.63009" lon="4.46346">
        <ele>299.9</ele>
        <time>2021-05-30T10:55:40Z</time>
      </trkpt>
      <trkpt lat="44.63" lon="4.4635">
        <ele>299.8</ele>
        <time>2021-05-30T10:55:56Z</time>
      </trkpt>
      <trkpt lat="44.62991" lon="4.46352">
        <ele>299.71</ele>
        <time>2021-05-30T10:56:10Z</time>
      </trkpt>
      <trkpt lat="44.62984" lon="4.46346">
        <ele>299.61</ele>
        <time>2021-05-30T10:56:25Z</time>
      </trkpt>
      <trkpt lat="44.62974" lon="4.46334">
        <ele>298.58</ele>
        <time>2021-05-30T10:56:42Z</time>
      </trkpt>
      <trkpt lat="44.62971" lon="4.46326">
        <ele>298.49</ele>
        <time>2021-05-30T10:56:56Z</time>
      </trkpt>
      <trkpt lat="44.62971" lon="4.46319">
        <ele>298.34</ele>
        <time>2021-05-30T10:57:18Z</time>
      </trkpt>
      <trkpt lat="44.62968" lon="4.46313">
        <ele>297.41</ele>
        <time>2021-05-30T10:57:35Z</time>
      </trkpt>
      <trkpt lat="44.62963" lon="4.46308">
        <ele>297.3</ele>
        <time>2021-05-30T10:57:59Z</time>
      </trkpt>
      <trkpt lat="44.62956" lon="4.46304">
        <ele>296.43</ele>
        <time>2021-05-30T10:58:12Z</time>
      </trkpt>
      <trkpt lat="44.62955" lon="4.46301">
        <ele>296.36</ele>
        <time>2021-05-30T10:58:28Z</time>
      </trkpt>
      <trkpt lat="44.62953" lon="4.46298">
        <ele>296.32</ele>
        <time>2021-05-30T10:58:37Z</time>
      </trkpt>
      <trkpt lat="44.62944" lon="4.46285">
        <ele>296.27</ele>
        <time>2021-05-30T10:58:50Z</time>
      </trkpt>
      <trkpt lat="44.62943" lon="4.46281">
        <ele>295.42</ele>
        <time>2021-05-30T10:59:05Z</time>
      </trkpt>
      <trkpt lat="44.62939" lon="4.46278">
        <ele>295.35</ele>
        <time>2021-05-30T10:59:20Z</time>
      </trkpt>
      <trkpt lat="44.62943" lon="4.46269">
        <ele>295.23</ele>
        <time>2021-05-30T10:59:41Z</time>
      </trkpt>
      <trkpt lat="44.6294" lon="4.46253">
        <ele>295.15</ele>
        <time>2021-05-30T10:59:56Z</time>
      </trkpt>
      <trkpt lat="44.62932" lon="4.46238">
        <ele>295.06</ele>
        <time>2021-05-30T11:00:12Z</time>
      </trkpt>
      <trkpt lat="44.62929" lon="4.46236">
        <ele>297.3</ele>
        <time>2021-05-30T11:00:16Z</time>
      </trkpt>
      <trkpt lat="44.62922" lon="4.46223">
        <ele>297.2</ele>
        <time>2021-05-30T11:00:29Z</time>
      </trkpt>
      <trkpt lat="44.6292" lon="4.4622">
        <ele>294.43</ele>
        <time>2021-05-30T11:00:41Z</time>
      </trkpt>
      <trkpt lat="44.62915" lon="4.46209">
        <ele>294.22</ele>
        <time>2021-05-30T11:01:03Z</time>
      </trkpt>
      <trkpt lat="44.6291" lon="4.46201">
        <ele>292.39</ele>
        <time>2021-05-30T11:01:21Z</time>
      </trkpt>
      <trkpt lat="44.62905" lon="4.46195">
        <ele>292.41</ele>
        <time>2021-05-30T11:01:30Z</time>
      </trkpt>
      <trkpt lat="44.62899" lon="4.46186">
        <ele>291.46</ele>
        <time>2021-05-30T11:01:45Z</time>
      </trkpt>
      <trkpt lat="44.62887" lon="4.46182">
        <ele>289.46</ele>
        <time>2021-05-30T11:02:00Z</time>
      </trkpt>
      <trkpt lat="44.62875" lon="4.46176">
        <ele>287.71</ele>
        <time>2021-05-30T11:02:23Z</time>
      </trkpt>
      <trkpt lat="44.62873" lon="4.46175">
        <ele>286.06</ele>
        <time>2021-05-30T11:02:26Z</time>
      </trkpt>
      <trkpt lat="44.62871" lon="4.46173">
        <ele>285.99</ele>
        <time>2021-05-30T11:02:31Z</time>
      </trkpt>
      <trkpt lat="44.62865" lon="4.46178">
        <ele>281.76</ele>
        <time>2021-05-30T11:02:49Z</time>
      </trkpt>
      <trkpt lat="44.62862" lon="4.4618">
        <ele>289.55</ele>
        <time>2021-05-30T11:02:51Z</time>
      </trkpt>
      <trkpt lat="44.62856" lon="4.46182">
        <ele>289.47</ele>
        <time>2021-05-30T11:02:59Z</time>
      </trkpt>
      <trkpt lat="44.62851" lon="4.4618">
        <ele>286.87</ele>
        <time>2021-05-30T11:03:07Z</time>
      </trkpt>
      <trkpt lat="44.62841" lon="4.46177">
        <ele>287</ele>
        <time>2021-05-30T11:03:22Z</time>
      </trkpt>
      <trkpt lat="44.62834" lon="4.4617">
        <ele>286.04</ele>
        <time>2021-05-30T11:03:37Z</time>
      </trkpt>
      <trkpt lat="44.6283" lon="4.46172">
        <ele>285.06</ele>
        <time>2021-05-30T11:03:49Z</time>
      </trkpt>
      <trkpt lat="44.62816" lon="4.46168">
        <ele>284.17</ele>
        <time>2021-05-30T11:04:06Z</time>
      </trkpt>
      <trkpt lat="44.62802" lon="4.46154">
        <ele>283.37</ele>
        <time>2021-05-30T11:04:25Z</time>
      </trkpt>
      <trkpt lat="44.62794" lon="4.46146">
        <ele>282.46</ele>
        <time>2021-05-30T11:04:43Z</time>
      </trkpt>
      <trkpt lat="44.62788" lon="4.46148">
        <ele>282.48</ele>
        <time>2021-05-30T11:04:58Z</time>
      </trkpt>
      <trkpt lat="44.62784" lon="4.46139">
        <ele>281.7</ele>
        <time>2021-05-30T11:05:12Z</time>
      </trkpt>
      <trkpt lat="44.62783" lon="4.46145">
        <ele>281.69</ele>
        <time>2021-05-30T11:05:26Z</time>
      </trkpt>
      <trkpt lat="44.62792" lon="4.46144">
        <ele>281.67</ele>
        <time>2021-05-30T11:05:36Z</time>
      </trkpt>
      <trkpt lat="44.62792" lon="4.46134">
        <ele>281.67</ele>
        <time>2021-05-30T11:05:51Z</time>
      </trkpt>
      <trkpt lat="44.62784" lon="4.46134">
        <ele>281.59</ele>
        <time>2021-05-30T11:06:06Z</time>
      </trkpt>
      <trkpt lat="44.62783" lon="4.4613">
        <ele>280.65</ele>
        <time>2021-05-30T11:06:25Z</time>
      </trkpt>
      <trkpt lat="44.62773" lon="4.4612">
        <ele>279.7</ele>
        <time>2021-05-30T11:06:41Z</time>
      </trkpt>
      <trkpt lat="44.62766" lon="4.46113">
        <ele>279.82</ele>
        <time>2021-05-30T11:06:56Z</time>
      </trkpt>
      <trkpt lat="44.62761" lon="4.46123">
        <ele>279.72</ele>
        <time>2021-05-30T11:07:16Z</time>
      </trkpt>
      <trkpt lat="44.62761" lon="4.46117">
        <ele>279.68</ele>
        <time>2021-05-30T11:07:37Z</time>
      </trkpt>
      <trkpt lat="44.6276" lon="4.46109">
        <ele>278.02</ele>
        <time>2021-05-30T11:07:54Z</time>
      </trkpt>
      <trkpt lat="44.62754" lon="4.46106">
        <ele>275.91</ele>
        <time>2021-05-30T11:08:10Z</time>
      </trkpt>
      <trkpt lat="44.62753" lon="4.46107">
        <ele>274.46</ele>
        <time>2021-05-30T11:08:12Z</time>
      </trkpt>
      <trkpt lat="44.6275" lon="4.46107">
        <ele>276.86</ele>
        <time>2021-05-30T11:08:28Z</time>
      </trkpt>
      <trkpt lat="44.62748" lon="4.46104">
        <ele>274.28</ele>
        <time>2021-05-30T11:08:36Z</time>
      </trkpt>
      <trkpt lat="44.62751" lon="4.46098">
        <ele>275.98</ele>
        <time>2021-05-30T11:08:42Z</time>
      </trkpt>
      <trkpt lat="44.6275" lon="4.46085">
        <ele>276.01</ele>
        <time>2021-05-30T11:08:56Z</time>
      </trkpt>
      <trkpt lat="44.62745" lon="4.46077">
        <ele>276.1</ele>
        <time>2021-05-30T11:09:11Z</time>
      </trkpt>
      <trkpt lat="44.62739" lon="4.46059">
        <ele>276.09</ele>
        <time>2021-05-30T11:09:25Z</time>
      </trkpt>
      <trkpt lat="44.6274" lon="4.46057">
        <ele>276.09</ele>
        <time>2021-05-30T11:09:42Z</time>
      </trkpt>
      <trkpt lat="44.62731" lon="4.46049">
        <ele>276.08</ele>
        <time>2021-05-30T11:09:59Z</time>
      </trkpt>
      <trkpt lat="44.6273" lon="4.46043">
        <ele>276.11</ele>
        <time>2021-05-30T11:10:10Z</time>
      </trkpt>
      <trkpt lat="44.62725" lon="4.46038">
        <ele>276.12</ele>
        <time>2021-05-30T11:10:17Z</time>
      </trkpt>
      <trkpt lat="44.62721" lon="4.46028">
        <ele>276.92</ele>
        <time>2021-05-30T11:10:30Z</time>
      </trkpt>
      <trkpt lat="44.6272" lon="4.46024">
        <ele>276.84</ele>
        <time>2021-05-30T11:10:46Z</time>
      </trkpt>
      <trkpt lat="44.6272" lon="4.46024">
        <ele>273.71</ele>
        <time>2021-05-30T11:10:54Z</time>
      </trkpt>
      <trkpt lat="44.6272" lon="4.46024">
        <ele>273.7</ele>
        <time>2021-05-30T11:10:55Z</time>
      </trkpt>
      <trkpt lat="44.62721" lon="4.46023">
        <ele>276.79</ele>
        <time>2021-05-30T11:10:56Z</time>
      </trkpt>
      <trkpt lat="44.62721" lon="4.46023">
        <ele>276.81</ele>
        <time>2021-05-30T11:10:57Z</time>
      </trkpt>
      <trkpt lat="44.62721" lon="4.46023">
        <ele>281.09</ele>
        <time>2021-05-30T11:10:59Z</time>
      </trkpt>
      <trkpt lat="44.62721" lon="4.46023">
        <ele>281.09</ele>
        <time>2021-05-30T11:11:00Z</time>
      </trkpt>
      <trkpt lat="44.62721" lon="4.46024">
        <ele>278.15</ele>
        <time>2021-05-30T11:11:02Z</time>
      </trkpt>
      <trkpt lat="44.62722" lon="4.46024">
        <ele>271.98</ele>
        <time>2021-05-30T11:11:08Z</time>
      </trkpt>
      <trkpt lat="44.62721" lon="4.46024">
        <ele>272.05</ele>
        <time>2021-05-30T11:11:09Z</time>
      </trkpt>
      <trkpt lat="44.62722" lon="4.46023">
        <ele>275.7</ele>
        <time>2021-05-30T11:11:10Z</time>
      </trkpt>
      <trkpt lat="44.62722" lon="4.46023">
        <ele>275.75</ele>
        <time>2021-05-30T11:11:11Z</time>
      </trkpt>
      <trkpt lat="44.62722" lon="4.46022">
        <ele>279.06</ele>
        <time>2021-05-30T11:11:14Z</time>
      </trkpt>
      <trkpt lat="44.62722" lon="4.46022">
        <ele>278.79</ele>
        <time>2021-05-30T11:11:15Z</time>
      </trkpt>
      <trkpt lat="44.62721" lon="4.46018">
        <ele>276.69</ele>
        <time>2021-05-30T11:11:31Z</time>
      </trkpt>
      <trkpt lat="44.62715" lon="4.46017">
        <ele>275.77</ele>
        <time>2021-05-30T11:11:51Z</time>
      </trkpt>
      <trkpt lat="44.62709" lon="4.46008">
        <ele>275.84</ele>
        <time>2021-05-30T11:12:09Z</time>
      </trkpt>
      <trkpt lat="44.62705" lon="4.46003">
        <ele>275.71</ele>
        <time>2021-05-30T11:12:29Z</time>
      </trkpt>
      <trkpt lat="44.62701" lon="4.45999">
        <ele>274.77</ele>
        <time>2021-05-30T11:12:56Z</time>
      </trkpt>
      <trkpt lat="44.62693" lon="4.45995">
        <ele>274.73</ele>
        <time>2021-05-30T11:13:17Z</time>
      </trkpt>
      <trkpt lat="44.62689" lon="4.45991">
        <ele>274.67</ele>
        <time>2021-05-30T11:13:37Z</time>
      </trkpt>
      <trkpt lat="44.62685" lon="4.45991">
        <ele>274.63</ele>
        <time>2021-05-30T11:13:57Z</time>
      </trkpt>
      <trkpt lat="44.62677" lon="4.45988">
        <ele>274.5</ele>
        <time>2021-05-30T11:14:15Z</time>
      </trkpt>
      <trkpt lat="44.62672" lon="4.45981">
        <ele>274.47</ele>
        <time>2021-05-30T11:14:29Z</time>
      </trkpt>
      <trkpt lat="44.62662" lon="4.45972">
        <ele>273.5</ele>
        <time>2021-05-30T11:14:48Z</time>
      </trkpt>
      <trkpt lat="44.62658" lon="4.45966">
        <ele>272.51</ele>
        <time>2021-05-30T11:15:10Z</time>
      </trkpt>
      <trkpt lat="44.62656" lon="4.45967">
        <ele>270.06</ele>
        <time>2021-05-30T11:15:32Z</time>
      </trkpt>
      <trkpt lat="44.62655" lon="4.45969">
        <ele>269.99</ele>
        <time>2021-05-30T11:15:35Z</time>
      </trkpt>
      <trkpt lat="44.62654" lon="4.45981">
        <ele>268.46</ele>
        <time>2021-05-30T11:15:57Z</time>
      </trkpt>
      <trkpt lat="44.62654" lon="4.45981">
        <ele>268.45</ele>
        <time>2021-05-30T11:16:02Z</time>
      </trkpt>
      <trkpt lat="44.62649" lon="4.45987">
        <ele>267.57</ele>
        <time>2021-05-30T11:16:12Z</time>
      </trkpt>
      <trkpt lat="44.62645" lon="4.45992">
        <ele>266.75</ele>
        <time>2021-05-30T11:16:34Z</time>
      </trkpt>
      <trkpt lat="44.62647" lon="4.45991">
        <ele>264.28</ele>
        <time>2021-05-30T11:16:51Z</time>
      </trkpt>
      <trkpt lat="44.62645" lon="4.45992">
        <ele>263.01</ele>
        <time>2021-05-30T11:17:08Z</time>
      </trkpt>
      <trkpt lat="44.62646" lon="4.45992">
        <ele>267.03</ele>
        <time>2021-05-30T11:17:15Z</time>
      </trkpt>
      <trkpt lat="44.62647" lon="4.45991">
        <ele>267.03</ele>
        <time>2021-05-30T11:17:16Z</time>
      </trkpt>
      <trkpt lat="44.62647" lon="4.45991">
        <ele>264.07</ele>
        <time>2021-05-30T11:17:20Z</time>
      </trkpt>
      <trkpt lat="44.62647" lon="4.45991">
        <ele>262.66</ele>
        <time>2021-05-30T11:17:22Z</time>
      </trkpt>
      <trkpt lat="44.62647" lon="4.45989">
        <ele>262.7</ele>
        <time>2021-05-30T11:17:42Z</time>
      </trkpt>
      <trkpt lat="44.62649" lon="4.45985">
        <ele>263.91</ele>
        <time>2021-05-30T11:17:52Z</time>
      </trkpt>
      <trkpt lat="44.62648" lon="4.45983">
        <ele>263.91</ele>
        <time>2021-05-30T11:18:02Z</time>
      </trkpt>
      <trkpt lat="44.62647" lon="4.45976">
        <ele>263.93</ele>
        <time>2021-05-30T11:18:20Z</time>
      </trkpt>
      <trkpt lat="44.62648" lon="4.45973">
        <ele>263.94</ele>
        <time>2021-05-30T11:18:32Z</time>
      </trkpt>
      <trkpt lat="44.62649" lon="4.45974">
        <ele>263.93</ele>
        <time>2021-05-30T11:18:50Z</time>
      </trkpt>
      <trkpt lat="44.62646" lon="4.45972">
        <ele>263.93</ele>
        <time>2021-05-30T11:19:08Z</time>
      </trkpt>
      <trkpt lat="44.62639" lon="4.45966">
        <ele>263.91</ele>
        <time>2021-05-30T11:19:25Z</time>
      </trkpt>
      <trkpt lat="44.62622" lon="4.45951">
        <ele>263.92</ele>
        <time>2021-05-30T11:19:46Z</time>
      </trkpt>
      <trkpt lat="44.62611" lon="4.4594">
        <ele>261.6</ele>
        <time>2021-05-30T11:20:04Z</time>
      </trkpt>
      <trkpt lat="44.62602" lon="4.45923">
        <ele>261.55</ele>
        <time>2021-05-30T11:20:21Z</time>
      </trkpt>
      <trkpt lat="44.62594" lon="4.45912">
        <ele>261.51</ele>
        <time>2021-05-30T11:20:40Z</time>
      </trkpt>
      <trkpt lat="44.62587" lon="4.45902">
        <ele>260.67</ele>
        <time>2021-05-30T11:20:57Z</time>
      </trkpt>
      <trkpt lat="44.62583" lon="4.45899">
        <ele>259.82</ele>
        <time>2021-05-30T11:21:14Z</time>
      </trkpt>
      <trkpt lat="44.62581" lon="4.45896">
        <ele>258.21</ele>
        <time>2021-05-30T11:21:29Z</time>
      </trkpt>
      <trkpt lat="44.62571" lon="4.45891">
        <ele>258.14</ele>
        <time>2021-05-30T11:21:49Z</time>
      </trkpt>
      <trkpt lat="44.62557" lon="4.45889">
        <ele>258.11</ele>
        <time>2021-05-30T11:22:06Z</time>
      </trkpt>
      <trkpt lat="44.62546" lon="4.45884">
        <ele>257.06</ele>
        <time>2021-05-30T11:22:25Z</time>
      </trkpt>
      <trkpt lat="44.62538" lon="4.45871">
        <ele>255.05</ele>
        <time>2021-05-30T11:22:40Z</time>
      </trkpt>
      <trkpt lat="44.62519" lon="4.45865">
        <ele>255.03</ele>
        <time>2021-05-30T11:23:04Z</time>
      </trkpt>
      <trkpt lat="44.62508" lon="4.45867">
        <ele>254.97</ele>
        <time>2021-05-30T11:23:19Z</time>
      </trkpt>
      <trkpt lat="44.62506" lon="4.45871">
        <ele>258.4</ele>
        <time>2021-05-30T11:23:28Z</time>
      </trkpt>
      <trkpt lat="44.62507" lon="4.45871">
        <ele>258.4</ele>
        <time>2021-05-30T11:23:29Z</time>
      </trkpt>
      <trkpt lat="44.62506" lon="4.4587">
        <ele>255.69</ele>
        <time>2021-05-30T11:23:31Z</time>
      </trkpt>
      <trkpt lat="44.62505" lon="4.45869">
        <ele>254.7</ele>
        <time>2021-05-30T11:23:33Z</time>
      </trkpt>
      <trkpt lat="44.62505" lon="4.45867">
        <ele>254.65</ele>
        <time>2021-05-30T11:23:37Z</time>
      </trkpt>
      <trkpt lat="44.62508" lon="4.45867">
        <ele>254.64</ele>
        <time>2021-05-30T11:23:42Z</time>
      </trkpt>
      <trkpt lat="44.62511" lon="4.45868">
        <ele>254.63</ele>
        <time>2021-05-30T11:24:06Z</time>
      </trkpt>
      <trkpt lat="44.62502" lon="4.45866">
        <ele>253.77</ele>
        <time>2021-05-30T11:24:24Z</time>
      </trkpt>
      <trkpt lat="44.62493" lon="4.45867">
        <ele>253.77</ele>
        <time>2021-05-30T11:24:32Z</time>
      </trkpt>
      <trkpt lat="44.62473" lon="4.45863">
        <ele>252.6</ele>
        <time>2021-05-30T11:24:46Z</time>
      </trkpt>
      <trkpt lat="44.62471" lon="4.45864">
        <ele>253.94</ele>
        <time>2021-05-30T11:24:53Z</time>
      </trkpt>
      <trkpt lat="44.62461" lon="4.45857">
        <ele>253.93</ele>
        <time>2021-05-30T11:25:12Z</time>
      </trkpt>
      <trkpt lat="44.62458" lon="4.45853">
        <ele>253.95</ele>
        <time>2021-05-30T11:25:15Z</time>
      </trkpt>
      <trkpt lat="44.62452" lon="4.45841">
        <ele>253.96</ele>
        <time>2021-05-30T11:25:24Z</time>
      </trkpt>
      <trkpt lat="44.6245" lon="4.45825">
        <ele>253.99</ele>
        <time>2021-05-30T11:25:34Z</time>
      </trkpt>
      <trkpt lat="44.62444" lon="4.45815">
        <ele>254.01</ele>
        <time>2021-05-30T11:25:50Z</time>
      </trkpt>
      <trkpt lat="44.6244" lon="4.45804">
        <ele>254.01</ele>
        <time>2021-05-30T11:26:02Z</time>
      </trkpt>
      <trkpt lat="44.62439" lon="4.45799">
        <ele>251.6</ele>
        <time>2021-05-30T11:26:11Z</time>
      </trkpt>
      <trkpt lat="44.62441" lon="4.45788">
        <ele>250.79</ele>
        <time>2021-05-30T11:26:24Z</time>
      </trkpt>
      <trkpt lat="44.62434" lon="4.45776">
        <ele>250.77</ele>
        <time>2021-05-30T11:26:40Z</time>
      </trkpt>
      <trkpt lat="44.62429" lon="4.45765">
        <ele>250.73</ele>
        <time>2021-05-30T11:26:58Z</time>
      </trkpt>
      <trkpt lat="44.62422" lon="4.45758">
        <ele>249.88</ele>
        <time>2021-05-30T11:27:10Z</time>
      </trkpt>
      <trkpt lat="44.62421" lon="4.45753">
        <ele>249.87</ele>
        <time>2021-05-30T11:27:15Z</time>
      </trkpt>
      <trkpt lat="44.6242" lon="4.45742">
        <ele>249.85</ele>
        <time>2021-05-30T11:27:26Z</time>
      </trkpt>
      <trkpt lat="44.62415" lon="4.45737">
        <ele>249.79</ele>
        <time>2021-05-30T11:27:41Z</time>
      </trkpt>
      <trkpt lat="44.62415" lon="4.45736">
        <ele>249.79</ele>
        <time>2021-05-30T11:27:42Z</time>
      </trkpt>
      <trkpt lat="44.62415" lon="4.45722">
        <ele>249.78</ele>
        <time>2021-05-30T11:27:57Z</time>
      </trkpt>
      <trkpt lat="44.62413" lon="4.45719">
        <ele>249.77</ele>
        <time>2021-05-30T11:28:00Z</time>
      </trkpt>
      <trkpt lat="44.62409" lon="4.45712">
        <ele>249.71</ele>
        <time>2021-05-30T11:28:07Z</time>
      </trkpt>
      <trkpt lat="44.62407" lon="4.45706">
        <ele>249.68</ele>
        <time>2021-05-30T11:28:12Z</time>
      </trkpt>
      <trkpt lat="44.62404" lon="4.45702">
        <ele>249.68</ele>
        <time>2021-05-30T11:28:15Z</time>
      </trkpt>
      <trkpt lat="44.62401" lon="4.45694">
        <ele>249.69</ele>
        <time>2021-05-30T11:28:21Z</time>
      </trkpt>
      <trkpt lat="44.62401" lon="4.45689">
        <ele>249.69</ele>
        <time>2021-05-30T11:28:26Z</time>
      </trkpt>
      <trkpt lat="44.62398" lon="4.45682">
        <ele>248.88</ele>
        <time>2021-05-30T11:28:32Z</time>
      </trkpt>
      <trkpt lat="44.62395" lon="4.45677">
        <ele>248.87</ele>
        <time>2021-05-30T11:28:38Z</time>
      </trkpt>
      <trkpt lat="44.62393" lon="4.45677">
        <ele>248.87</ele>
        <time>2021-05-30T11:28:43Z</time>
      </trkpt>
      <trkpt lat="44.62391" lon="4.45671">
        <ele>248.88</ele>
        <time>2021-05-30T11:28:47Z</time>
      </trkpt>
      <trkpt lat="44.62392" lon="4.45664">
        <ele>248.87</ele>
        <time>2021-05-30T11:28:53Z</time>
      </trkpt>
      <trkpt lat="44.62392" lon="4.45658">
        <ele>248.87</ele>
        <time>2021-05-30T11:28:58Z</time>
      </trkpt>
      <trkpt lat="44.6239" lon="4.45661">
        <ele>248.87</ele>
        <time>2021-05-30T11:29:03Z</time>
      </trkpt>
      <trkpt lat="44.62384" lon="4.45651">
        <ele>248.86</ele>
        <time>2021-05-30T11:29:12Z</time>
      </trkpt>
      <trkpt lat="44.62383" lon="4.45643">
        <ele>248.82</ele>
        <time>2021-05-30T11:29:18Z</time>
      </trkpt>
      <trkpt lat="44.62385" lon="4.45634">
        <ele>248.77</ele>
        <time>2021-05-30T11:29:31Z</time>
      </trkpt>
      <trkpt lat="44.62384" lon="4.45626">
        <ele>248.74</ele>
        <time>2021-05-30T11:29:42Z</time>
      </trkpt>
      <trkpt lat="44.62382" lon="4.45622">
        <ele>251</ele>
        <time>2021-05-30T11:29:47Z</time>
      </trkpt>
      <trkpt lat="44.6238" lon="4.45612">
        <ele>251.87</ele>
        <time>2021-05-30T11:30:02Z</time>
      </trkpt>
      <trkpt lat="44.62378" lon="4.45606">
        <ele>251.85</ele>
        <time>2021-05-30T11:30:07Z</time>
      </trkpt>
      <trkpt lat="44.62374" lon="4.45599">
        <ele>251.81</ele>
        <time>2021-05-30T11:30:15Z</time>
      </trkpt>
      <trkpt lat="44.62369" lon="4.45592">
        <ele>251.81</ele>
        <time>2021-05-30T11:30:24Z</time>
      </trkpt>
      <trkpt lat="44.62369" lon="4.45592">
        <ele>248.78</ele>
        <time>2021-05-30T11:30:25Z</time>
      </trkpt>
      <trkpt lat="44.62368" lon="4.45592">
        <ele>248.8</ele>
        <time>2021-05-30T11:30:26Z</time>
      </trkpt>
      <trkpt lat="44.62361" lon="4.45582">
        <ele>248.74</ele>
        <time>2021-05-30T11:30:49Z</time>
      </trkpt>
      <trkpt lat="44.6236" lon="4.45577">
        <ele>247.19</ele>
        <time>2021-05-30T11:31:06Z</time>
      </trkpt>
      <trkpt lat="44.62363" lon="4.4557">
        <ele>245.17</ele>
        <time>2021-05-30T11:31:19Z</time>
      </trkpt>
      <trkpt lat="44.6236" lon="4.45561">
        <ele>245.25</ele>
        <time>2021-05-30T11:31:29Z</time>
      </trkpt>
      <trkpt lat="44.62347" lon="4.45546">
        <ele>245.28</ele>
        <time>2021-05-30T11:31:46Z</time>
      </trkpt>
      <trkpt lat="44.62347" lon="4.45535">
        <ele>244.55</ele>
        <time>2021-05-30T11:31:57Z</time>
      </trkpt>
      <trkpt lat="44.62348" lon="4.45519">
        <ele>244.58</ele>
        <time>2021-05-30T11:32:09Z</time>
      </trkpt>
      <trkpt lat="44.62348" lon="4.45515">
        <ele>244.59</ele>
        <time>2021-05-30T11:32:12Z</time>
      </trkpt>
      <trkpt lat="44.62351" lon="4.45501">
        <ele>243.83</ele>
        <time>2021-05-30T11:32:22Z</time>
      </trkpt>
      <trkpt lat="44.62357" lon="4.45495">
        <ele>243.86</ele>
        <time>2021-05-30T11:32:34Z</time>
      </trkpt>
      <trkpt lat="44.62361" lon="4.45483">
        <ele>243.87</ele>
        <time>2021-05-30T11:32:43Z</time>
      </trkpt>
      <trkpt lat="44.62368" lon="4.45463">
        <ele>243.89</ele>
        <time>2021-05-30T11:33:01Z</time>
      </trkpt>
      <trkpt lat="44.62374" lon="4.45464">
        <ele>243.93</ele>
        <time>2021-05-30T11:33:19Z</time>
      </trkpt>
      <trkpt lat="44.62375" lon="4.45462">
        <ele>246.29</ele>
        <time>2021-05-30T11:33:26Z</time>
      </trkpt>
      <trkpt lat="44.62379" lon="4.45459">
        <ele>249.72</ele>
        <time>2021-05-30T11:33:39Z</time>
      </trkpt>
      <trkpt lat="44.62387" lon="4.45444">
        <ele>253.21</ele>
        <time>2021-05-30T11:33:54Z</time>
      </trkpt>
      <trkpt lat="44.62392" lon="4.45435">
        <ele>253.91</ele>
        <time>2021-05-30T11:34:15Z</time>
      </trkpt>
      <trkpt lat="44.62386" lon="4.45437">
        <ele>253.88</ele>
        <time>2021-05-30T11:34:26Z</time>
      </trkpt>
      <trkpt lat="44.62382" lon="4.45441">
        <ele>253.86</ele>
        <time>2021-05-30T11:34:44Z</time>
      </trkpt>
      <trkpt lat="44.62376" lon="4.45444">
        <ele>251.59</ele>
        <time>2021-05-30T11:34:50Z</time>
      </trkpt>
      <trkpt lat="44.62364" lon="4.45449">
        <ele>248.06</ele>
        <time>2021-05-30T11:35:07Z</time>
      </trkpt>
      <trkpt lat="44.62357" lon="4.45455">
        <ele>244.39</ele>
        <time>2021-05-30T11:35:22Z</time>
      </trkpt>
      <trkpt lat="44.6235" lon="4.45457">
        <ele>243.76</ele>
        <time>2021-05-30T11:35:35Z</time>
      </trkpt>
      <trkpt lat="44.62364" lon="4.45435">
        <ele>243.89</ele>
        <time>2021-05-30T11:35:54Z</time>
      </trkpt>
      <trkpt lat="44.62365" lon="4.4543">
        <ele>243.55</ele>
        <time>2021-05-30T11:45:40Z</time>
      </trkpt>
      <trkpt lat="44.62367" lon="4.45421">
        <ele>243.65</ele>
        <time>2021-05-30T11:45:47Z</time>
      </trkpt>
      <trkpt lat="44.6237" lon="4.45419">
        <ele>242.91</ele>
        <time>2021-05-30T11:45:50Z</time>
      </trkpt>
      <trkpt lat="44.6237" lon="4.45416">
        <ele>242.89</ele>
        <time>2021-05-30T11:45:52Z</time>
      </trkpt>
      <trkpt lat="44.62381" lon="4.45408">
        <ele>242.96</ele>
        <time>2021-05-30T11:46:06Z</time>
      </trkpt>
      <trkpt lat="44.62393" lon="4.45401">
        <ele>242.92</ele>
        <time>2021-05-30T11:46:21Z</time>
      </trkpt>
      <trkpt lat="44.62405" lon="4.45405">
        <ele>242.99</ele>
        <time>2021-05-30T11:46:38Z</time>
      </trkpt>
      <trkpt lat="44.62414" lon="4.45406">
        <ele>243</ele>
        <time>2021-05-30T11:46:46Z</time>
      </trkpt>
      <trkpt lat="44.62437" lon="4.45403">
        <ele>242.33</ele>
        <time>2021-05-30T11:47:07Z</time>
      </trkpt>
      <trkpt lat="44.62448" lon="4.454">
        <ele>242.31</ele>
        <time>2021-05-30T11:47:23Z</time>
      </trkpt>
      <trkpt lat="44.62451" lon="4.45392">
        <ele>242.35</ele>
        <time>2021-05-30T11:47:32Z</time>
      </trkpt>
      <trkpt lat="44.62457" lon="4.4538">
        <ele>242.29</ele>
        <time>2021-05-30T11:47:41Z</time>
      </trkpt>
      <trkpt lat="44.6246" lon="4.45378">
        <ele>242.27</ele>
        <time>2021-05-30T11:47:44Z</time>
      </trkpt>
      <trkpt lat="44.62461" lon="4.45376">
        <ele>242.26</ele>
        <time>2021-05-30T11:47:46Z</time>
      </trkpt>
      <trkpt lat="44.62466" lon="4.45364">
        <ele>242.26</ele>
        <time>2021-05-30T11:47:56Z</time>
      </trkpt>
      <trkpt lat="44.6247" lon="4.45355">
        <ele>241.43</ele>
        <time>2021-05-30T11:48:10Z</time>
      </trkpt>
      <trkpt lat="44.62471" lon="4.45344">
        <ele>241.41</ele>
        <time>2021-05-30T11:48:26Z</time>
      </trkpt>
      <trkpt lat="44.62471" lon="4.45335">
        <ele>241.3</ele>
        <time>2021-05-30T11:48:37Z</time>
      </trkpt>
      <trkpt lat="44.62476" lon="4.45324">
        <ele>240.4</ele>
        <time>2021-05-30T11:48:53Z</time>
      </trkpt>
      <trkpt lat="44.62476" lon="4.45323">
        <ele>240.37</ele>
        <time>2021-05-30T11:49:12Z</time>
      </trkpt>
      <trkpt lat="44.62478" lon="4.45318">
        <ele>240.32</ele>
        <time>2021-05-30T11:49:37Z</time>
      </trkpt>
      <trkpt lat="44.62481" lon="4.45318">
        <ele>240.28</ele>
        <time>2021-05-30T11:49:57Z</time>
      </trkpt>
      <trkpt lat="44.62483" lon="4.45318">
        <ele>242.7</ele>
        <time>2021-05-30T11:49:59Z</time>
      </trkpt>
      <trkpt lat="44.62483" lon="4.45319">
        <ele>242.68</ele>
        <time>2021-05-30T11:50:03Z</time>
      </trkpt>
      <trkpt lat="44.62476" lon="4.45316">
        <ele>235.57</ele>
        <time>2021-05-30T11:50:21Z</time>
      </trkpt>
      <trkpt lat="44.62477" lon="4.45316">
        <ele>240.99</ele>
        <time>2021-05-30T11:50:22Z</time>
      </trkpt>
      <trkpt lat="44.62477" lon="4.45316">
        <ele>243.02</ele>
        <time>2021-05-30T11:50:24Z</time>
      </trkpt>
      <trkpt lat="44.62477" lon="4.45317">
        <ele>240.35</ele>
        <time>2021-05-30T11:50:26Z</time>
      </trkpt>
      <trkpt lat="44.62477" lon="4.45315">
        <ele>240.42</ele>
        <time>2021-05-30T11:50:42Z</time>
      </trkpt>
      <trkpt lat="44.62477" lon="4.45314">
        <ele>239.57</ele>
        <time>2021-05-30T11:50:56Z</time>
      </trkpt>
      <trkpt lat="44.62474" lon="4.45306">
        <ele>239.59</ele>
        <time>2021-05-30T11:51:10Z</time>
      </trkpt>
      <trkpt lat="44.62473" lon="4.45306">
        <ele>239.6</ele>
        <time>2021-05-30T11:51:15Z</time>
      </trkpt>
      <trkpt lat="44.62473" lon="4.45293">
        <ele>239.57</ele>
        <time>2021-05-30T11:51:36Z</time>
      </trkpt>
      <trkpt lat="44.62473" lon="4.45286">
        <ele>239.58</ele>
        <time>2021-05-30T11:51:42Z</time>
      </trkpt>
      <trkpt lat="44.62469" lon="4.45272">
        <ele>239.57</ele>
        <time>2021-05-30T11:51:51Z</time>
      </trkpt>
      <trkpt lat="44.62466" lon="4.45265">
        <ele>239.52</ele>
        <time>2021-05-30T11:51:56Z</time>
      </trkpt>
      <trkpt lat="44.62463" lon="4.45253">
        <ele>239.48</ele>
        <time>2021-05-30T11:52:06Z</time>
      </trkpt>
      <trkpt lat="44.6246" lon="4.45249">
        <ele>239.47</ele>
        <time>2021-05-30T11:52:10Z</time>
      </trkpt>
      <trkpt lat="44.62455" lon="4.45246">
        <ele>239.49</ele>
        <time>2021-05-30T11:52:14Z</time>
      </trkpt>
      <trkpt lat="44.62451" lon="4.45237">
        <ele>239.47</ele>
        <time>2021-05-30T11:52:20Z</time>
      </trkpt>
      <trkpt lat="44.6245" lon="4.45233">
        <ele>239.48</ele>
        <time>2021-05-30T11:52:23Z</time>
      </trkpt>
      <trkpt lat="44.62446" lon="4.45225">
        <ele>239.49</ele>
        <time>2021-05-30T11:52:29Z</time>
      </trkpt>
      <trkpt lat="44.62445" lon="4.4522">
        <ele>239.47</ele>
        <time>2021-05-30T11:52:33Z</time>
      </trkpt>
      <trkpt lat="44.62437" lon="4.45209">
        <ele>238.68</ele>
        <time>2021-05-30T11:52:45Z</time>
      </trkpt>
      <trkpt lat="44.62435" lon="4.45205">
        <ele>238.75</ele>
        <time>2021-05-30T11:53:05Z</time>
      </trkpt>
      <trkpt lat="44.62432" lon="4.45195">
        <ele>238.73</ele>
        <time>2021-05-30T11:53:16Z</time>
      </trkpt>
      <trkpt lat="44.62435" lon="4.45189">
        <ele>237.9</ele>
        <time>2021-05-30T11:53:21Z</time>
      </trkpt>
      <trkpt lat="44.6244" lon="4.45183">
        <ele>236.94</ele>
        <time>2021-05-30T11:53:31Z</time>
      </trkpt>
      <trkpt lat="44.62442" lon="4.45183">
        <ele>236.27</ele>
        <time>2021-05-30T11:54:19Z</time>
      </trkpt>
      <trkpt lat="44.62446" lon="4.45188">
        <ele>236.29</ele>
        <time>2021-05-30T11:54:26Z</time>
      </trkpt>
      <trkpt lat="44.62453" lon="4.4519">
        <ele>236.37</ele>
        <time>2021-05-30T11:54:37Z</time>
      </trkpt>
      <trkpt lat="44.62451" lon="4.45189">
        <ele>236.14</ele>
        <time>2021-05-30T12:05:46Z</time>
      </trkpt>
      <trkpt lat="44.62475" lon="4.45201">
        <ele>236.23</ele>
        <time>2021-05-30T12:06:11Z</time>
      </trkpt>
      <trkpt lat="44.62484" lon="4.45197">
        <ele>236.22</ele>
        <time>2021-05-30T12:06:24Z</time>
      </trkpt>
      <trkpt lat="44.62485" lon="4.45195">
        <ele>235.08</ele>
        <time>2021-05-30T12:06:28Z</time>
      </trkpt>
      <trkpt lat="44.62487" lon="4.4519">
        <ele>235.08</ele>
        <time>2021-05-30T12:06:33Z</time>
      </trkpt>
      <trkpt lat="44.62488" lon="4.45184">
        <ele>235.09</ele>
        <time>2021-05-30T12:06:41Z</time>
      </trkpt>
      <trkpt lat="44.62488" lon="4.45171">
        <ele>235.08</ele>
        <time>2021-05-30T12:06:59Z</time>
      </trkpt>
      <trkpt lat="44.62484" lon="4.45162">
        <ele>234.2</ele>
        <time>2021-05-30T12:07:17Z</time>
      </trkpt>
      <trkpt lat="44.62484" lon="4.4516">
        <ele>236.6</ele>
        <time>2021-05-30T12:07:24Z</time>
      </trkpt>
      <trkpt lat="44.62482" lon="4.45156">
        <ele>236.56</ele>
        <time>2021-05-30T12:07:45Z</time>
      </trkpt>
      <trkpt lat="44.62475" lon="4.45145">
        <ele>236.56</ele>
        <time>2021-05-30T12:08:04Z</time>
      </trkpt>
      <trkpt lat="44.62464" lon="4.45138">
        <ele>236.55</ele>
        <time>2021-05-30T12:08:22Z</time>
      </trkpt>
      <trkpt lat="44.62456" lon="4.45133">
        <ele>236.5</ele>
        <time>2021-05-30T12:08:38Z</time>
      </trkpt>
      <trkpt lat="44.62446" lon="4.4513">
        <ele>236.4</ele>
        <time>2021-05-30T12:08:56Z</time>
      </trkpt>
      <trkpt lat="44.62443" lon="4.4513">
        <ele>234.06</ele>
        <time>2021-05-30T12:08:59Z</time>
      </trkpt>
      <trkpt lat="44.6243" lon="4.45129">
        <ele>234.03</ele>
        <time>2021-05-30T12:09:15Z</time>
      </trkpt>
      <trkpt lat="44.62414" lon="4.45131">
        <ele>233.03</ele>
        <time>2021-05-30T12:09:30Z</time>
      </trkpt>
      <trkpt lat="44.62403" lon="4.45131">
        <ele>232.21</ele>
        <time>2021-05-30T12:09:44Z</time>
      </trkpt>
      <trkpt lat="44.62394" lon="4.45132">
        <ele>232.17</ele>
        <time>2021-05-30T12:09:58Z</time>
      </trkpt>
      <trkpt lat="44.62391" lon="4.45132">
        <ele>232.18</ele>
        <time>2021-05-30T12:10:01Z</time>
      </trkpt>
      <trkpt lat="44.62379" lon="4.45129">
        <ele>232.03</ele>
        <time>2021-05-30T12:10:18Z</time>
      </trkpt>
      <trkpt lat="44.62368" lon="4.45121">
        <ele>231.92</ele>
        <time>2021-05-30T12:10:39Z</time>
      </trkpt>
      <trkpt lat="44.62362" lon="4.45112">
        <ele>231.86</ele>
        <time>2021-05-30T12:10:59Z</time>
      </trkpt>
      <trkpt lat="44.62361" lon="4.45104">
        <ele>231.02</ele>
        <time>2021-05-30T12:11:05Z</time>
      </trkpt>
      <trkpt lat="44.62356" lon="4.45077">
        <ele>231</ele>
        <time>2021-05-30T12:11:23Z</time>
      </trkpt>
      <trkpt lat="44.62356" lon="4.45065">
        <ele>230.99</ele>
        <time>2021-05-30T12:11:29Z</time>
      </trkpt>
      <trkpt lat="44.62353" lon="4.45056">
        <ele>231.02</ele>
        <time>2021-05-30T12:11:44Z</time>
      </trkpt>
      <trkpt lat="44.62343" lon="4.4504">
        <ele>230.18</ele>
        <time>2021-05-30T12:12:01Z</time>
      </trkpt>
      <trkpt lat="44.62331" lon="4.45028">
        <ele>230.23</ele>
        <time>2021-05-30T12:12:20Z</time>
      </trkpt>
      <trkpt lat="44.62328" lon="4.45026">
        <ele>230.23</ele>
        <time>2021-05-30T12:12:23Z</time>
      </trkpt>
      <trkpt lat="44.62316" lon="4.45016">
        <ele>230.24</ele>
        <time>2021-05-30T12:12:38Z</time>
      </trkpt>
      <trkpt lat="44.62301" lon="4.45011">
        <ele>229.47</ele>
        <time>2021-05-30T12:12:52Z</time>
      </trkpt>
      <trkpt lat="44.62288" lon="4.45012">
        <ele>229.48</ele>
        <time>2021-05-30T12:13:04Z</time>
      </trkpt>
      <trkpt lat="44.62286" lon="4.45014">
        <ele>229.48</ele>
        <time>2021-05-30T12:13:07Z</time>
      </trkpt>
      <trkpt lat="44.62283" lon="4.45019">
        <ele>229.48</ele>
        <time>2021-05-30T12:13:12Z</time>
      </trkpt>
      <trkpt lat="44.62275" lon="4.45034">
        <ele>228.56</ele>
        <time>2021-05-30T12:13:26Z</time>
      </trkpt>
      <trkpt lat="44.62274" lon="4.45035">
        <ele>227.8</ele>
        <time>2021-05-30T12:13:27Z</time>
      </trkpt>
      <trkpt lat="44.62266" lon="4.45056">
        <ele>227.76</ele>
        <time>2021-05-30T12:13:47Z</time>
      </trkpt>
      <trkpt lat="44.62266" lon="4.45058">
        <ele>227.68</ele>
        <time>2021-05-30T12:14:09Z</time>
      </trkpt>
      <trkpt lat="44.62263" lon="4.45059">
        <ele>227.62</ele>
        <time>2021-05-30T12:14:26Z</time>
      </trkpt>
      <trkpt lat="44.62261" lon="4.45071">
        <ele>227.57</ele>
        <time>2021-05-30T12:14:36Z</time>
      </trkpt>
      <trkpt lat="44.62258" lon="4.45085">
        <ele>227.55</ele>
        <time>2021-05-30T12:14:48Z</time>
      </trkpt>
      <trkpt lat="44.62252" lon="4.45091">
        <ele>227.51</ele>
        <time>2021-05-30T12:14:57Z</time>
      </trkpt>
      <trkpt lat="44.62239" lon="4.45099">
        <ele>226.67</ele>
        <time>2021-05-30T12:15:14Z</time>
      </trkpt>
      <trkpt lat="44.62237" lon="4.45098">
        <ele>226.66</ele>
        <time>2021-05-30T12:15:18Z</time>
      </trkpt>
      <trkpt lat="44.62233" lon="4.45098">
        <ele>225.82</ele>
        <time>2021-05-30T12:15:22Z</time>
      </trkpt>
      <trkpt lat="44.62229" lon="4.45095">
        <ele>225.8</ele>
        <time>2021-05-30T12:15:34Z</time>
      </trkpt>
      <trkpt lat="44.62226" lon="4.45095">
        <ele>225.77</ele>
        <time>2021-05-30T12:15:55Z</time>
      </trkpt>
      <trkpt lat="44.62225" lon="4.45098">
        <ele>225.74</ele>
        <time>2021-05-30T12:16:18Z</time>
      </trkpt>
      <trkpt lat="44.62224" lon="4.45103">
        <ele>225.74</ele>
        <time>2021-05-30T12:16:42Z</time>
      </trkpt>
      <trkpt lat="44.62215" lon="4.451">
        <ele>225.75</ele>
        <time>2021-05-30T12:16:59Z</time>
      </trkpt>
      <trkpt lat="44.62198" lon="4.45098">
        <ele>225.66</ele>
        <time>2021-05-30T12:17:18Z</time>
      </trkpt>
      <trkpt lat="44.62192" lon="4.4509">
        <ele>225.75</ele>
        <time>2021-05-30T12:17:27Z</time>
      </trkpt>
      <trkpt lat="44.6219" lon="4.45078">
        <ele>225.79</ele>
        <time>2021-05-30T12:17:35Z</time>
      </trkpt>
      <trkpt lat="44.62189" lon="4.45072">
        <ele>225.79</ele>
        <time>2021-05-30T12:17:39Z</time>
      </trkpt>
      <trkpt lat="44.62189" lon="4.45068">
        <ele>225.8</ele>
        <time>2021-05-30T12:17:41Z</time>
      </trkpt>
      <trkpt lat="44.62185" lon="4.45051">
        <ele>225.82</ele>
        <time>2021-05-30T12:17:55Z</time>
      </trkpt>
      <trkpt lat="44.62176" lon="4.45034">
        <ele>224.94</ele>
        <time>2021-05-30T12:18:10Z</time>
      </trkpt>
      <trkpt lat="44.62168" lon="4.45028">
        <ele>224.96</ele>
        <time>2021-05-30T12:18:17Z</time>
      </trkpt>
      <trkpt lat="44.62157" lon="4.45028">
        <ele>224.99</ele>
        <time>2021-05-30T12:18:30Z</time>
      </trkpt>
      <trkpt lat="44.62154" lon="4.45029">
        <ele>225.01</ele>
        <time>2021-05-30T12:18:34Z</time>
      </trkpt>
      <trkpt lat="44.6214" lon="4.45018">
        <ele>225.07</ele>
        <time>2021-05-30T12:18:52Z</time>
      </trkpt>
      <trkpt lat="44.62134" lon="4.45002">
        <ele>224.07</ele>
        <time>2021-05-30T12:19:10Z</time>
      </trkpt>
      <trkpt lat="44.62134" lon="4.44997">
        <ele>224.08</ele>
        <time>2021-05-30T12:19:15Z</time>
      </trkpt>
      <trkpt lat="44.62132" lon="4.44983">
        <ele>223.36</ele>
        <time>2021-05-30T12:19:33Z</time>
      </trkpt>
      <trkpt lat="44.62132" lon="4.44969">
        <ele>223.4</ele>
        <time>2021-05-30T12:19:49Z</time>
      </trkpt>
      <trkpt lat="44.62139" lon="4.44958">
        <ele>223.42</ele>
        <time>2021-05-30T12:20:05Z</time>
      </trkpt>
      <trkpt lat="44.62151" lon="4.44962">
        <ele>223.41</ele>
        <time>2021-05-30T12:20:23Z</time>
      </trkpt>
      <trkpt lat="44.62154" lon="4.44957">
        <ele>223.41</ele>
        <time>2021-05-30T12:20:30Z</time>
      </trkpt>
      <trkpt lat="44.62172" lon="4.44956">
        <ele>222.66</ele>
        <time>2021-05-30T12:20:53Z</time>
      </trkpt>
      <trkpt lat="44.62185" lon="4.44957">
        <ele>222.66</ele>
        <time>2021-05-30T12:21:12Z</time>
      </trkpt>
      <trkpt lat="44.62196" lon="4.44955">
        <ele>221.86</ele>
        <time>2021-05-30T12:21:23Z</time>
      </trkpt>
      <trkpt lat="44.62198" lon="4.44955">
        <ele>221.9</ele>
        <time>2021-05-30T12:21:39Z</time>
      </trkpt>
      <trkpt lat="44.62204" lon="4.44956">
        <ele>221.95</ele>
        <time>2021-05-30T12:22:00Z</time>
      </trkpt>
      <trkpt lat="44.62213" lon="4.44952">
        <ele>221.99</ele>
        <time>2021-05-30T12:22:09Z</time>
      </trkpt>
      <trkpt lat="44.62215" lon="4.44951">
        <ele>222</ele>
        <time>2021-05-30T12:22:11Z</time>
      </trkpt>
      <trkpt lat="44.62217" lon="4.44951">
        <ele>222.03</ele>
        <time>2021-05-30T12:22:14Z</time>
      </trkpt>
      <trkpt lat="44.62228" lon="4.44951">
        <ele>221.27</ele>
        <time>2021-05-30T12:22:26Z</time>
      </trkpt>
      <trkpt lat="44.62234" lon="4.4495">
        <ele>221.33</ele>
        <time>2021-05-30T12:22:46Z</time>
      </trkpt>
      <trkpt lat="44.62236" lon="4.44947">
        <ele>221.42</ele>
        <time>2021-05-30T12:23:11Z</time>
      </trkpt>
      <trkpt lat="44.62239" lon="4.44944">
        <ele>224.14</ele>
        <time>2021-05-30T12:24:14Z</time>
      </trkpt>
      <trkpt lat="44.62248" lon="4.44933">
        <ele>226.83</ele>
        <time>2021-05-30T12:24:33Z</time>
      </trkpt>
      <trkpt lat="44.62249" lon="4.44925">
        <ele>228.34</ele>
        <time>2021-05-30T12:24:51Z</time>
      </trkpt>
      <trkpt lat="44.6225" lon="4.44924">
        <ele>230.28</ele>
        <time>2021-05-30T12:24:57Z</time>
      </trkpt>
      <trkpt lat="44.62251" lon="4.4492">
        <ele>230.26</ele>
        <time>2021-05-30T12:25:05Z</time>
      </trkpt>
      <trkpt lat="44.62254" lon="4.44909">
        <ele>231.1</ele>
        <time>2021-05-30T12:25:26Z</time>
      </trkpt>
      <trkpt lat="44.62255" lon="4.44904">
        <ele>231.1</ele>
        <time>2021-05-30T12:25:40Z</time>
      </trkpt>
      <trkpt lat="44.62256" lon="4.44891">
        <ele>228.78</ele>
        <time>2021-05-30T12:25:51Z</time>
      </trkpt>
      <trkpt lat="44.62255" lon="4.44896">
        <ele>230.93</ele>
        <time>2021-05-30T12:30:54Z</time>
      </trkpt>
      <trkpt lat="44.6225" lon="4.44909">
        <ele>231.75</ele>
        <time>2021-05-30T12:31:08Z</time>
      </trkpt>
      <trkpt lat="44.62249" lon="4.44913">
        <ele>231.75</ele>
        <time>2021-05-30T12:31:16Z</time>
      </trkpt>
      <trkpt lat="44.62247" lon="4.44919">
        <ele>231.74</ele>
        <time>2021-05-30T12:31:20Z</time>
      </trkpt>
      <trkpt lat="44.62245" lon="4.44921">
        <ele>231.75</ele>
        <time>2021-05-30T12:31:22Z</time>
      </trkpt>
      <trkpt lat="44.62234" lon="4.44924">
        <ele>232.62</ele>
        <time>2021-05-30T12:31:37Z</time>
      </trkpt>
      <trkpt lat="44.62226" lon="4.44922">
        <ele>233.44</ele>
        <time>2021-05-30T12:31:49Z</time>
      </trkpt>
      <trkpt lat="44.62218" lon="4.44915">
        <ele>237.39</ele>
        <time>2021-05-30T12:32:04Z</time>
      </trkpt>
      <trkpt lat="44.62212" lon="4.44914">
        <ele>239.72</ele>
        <time>2021-05-30T12:32:21Z</time>
      </trkpt>
      <trkpt lat="44.62199" lon="4.4491">
        <ele>241.36</ele>
        <time>2021-05-30T12:32:40Z</time>
      </trkpt>
      <trkpt lat="44.62192" lon="4.44908">
        <ele>242.93</ele>
        <time>2021-05-30T12:32:55Z</time>
      </trkpt>
      <trkpt lat="44.62187" lon="4.44906">
        <ele>245.52</ele>
        <time>2021-05-30T12:33:09Z</time>
      </trkpt>
      <trkpt lat="44.62189" lon="4.44908">
        <ele>245.52</ele>
        <time>2021-05-30T12:33:33Z</time>
      </trkpt>
      <trkpt lat="44.62182" lon="4.44904">
        <ele>245.52</ele>
        <time>2021-05-30T12:33:48Z</time>
      </trkpt>
      <trkpt lat="44.62174" lon="4.44896">
        <ele>248.51</ele>
        <time>2021-05-30T12:34:03Z</time>
      </trkpt>
      <trkpt lat="44.62172" lon="4.44895">
        <ele>249.33</ele>
        <time>2021-05-30T12:34:07Z</time>
      </trkpt>
      <trkpt lat="44.62168" lon="4.44894">
        <ele>250.1</ele>
        <time>2021-05-30T12:34:11Z</time>
      </trkpt>
      <trkpt lat="44.62157" lon="4.44892">
        <ele>252.03</ele>
        <time>2021-05-30T12:34:25Z</time>
      </trkpt>
      <trkpt lat="44.62148" lon="4.4489">
        <ele>255.16</ele>
        <time>2021-05-30T12:34:40Z</time>
      </trkpt>
      <trkpt lat="44.62142" lon="4.44884">
        <ele>256.87</ele>
        <time>2021-05-30T12:34:56Z</time>
      </trkpt>
      <trkpt lat="44.62148" lon="4.44872">
        <ele>258.69</ele>
        <time>2021-05-30T12:35:11Z</time>
      </trkpt>
      <trkpt lat="44.62149" lon="4.44877">
        <ele>259.4</ele>
        <time>2021-05-30T12:35:28Z</time>
      </trkpt>
      <trkpt lat="44.62148" lon="4.44878">
        <ele>259.4</ele>
        <time>2021-05-30T12:35:45Z</time>
      </trkpt>
      <trkpt lat="44.62143" lon="4.44881">
        <ele>259.46</ele>
        <time>2021-05-30T12:35:57Z</time>
      </trkpt>
      <trkpt lat="44.62141" lon="4.44877">
        <ele>261.3</ele>
        <time>2021-05-30T12:36:11Z</time>
      </trkpt>
      <trkpt lat="44.62134" lon="4.44876">
        <ele>262.98</ele>
        <time>2021-05-30T12:36:22Z</time>
      </trkpt>
      <trkpt lat="44.62123" lon="4.4488">
        <ele>263.88</ele>
        <time>2021-05-30T12:36:38Z</time>
      </trkpt>
      <trkpt lat="44.62113" lon="4.44881">
        <ele>265.54</ele>
        <time>2021-05-30T12:36:52Z</time>
      </trkpt>
      <trkpt lat="44.62112" lon="4.44882">
        <ele>262.03</ele>
        <time>2021-05-30T12:36:55Z</time>
      </trkpt>
      <trkpt lat="44.62111" lon="4.44882">
        <ele>267.09</ele>
        <time>2021-05-30T12:36:56Z</time>
      </trkpt>
      <trkpt lat="44.62098" lon="4.44883">
        <ele>269.41</ele>
        <time>2021-05-30T12:37:14Z</time>
      </trkpt>
      <trkpt lat="44.62085" lon="4.44889">
        <ele>271.52</ele>
        <time>2021-05-30T12:37:31Z</time>
      </trkpt>
      <trkpt lat="44.62078" lon="4.44892">
        <ele>273.6</ele>
        <time>2021-05-30T12:37:41Z</time>
      </trkpt>
      <trkpt lat="44.62065" lon="4.449">
        <ele>275.98</ele>
        <time>2021-05-30T12:37:59Z</time>
      </trkpt>
      <trkpt lat="44.62056" lon="4.44909">
        <ele>277.6</ele>
        <time>2021-05-30T12:38:16Z</time>
      </trkpt>
      <trkpt lat="44.62042" lon="4.44921">
        <ele>280.32</ele>
        <time>2021-05-30T12:38:38Z</time>
      </trkpt>
      <trkpt lat="44.62032" lon="4.4494">
        <ele>282.83</ele>
        <time>2021-05-30T12:38:59Z</time>
      </trkpt>
      <trkpt lat="44.6203" lon="4.44942">
        <ele>285.51</ele>
        <time>2021-05-30T12:39:04Z</time>
      </trkpt>
      <trkpt lat="44.62029" lon="4.44944">
        <ele>277.27</ele>
        <time>2021-05-30T12:39:06Z</time>
      </trkpt>
      <trkpt lat="44.62028" lon="4.44945">
        <ele>285.59</ele>
        <time>2021-05-30T12:39:07Z</time>
      </trkpt>
      <trkpt lat="44.6203" lon="4.44949">
        <ele>285.56</ele>
        <time>2021-05-30T12:39:28Z</time>
      </trkpt>
      <trkpt lat="44.62027" lon="4.44954">
        <ele>285.59</ele>
        <time>2021-05-30T12:39:36Z</time>
      </trkpt>
      <trkpt lat="44.62016" lon="4.44969">
        <ele>288.27</ele>
        <time>2021-05-30T12:39:54Z</time>
      </trkpt>
      <trkpt lat="44.62007" lon="4.44983">
        <ele>291.7</ele>
        <time>2021-05-30T12:40:13Z</time>
      </trkpt>
      <trkpt lat="44.62005" lon="4.45003">
        <ele>292.43</ele>
        <time>2021-05-30T12:40:31Z</time>
      </trkpt>
      <trkpt lat="44.62001" lon="4.45023">
        <ele>294.15</ele>
        <time>2021-05-30T12:40:50Z</time>
      </trkpt>
      <trkpt lat="44.61997" lon="4.45042">
        <ele>296.45</ele>
        <time>2021-05-30T12:41:09Z</time>
      </trkpt>
      <trkpt lat="44.61992" lon="4.45063">
        <ele>299.05</ele>
        <time>2021-05-30T12:41:26Z</time>
      </trkpt>
      <trkpt lat="44.61989" lon="4.45076">
        <ele>299.95</ele>
        <time>2021-05-30T12:41:44Z</time>
      </trkpt>
      <trkpt lat="44.61988" lon="4.45093">
        <ele>301.95</ele>
        <time>2021-05-30T12:42:01Z</time>
      </trkpt>
      <trkpt lat="44.61987" lon="4.45108">
        <ele>305.1</ele>
        <time>2021-05-30T12:42:15Z</time>
      </trkpt>
      <trkpt lat="44.61988" lon="4.45116">
        <ele>305.11</ele>
        <time>2021-05-30T12:42:21Z</time>
      </trkpt>
      <trkpt lat="44.61991" lon="4.45123">
        <ele>305.97</ele>
        <time>2021-05-30T12:42:35Z</time>
      </trkpt>
      <trkpt lat="44.61991" lon="4.45125">
        <ele>306.01</ele>
        <time>2021-05-30T12:42:56Z</time>
      </trkpt>
      <trkpt lat="44.61993" lon="4.45141">
        <ele>307.72</ele>
        <time>2021-05-30T12:43:11Z</time>
      </trkpt>
      <trkpt lat="44.61995" lon="4.45156">
        <ele>309.57</ele>
        <time>2021-05-30T12:43:27Z</time>
      </trkpt>
      <trkpt lat="44.61995" lon="4.45167">
        <ele>312.49</ele>
        <time>2021-05-30T12:43:42Z</time>
      </trkpt>
      <trkpt lat="44.61994" lon="4.45166">
        <ele>314.1</ele>
        <time>2021-05-30T12:43:56Z</time>
      </trkpt>
      <trkpt lat="44.61994" lon="4.45166">
        <ele>309.13</ele>
        <time>2021-05-30T12:43:57Z</time>
      </trkpt>
      <trkpt lat="44.61994" lon="4.45166">
        <ele>309.13</ele>
        <time>2021-05-30T12:43:58Z</time>
      </trkpt>
      <trkpt lat="44.61994" lon="4.45165">
        <ele>312.27</ele>
        <time>2021-05-30T12:44:02Z</time>
      </trkpt>
      <trkpt lat="44.61994" lon="4.45165">
        <ele>316</ele>
        <time>2021-05-30T12:44:03Z</time>
      </trkpt>
      <trkpt lat="44.61994" lon="4.45165">
        <ele>316</ele>
        <time>2021-05-30T12:44:04Z</time>
      </trkpt>
      <trkpt lat="44.61994" lon="4.45165">
        <ele>311.32</ele>
        <time>2021-05-30T12:44:05Z</time>
      </trkpt>
      <trkpt lat="44.61994" lon="4.45165">
        <ele>315.34</ele>
        <time>2021-05-30T12:44:06Z</time>
      </trkpt>
      <trkpt lat="44.61994" lon="4.45165">
        <ele>316.05</ele>
        <time>2021-05-30T12:44:08Z</time>
      </trkpt>
      <trkpt lat="44.61994" lon="4.45165">
        <ele>309.28</ele>
        <time>2021-05-30T12:44:10Z</time>
      </trkpt>
      <trkpt lat="44.61995" lon="4.45165">
        <ele>309.28</ele>
        <time>2021-05-30T12:44:11Z</time>
      </trkpt>
      <trkpt lat="44.61995" lon="4.45164">
        <ele>314.77</ele>
        <time>2021-05-30T12:44:14Z</time>
      </trkpt>
      <trkpt lat="44.61994" lon="4.45164">
        <ele>316.77</ele>
        <time>2021-05-30T12:44:16Z</time>
      </trkpt>
      <trkpt lat="44.61994" lon="4.45164">
        <ele>313.74</ele>
        <time>2021-05-30T12:44:17Z</time>
      </trkpt>
      <trkpt lat="44.61994" lon="4.45164">
        <ele>313.74</ele>
        <time>2021-05-30T12:44:18Z</time>
      </trkpt>
      <trkpt lat="44.61994" lon="4.45164">
        <ele>310.63</ele>
        <time>2021-05-30T12:44:20Z</time>
      </trkpt>
      <trkpt lat="44.61994" lon="4.45164">
        <ele>310.63</ele>
        <time>2021-05-30T12:44:21Z</time>
      </trkpt>
      <trkpt lat="44.61994" lon="4.45164">
        <ele>313.12</ele>
        <time>2021-05-30T12:44:23Z</time>
      </trkpt>
      <trkpt lat="44.61994" lon="4.45164">
        <ele>315.13</ele>
        <time>2021-05-30T12:44:27Z</time>
      </trkpt>
      <trkpt lat="44.61994" lon="4.45164">
        <ele>307.89</ele>
        <time>2021-05-30T12:44:29Z</time>
      </trkpt>
      <trkpt lat="44.61994" lon="4.45164">
        <ele>307.9</ele>
        <time>2021-05-30T12:44:30Z</time>
      </trkpt>
      <trkpt lat="44.61994" lon="4.45164">
        <ele>312.02</ele>
        <time>2021-05-30T12:44:33Z</time>
      </trkpt>
      <trkpt lat="44.61994" lon="4.45165">
        <ele>313.25</ele>
        <time>2021-05-30T12:44:35Z</time>
      </trkpt>
      <trkpt lat="44.61994" lon="4.45165">
        <ele>317.84</ele>
        <time>2021-05-30T12:44:41Z</time>
      </trkpt>
      <trkpt lat="44.61994" lon="4.45165">
        <ele>317.84</ele>
        <time>2021-05-30T12:44:42Z</time>
      </trkpt>
      <trkpt lat="44.61994" lon="4.45165">
        <ele>314.02</ele>
        <time>2021-05-30T12:44:43Z</time>
      </trkpt>
      <trkpt lat="44.61994" lon="4.45165">
        <ele>313.1</ele>
        <time>2021-05-30T12:44:45Z</time>
      </trkpt>
      <trkpt lat="44.61994" lon="4.45165">
        <ele>310.86</ele>
        <time>2021-05-30T12:44:51Z</time>
      </trkpt>
      <trkpt lat="44.61994" lon="4.45165">
        <ele>314.73</ele>
        <time>2021-05-30T12:44:54Z</time>
      </trkpt>
      <trkpt lat="44.61994" lon="4.45165">
        <ele>314.73</ele>
        <time>2021-05-30T12:44:55Z</time>
      </trkpt>
      <trkpt lat="44.61993" lon="4.45165">
        <ele>312.44</ele>
        <time>2021-05-30T12:44:59Z</time>
      </trkpt>
      <trkpt lat="44.61994" lon="4.45166">
        <ele>307.33</ele>
        <time>2021-05-30T12:45:03Z</time>
      </trkpt>
      <trkpt lat="44.61994" lon="4.45166">
        <ele>307.34</ele>
        <time>2021-05-30T12:45:04Z</time>
      </trkpt>
      <trkpt lat="44.61993" lon="4.45165">
        <ele>315.05</ele>
        <time>2021-05-30T12:45:05Z</time>
      </trkpt>
      <trkpt lat="44.61993" lon="4.45166">
        <ele>319.19</ele>
        <time>2021-05-30T12:45:06Z</time>
      </trkpt>
      <trkpt lat="44.61993" lon="4.45165">
        <ele>319.05</ele>
        <time>2021-05-30T12:45:07Z</time>
      </trkpt>
      <trkpt lat="44.61992" lon="4.45165">
        <ele>312.25</ele>
        <time>2021-05-30T12:45:08Z</time>
      </trkpt>
      <trkpt lat="44.61992" lon="4.45164">
        <ele>312.33</ele>
        <time>2021-05-30T12:45:09Z</time>
      </trkpt>
      <trkpt lat="44.61991" lon="4.45162">
        <ele>314.7</ele>
        <time>2021-05-30T12:45:11Z</time>
      </trkpt>
      <trkpt lat="44.6199" lon="4.4516">
        <ele>314.73</ele>
        <time>2021-05-30T12:45:13Z</time>
      </trkpt>
      <trkpt lat="44.61986" lon="4.45157">
        <ele>312.03</ele>
        <time>2021-05-30T12:45:18Z</time>
      </trkpt>
      <trkpt lat="44.61987" lon="4.45155">
        <ele>310.49</ele>
        <time>2021-05-30T12:45:23Z</time>
      </trkpt>
      <trkpt lat="44.61987" lon="4.45148">
        <ele>310.48</ele>
        <time>2021-05-30T12:45:28Z</time>
      </trkpt>
      <trkpt lat="44.61986" lon="4.45145">
        <ele>313.64</ele>
        <time>2021-05-30T12:45:30Z</time>
      </trkpt>
      <trkpt lat="44.61985" lon="4.45143">
        <ele>313.61</ele>
        <time>2021-05-30T12:45:31Z</time>
      </trkpt>
      <trkpt lat="44.61985" lon="4.4514">
        <ele>308.03</ele>
        <time>2021-05-30T12:45:34Z</time>
      </trkpt>
      <trkpt lat="44.61984" lon="4.45138">
        <ele>312.13</ele>
        <time>2021-05-30T12:45:35Z</time>
      </trkpt>
      <trkpt lat="44.61983" lon="4.45135">
        <ele>307.83</ele>
        <time>2021-05-30T12:45:38Z</time>
      </trkpt>
      <trkpt lat="44.61982" lon="4.45134">
        <ele>311.69</ele>
        <time>2021-05-30T12:45:39Z</time>
      </trkpt>
      <trkpt lat="44.61981" lon="4.45122">
        <ele>308.6</ele>
        <time>2021-05-30T12:45:49Z</time>
      </trkpt>
      <trkpt lat="44.6198" lon="4.4512">
        <ele>308.65</ele>
        <time>2021-05-30T12:45:50Z</time>
      </trkpt>
      <trkpt lat="44.6198" lon="4.45119">
        <ele>311.72</ele>
        <time>2021-05-30T12:45:51Z</time>
      </trkpt>
      <trkpt lat="44.6198" lon="4.45118">
        <ele>311.73</ele>
        <time>2021-05-30T12:45:52Z</time>
      </trkpt>
      <trkpt lat="44.61978" lon="4.45111">
        <ele>311.74</ele>
        <time>2021-05-30T12:45:57Z</time>
      </trkpt>
      <trkpt lat="44.61975" lon="4.45092">
        <ele>311.76</ele>
        <time>2021-05-30T12:46:10Z</time>
      </trkpt>
      <trkpt lat="44.61975" lon="4.45089">
        <ele>309.4</ele>
        <time>2021-05-30T12:46:12Z</time>
      </trkpt>
      <trkpt lat="44.61973" lon="4.45067">
        <ele>308.58</ele>
        <time>2021-05-30T12:46:27Z</time>
      </trkpt>
      <trkpt lat="44.61974" lon="4.4504">
        <ele>307.86</ele>
        <time>2021-05-30T12:46:44Z</time>
      </trkpt>
      <trkpt lat="44.61977" lon="4.45018">
        <ele>307.07</ele>
        <time>2021-05-30T12:47:00Z</time>
      </trkpt>
      <trkpt lat="44.61978" lon="4.45004">
        <ele>306.31</ele>
        <time>2021-05-30T12:47:09Z</time>
      </trkpt>
      <trkpt lat="44.61984" lon="4.44984">
        <ele>306.32</ele>
        <time>2021-05-30T12:47:24Z</time>
      </trkpt>
      <trkpt lat="44.61984" lon="4.44983">
        <ele>306.32</ele>
        <time>2021-05-30T12:47:25Z</time>
      </trkpt>
      <trkpt lat="44.61984" lon="4.44979">
        <ele>305.35</ele>
        <time>2021-05-30T12:47:27Z</time>
      </trkpt>
      <trkpt lat="44.61989" lon="4.44963">
        <ele>305.38</ele>
        <time>2021-05-30T12:47:38Z</time>
      </trkpt>
      <trkpt lat="44.61992" lon="4.44958">
        <ele>304.52</ele>
        <time>2021-05-30T12:47:42Z</time>
      </trkpt>
      <trkpt lat="44.61994" lon="4.44955">
        <ele>304.54</ele>
        <time>2021-05-30T12:47:45Z</time>
      </trkpt>
      <trkpt lat="44.61997" lon="4.44949">
        <ele>304.53</ele>
        <time>2021-05-30T12:47:50Z</time>
      </trkpt>
      <trkpt lat="44.61999" lon="4.44938">
        <ele>304.55</ele>
        <time>2021-05-30T12:47:56Z</time>
      </trkpt>
      <trkpt lat="44.62002" lon="4.44936">
        <ele>304.54</ele>
        <time>2021-05-30T12:47:58Z</time>
      </trkpt>
      <trkpt lat="44.62012" lon="4.44911">
        <ele>303.62</ele>
        <time>2021-05-30T12:48:15Z</time>
      </trkpt>
      <trkpt lat="44.62027" lon="4.44886">
        <ele>302.75</ele>
        <time>2021-05-30T12:48:34Z</time>
      </trkpt>
      <trkpt lat="44.62032" lon="4.44881">
        <ele>301.97</ele>
        <time>2021-05-30T12:48:39Z</time>
      </trkpt>
      <trkpt lat="44.6205" lon="4.44856">
        <ele>301.04</ele>
        <time>2021-05-30T12:49:01Z</time>
      </trkpt>
      <trkpt lat="44.62057" lon="4.44844">
        <ele>300.18</ele>
        <time>2021-05-30T12:49:11Z</time>
      </trkpt>
      <trkpt lat="44.62057" lon="4.44822">
        <ele>299.24</ele>
        <time>2021-05-30T12:49:26Z</time>
      </trkpt>
      <trkpt lat="44.62055" lon="4.4482">
        <ele>299.25</ele>
        <time>2021-05-30T12:49:27Z</time>
      </trkpt>
      <trkpt lat="44.62054" lon="4.44818">
        <ele>299.25</ele>
        <time>2021-05-30T12:49:28Z</time>
      </trkpt>
      <trkpt lat="44.62054" lon="4.44816">
        <ele>299.26</ele>
        <time>2021-05-30T12:49:29Z</time>
      </trkpt>
      <trkpt lat="44.62053" lon="4.44815">
        <ele>299.26</ele>
        <time>2021-05-30T12:49:30Z</time>
      </trkpt>
      <trkpt lat="44.6205" lon="4.44798">
        <ele>298.47</ele>
        <time>2021-05-30T12:49:42Z</time>
      </trkpt>
      <trkpt lat="44.62049" lon="4.44797">
        <ele>298.47</ele>
        <time>2021-05-30T12:49:43Z</time>
      </trkpt>
      <trkpt lat="44.62048" lon="4.44795">
        <ele>298.48</ele>
        <time>2021-05-30T12:49:45Z</time>
      </trkpt>
      <trkpt lat="44.62041" lon="4.44771">
        <ele>297.59</ele>
        <time>2021-05-30T12:49:59Z</time>
      </trkpt>
      <trkpt lat="44.62038" lon="4.44761">
        <ele>296.83</ele>
        <time>2021-05-30T12:50:06Z</time>
      </trkpt>
      <trkpt lat="44.62037" lon="4.4476">
        <ele>296.84</ele>
        <time>2021-05-30T12:50:07Z</time>
      </trkpt>
      <trkpt lat="44.62036" lon="4.44758">
        <ele>296.84</ele>
        <time>2021-05-30T12:50:08Z</time>
      </trkpt>
      <trkpt lat="44.62027" lon="4.44747">
        <ele>296.08</ele>
        <time>2021-05-30T12:50:19Z</time>
      </trkpt>
      <trkpt lat="44.62014" lon="4.44736">
        <ele>295.3</ele>
        <time>2021-05-30T12:50:33Z</time>
      </trkpt>
      <trkpt lat="44.62002" lon="4.44722">
        <ele>294.59</ele>
        <time>2021-05-30T12:50:46Z</time>
      </trkpt>
      <trkpt lat="44.62" lon="4.44718">
        <ele>293.78</ele>
        <time>2021-05-30T12:50:49Z</time>
      </trkpt>
      <trkpt lat="44.61999" lon="4.44717">
        <ele>293.78</ele>
        <time>2021-05-30T12:50:50Z</time>
      </trkpt>
      <trkpt lat="44.61998" lon="4.44716">
        <ele>293.78</ele>
        <time>2021-05-30T12:50:51Z</time>
      </trkpt>
      <trkpt lat="44.6199" lon="4.44703">
        <ele>293.02</ele>
        <time>2021-05-30T12:51:03Z</time>
      </trkpt>
      <trkpt lat="44.61984" lon="4.44686">
        <ele>292.29</ele>
        <time>2021-05-30T12:51:17Z</time>
      </trkpt>
      <trkpt lat="44.61982" lon="4.44683">
        <ele>291.6</ele>
        <time>2021-05-30T12:51:23Z</time>
      </trkpt>
      <trkpt lat="44.61982" lon="4.44681">
        <ele>291.6</ele>
        <time>2021-05-30T12:51:24Z</time>
      </trkpt>
      <trkpt lat="44.61981" lon="4.4468">
        <ele>291.6</ele>
        <time>2021-05-30T12:51:25Z</time>
      </trkpt>
      <trkpt lat="44.61973" lon="4.44666">
        <ele>290.89</ele>
        <time>2021-05-30T12:51:37Z</time>
      </trkpt>
      <trkpt lat="44.61965" lon="4.4465">
        <ele>290.14</ele>
        <time>2021-05-30T12:51:50Z</time>
      </trkpt>
      <trkpt lat="44.61961" lon="4.44643">
        <ele>289.36</ele>
        <time>2021-05-30T12:51:56Z</time>
      </trkpt>
      <trkpt lat="44.61959" lon="4.44642">
        <ele>289.36</ele>
        <time>2021-05-30T12:51:57Z</time>
      </trkpt>
      <trkpt lat="44.61958" lon="4.4464">
        <ele>289.37</ele>
        <time>2021-05-30T12:51:58Z</time>
      </trkpt>
      <trkpt lat="44.61955" lon="4.44639">
        <ele>289.37</ele>
        <time>2021-05-30T12:52:02Z</time>
      </trkpt>
      <trkpt lat="44.61953" lon="4.44638">
        <ele>289.37</ele>
        <time>2021-05-30T12:52:03Z</time>
      </trkpt>
      <trkpt lat="44.61952" lon="4.44637">
        <ele>288.59</ele>
        <time>2021-05-30T12:52:04Z</time>
      </trkpt>
      <trkpt lat="44.61951" lon="4.44636">
        <ele>288.59</ele>
        <time>2021-05-30T12:52:05Z</time>
      </trkpt>
      <trkpt lat="44.61944" lon="4.4463">
        <ele>288.63</ele>
        <time>2021-05-30T12:52:13Z</time>
      </trkpt>
      <trkpt lat="44.61941" lon="4.44627">
        <ele>287.83</ele>
        <time>2021-05-30T12:52:16Z</time>
      </trkpt>
      <trkpt lat="44.61931" lon="4.44617">
        <ele>287.09</ele>
        <time>2021-05-30T12:52:27Z</time>
      </trkpt>
      <trkpt lat="44.61924" lon="4.44604">
        <ele>287.13</ele>
        <time>2021-05-30T12:52:38Z</time>
      </trkpt>
      <trkpt lat="44.61923" lon="4.44596">
        <ele>286.41</ele>
        <time>2021-05-30T12:52:52Z</time>
      </trkpt>
      <trkpt lat="44.61917" lon="4.44586">
        <ele>286.42</ele>
        <time>2021-05-30T12:53:01Z</time>
      </trkpt>
      <trkpt lat="44.61914" lon="4.44582">
        <ele>286.43</ele>
        <time>2021-05-30T12:53:05Z</time>
      </trkpt>
      <trkpt lat="44.61911" lon="4.44575">
        <ele>285.61</ele>
        <time>2021-05-30T12:53:11Z</time>
      </trkpt>
      <trkpt lat="44.61907" lon="4.4457">
        <ele>285.6</ele>
        <time>2021-05-30T12:53:17Z</time>
      </trkpt>
      <trkpt lat="44.61906" lon="4.44568">
        <ele>285.62</ele>
        <time>2021-05-30T12:53:18Z</time>
      </trkpt>
      <trkpt lat="44.61897" lon="4.44553">
        <ele>284.86</ele>
        <time>2021-05-30T12:53:31Z</time>
      </trkpt>
      <trkpt lat="44.61886" lon="4.44538">
        <ele>284.07</ele>
        <time>2021-05-30T12:53:45Z</time>
      </trkpt>
      <trkpt lat="44.61872" lon="4.44529">
        <ele>283.32</ele>
        <time>2021-05-30T12:53:57Z</time>
      </trkpt>
      <trkpt lat="44.61856" lon="4.44519">
        <ele>282.59</ele>
        <time>2021-05-30T12:54:11Z</time>
      </trkpt>
      <trkpt lat="44.61855" lon="4.44519">
        <ele>281.79</ele>
        <time>2021-05-30T12:54:12Z</time>
      </trkpt>
      <trkpt lat="44.61851" lon="4.44516">
        <ele>281.78</ele>
        <time>2021-05-30T12:54:16Z</time>
      </trkpt>
      <trkpt lat="44.6185" lon="4.44515">
        <ele>281.79</ele>
        <time>2021-05-30T12:54:17Z</time>
      </trkpt>
      <trkpt lat="44.6184" lon="4.44506">
        <ele>281.04</ele>
        <time>2021-05-30T12:54:27Z</time>
      </trkpt>
      <trkpt lat="44.6183" lon="4.44494">
        <ele>280.08</ele>
        <time>2021-05-30T12:54:38Z</time>
      </trkpt>
      <trkpt lat="44.61829" lon="4.44492">
        <ele>280.08</ele>
        <time>2021-05-30T12:54:39Z</time>
      </trkpt>
      <trkpt lat="44.61828" lon="4.44491">
        <ele>280.08</ele>
        <time>2021-05-30T12:54:40Z</time>
      </trkpt>
      <trkpt lat="44.61827" lon="4.4449">
        <ele>280.07</ele>
        <time>2021-05-30T12:54:41Z</time>
      </trkpt>
      <trkpt lat="44.61826" lon="4.44489">
        <ele>280.08</ele>
        <time>2021-05-30T12:54:42Z</time>
      </trkpt>
      <trkpt lat="44.61814" lon="4.44479">
        <ele>279.32</ele>
        <time>2021-05-30T12:54:53Z</time>
      </trkpt>
      <trkpt lat="44.61805" lon="4.44474">
        <ele>278.49</ele>
        <time>2021-05-30T12:55:02Z</time>
      </trkpt>
      <trkpt lat="44.61801" lon="4.44472">
        <ele>278.49</ele>
        <time>2021-05-30T12:55:06Z</time>
      </trkpt>
      <trkpt lat="44.618" lon="4.44471">
        <ele>278.47</ele>
        <time>2021-05-30T12:55:07Z</time>
      </trkpt>
      <trkpt lat="44.61789" lon="4.44465">
        <ele>277.7</ele>
        <time>2021-05-30T12:55:18Z</time>
      </trkpt>
      <trkpt lat="44.61782" lon="4.44464">
        <ele>276.92</ele>
        <time>2021-05-30T12:55:23Z</time>
      </trkpt>
      <trkpt lat="44.61781" lon="4.44464">
        <ele>276.94</ele>
        <time>2021-05-30T12:55:24Z</time>
      </trkpt>
      <trkpt lat="44.6178" lon="4.44464">
        <ele>276.94</ele>
        <time>2021-05-30T12:55:25Z</time>
      </trkpt>
      <trkpt lat="44.61779" lon="4.44464">
        <ele>276.95</ele>
        <time>2021-05-30T12:55:26Z</time>
      </trkpt>
      <trkpt lat="44.61776" lon="4.44464">
        <ele>276.96</ele>
        <time>2021-05-30T12:55:30Z</time>
      </trkpt>
      <trkpt lat="44.61773" lon="4.44463">
        <ele>276.99</ele>
        <time>2021-05-30T12:55:33Z</time>
      </trkpt>
      <trkpt lat="44.61762" lon="4.44457">
        <ele>276.2</ele>
        <time>2021-05-30T12:55:48Z</time>
      </trkpt>
      <trkpt lat="44.61752" lon="4.4444">
        <ele>275.28</ele>
        <time>2021-05-30T12:56:01Z</time>
      </trkpt>
      <trkpt lat="44.61751" lon="4.44438">
        <ele>275.27</ele>
        <time>2021-05-30T12:56:02Z</time>
      </trkpt>
      <trkpt lat="44.61746" lon="4.44428">
        <ele>274.5</ele>
        <time>2021-05-30T12:56:10Z</time>
      </trkpt>
      <trkpt lat="44.6175" lon="4.44417">
        <ele>273.62</ele>
        <time>2021-05-30T12:56:18Z</time>
      </trkpt>
      <trkpt lat="44.61758" lon="4.44406">
        <ele>272.88</ele>
        <time>2021-05-30T12:56:27Z</time>
      </trkpt>
      <trkpt lat="44.6176" lon="4.44403">
        <ele>272.9</ele>
        <time>2021-05-30T12:56:30Z</time>
      </trkpt>
      <trkpt lat="44.6177" lon="4.44387">
        <ele>271.29</ele>
        <time>2021-05-30T12:56:43Z</time>
      </trkpt>
      <trkpt lat="44.61773" lon="4.44382">
        <ele>271.3</ele>
        <time>2021-05-30T12:56:48Z</time>
      </trkpt>
      <trkpt lat="44.61774" lon="4.4438">
        <ele>271.31</ele>
        <time>2021-05-30T12:56:49Z</time>
      </trkpt>
      <trkpt lat="44.61775" lon="4.44379">
        <ele>271.31</ele>
        <time>2021-05-30T12:56:50Z</time>
      </trkpt>
      <trkpt lat="44.61777" lon="4.44378">
        <ele>271.32</ele>
        <time>2021-05-30T12:56:51Z</time>
      </trkpt>
      <trkpt lat="44.61778" lon="4.44376">
        <ele>271.32</ele>
        <time>2021-05-30T12:56:52Z</time>
      </trkpt>
      <trkpt lat="44.61779" lon="4.44375">
        <ele>271.3</ele>
        <time>2021-05-30T12:56:53Z</time>
      </trkpt>
      <trkpt lat="44.61785" lon="4.44367">
        <ele>270.49</ele>
        <time>2021-05-30T12:57:00Z</time>
      </trkpt>
      <trkpt lat="44.61786" lon="4.44366">
        <ele>270.49</ele>
        <time>2021-05-30T12:57:01Z</time>
      </trkpt>
      <trkpt lat="44.61792" lon="4.44359">
        <ele>269.7</ele>
        <time>2021-05-30T12:57:08Z</time>
      </trkpt>
      <trkpt lat="44.61801" lon="4.44349">
        <ele>268.94</ele>
        <time>2021-05-30T12:57:18Z</time>
      </trkpt>
      <trkpt lat="44.61803" lon="4.44348">
        <ele>268.94</ele>
        <time>2021-05-30T12:57:19Z</time>
      </trkpt>
      <trkpt lat="44.61804" lon="4.44347">
        <ele>268.94</ele>
        <time>2021-05-30T12:57:20Z</time>
      </trkpt>
      <trkpt lat="44.61815" lon="4.44334">
        <ele>268.16</ele>
        <time>2021-05-30T12:57:33Z</time>
      </trkpt>
      <trkpt lat="44.61818" lon="4.44329">
        <ele>267.35</ele>
        <time>2021-05-30T12:57:38Z</time>
      </trkpt>
      <trkpt lat="44.61819" lon="4.44328">
        <ele>267.34</ele>
        <time>2021-05-30T12:57:39Z</time>
      </trkpt>
      <trkpt lat="44.61819" lon="4.44326">
        <ele>267.35</ele>
        <time>2021-05-30T12:57:40Z</time>
      </trkpt>
      <trkpt lat="44.61819" lon="4.44325">
        <ele>267.34</ele>
        <time>2021-05-30T12:57:41Z</time>
      </trkpt>
      <trkpt lat="44.61819" lon="4.44323">
        <ele>267.34</ele>
        <time>2021-05-30T12:57:42Z</time>
      </trkpt>
      <trkpt lat="44.6182" lon="4.44316">
        <ele>266.45</ele>
        <time>2021-05-30T12:57:47Z</time>
      </trkpt>
      <trkpt lat="44.61821" lon="4.44311">
        <ele>266.46</ele>
        <time>2021-05-30T12:57:51Z</time>
      </trkpt>
      <trkpt lat="44.61821" lon="4.44309">
        <ele>266.45</ele>
        <time>2021-05-30T12:57:52Z</time>
      </trkpt>
      <trkpt lat="44.61821" lon="4.44307">
        <ele>266.44</ele>
        <time>2021-05-30T12:57:53Z</time>
      </trkpt>
      <trkpt lat="44.61821" lon="4.44303">
        <ele>266.42</ele>
        <time>2021-05-30T12:57:56Z</time>
      </trkpt>
      <trkpt lat="44.61822" lon="4.44301">
        <ele>265.52</ele>
        <time>2021-05-30T12:57:57Z</time>
      </trkpt>
      <trkpt lat="44.61821" lon="4.44282">
        <ele>264.7</ele>
        <time>2021-05-30T12:58:13Z</time>
      </trkpt>
      <trkpt lat="44.61821" lon="4.44275">
        <ele>264.69</ele>
        <time>2021-05-30T12:58:18Z</time>
      </trkpt>
      <trkpt lat="44.61821" lon="4.44273">
        <ele>264.69</ele>
        <time>2021-05-30T12:58:19Z</time>
      </trkpt>
      <trkpt lat="44.61822" lon="4.44257">
        <ele>263.8</ele>
        <time>2021-05-30T12:58:31Z</time>
      </trkpt>
      <trkpt lat="44.61816" lon="4.44243">
        <ele>262.97</ele>
        <time>2021-05-30T12:58:47Z</time>
      </trkpt>
      <trkpt lat="44.61814" lon="4.4424">
        <ele>262.95</ele>
        <time>2021-05-30T12:59:10Z</time>
      </trkpt>
      <trkpt lat="44.61814" lon="4.44239">
        <ele>262.91</ele>
        <time>2021-05-30T12:59:31Z</time>
      </trkpt>
      <trkpt lat="44.61815" lon="4.44238">
        <ele>262.86</ele>
        <time>2021-05-30T13:00:00Z</time>
      </trkpt>
      <trkpt lat="44.61814" lon="4.44237">
        <ele>259.65</ele>
        <time>2021-05-30T13:00:19Z</time>
      </trkpt>
      <trkpt lat="44.61815" lon="4.44237">
        <ele>259.65</ele>
        <time>2021-05-30T13:00:20Z</time>
      </trkpt>
      <trkpt lat="44.61814" lon="4.44237">
        <ele>263.6</ele>
        <time>2021-05-30T13:00:22Z</time>
      </trkpt>
      <trkpt lat="44.61814" lon="4.44237">
        <ele>263.6</ele>
        <time>2021-05-30T13:00:23Z</time>
      </trkpt>
      <trkpt lat="44.61813" lon="4.44237">
        <ele>263.58</ele>
        <time>2021-05-30T13:00:50Z</time>
      </trkpt>
      <trkpt lat="44.61813" lon="4.44237">
        <ele>259.8</ele>
        <time>2021-05-30T13:01:02Z</time>
      </trkpt>
      <trkpt lat="44.61813" lon="4.44237">
        <ele>259.8</ele>
        <time>2021-05-30T13:01:03Z</time>
      </trkpt>
      <trkpt lat="44.61813" lon="4.44237">
        <ele>263.84</ele>
        <time>2021-05-30T13:01:04Z</time>
      </trkpt>
      <trkpt lat="44.61813" lon="4.44237">
        <ele>264.8</ele>
        <time>2021-05-30T13:01:06Z</time>
      </trkpt>
      <trkpt lat="44.61814" lon="4.44237">
        <ele>262.51</ele>
        <time>2021-05-30T13:01:10Z</time>
      </trkpt>
      <trkpt lat="44.61814" lon="4.44236">
        <ele>258.15</ele>
        <time>2021-05-30T13:01:17Z</time>
      </trkpt>
      <trkpt lat="44.61814" lon="4.44237">
        <ele>262.36</ele>
        <time>2021-05-30T13:01:18Z</time>
      </trkpt>
      <trkpt lat="44.61813" lon="4.44236">
        <ele>262.37</ele>
        <time>2021-05-30T13:01:38Z</time>
      </trkpt>
      <trkpt lat="44.61813" lon="4.44236">
        <ele>262.39</ele>
        <time>2021-05-30T13:01:59Z</time>
      </trkpt>
      <trkpt lat="44.61812" lon="4.44236">
        <ele>262.41</ele>
        <time>2021-05-30T13:02:22Z</time>
      </trkpt>
      <trkpt lat="44.61812" lon="4.44237">
        <ele>262.43</ele>
        <time>2021-05-30T13:02:46Z</time>
      </trkpt>
      <trkpt lat="44.61813" lon="4.44236">
        <ele>262.46</ele>
        <time>2021-05-30T13:03:11Z</time>
      </trkpt>
      <trkpt lat="44.61812" lon="4.44237">
        <ele>262.48</ele>
        <time>2021-05-30T13:03:41Z</time>
      </trkpt>
      <trkpt lat="44.61813" lon="4.44238">
        <ele>262.49</ele>
        <time>2021-05-30T13:04:05Z</time>
      </trkpt>
      <trkpt lat="44.61812" lon="4.44238">
        <ele>262.48</ele>
        <time>2021-05-30T13:04:23Z</time>
      </trkpt>
      <trkpt lat="44.61813" lon="4.44239">
        <ele>262.49</ele>
        <time>2021-05-30T13:04:47Z</time>
      </trkpt>
      <trkpt lat="44.61812" lon="4.44238">
        <ele>262.49</ele>
        <time>2021-05-30T13:05:16Z</time>
      </trkpt>
      <trkpt lat="44.61811" lon="4.44236">
        <ele>262.48</ele>
        <time>2021-05-30T13:05:39Z</time>
      </trkpt>
      <trkpt lat="44.61812" lon="4.44235">
        <ele>262.49</ele>
        <time>2021-05-30T13:06:03Z</time>
      </trkpt>
      <trkpt lat="44.61812" lon="4.44235">
        <ele>264.67</ele>
        <time>2021-05-30T13:06:11Z</time>
      </trkpt>
      <trkpt lat="44.61813" lon="4.44236">
        <ele>262.42</ele>
        <time>2021-05-30T13:06:27Z</time>
      </trkpt>
      <trkpt lat="44.61813" lon="4.44237">
        <ele>262.46</ele>
        <time>2021-05-30T13:06:58Z</time>
      </trkpt>
      <trkpt lat="44.61813" lon="4.44237">
        <ele>260.59</ele>
        <time>2021-05-30T13:07:00Z</time>
      </trkpt>
      <trkpt lat="44.61815" lon="4.44237">
        <ele>260.63</ele>
        <time>2021-05-30T13:07:27Z</time>
      </trkpt>
      <trkpt lat="44.61814" lon="4.44237">
        <ele>260.68</ele>
        <time>2021-05-30T13:07:53Z</time>
      </trkpt>
      <trkpt lat="44.61815" lon="4.44236">
        <ele>260.72</ele>
        <time>2021-05-30T13:08:20Z</time>
      </trkpt>
      <trkpt lat="44.61814" lon="4.44237">
        <ele>260.76</ele>
        <time>2021-05-30T13:08:43Z</time>
      </trkpt>
      <trkpt lat="44.61814" lon="4.44237">
        <ele>263.15</ele>
        <time>2021-05-30T13:08:49Z</time>
      </trkpt>
      <trkpt lat="44.61814" lon="4.44237">
        <ele>263.17</ele>
        <time>2021-05-30T13:09:10Z</time>
      </trkpt>
      <trkpt lat="44.61813" lon="4.44238">
        <ele>263.21</ele>
        <time>2021-05-30T13:09:38Z</time>
      </trkpt>
      <trkpt lat="44.61813" lon="4.44238">
        <ele>263.24</ele>
        <time>2021-05-30T13:09:58Z</time>
      </trkpt>
      <trkpt lat="44.61813" lon="4.44239">
        <ele>263.26</ele>
        <time>2021-05-30T13:10:22Z</time>
      </trkpt>
      <trkpt lat="44.61813" lon="4.44238">
        <ele>263.26</ele>
        <time>2021-05-30T13:10:51Z</time>
      </trkpt>
      <trkpt lat="44.61812" lon="4.44237">
        <ele>263.24</ele>
        <time>2021-05-30T13:11:23Z</time>
      </trkpt>
      <trkpt lat="44.61813" lon="4.44237">
        <ele>263.25</ele>
        <time>2021-05-30T13:11:42Z</time>
      </trkpt>
      <trkpt lat="44.61812" lon="4.44236">
        <ele>263.26</ele>
        <time>2021-05-30T13:12:09Z</time>
      </trkpt>
      <trkpt lat="44.6181" lon="4.4422">
        <ele>263.26</ele>
        <time>2021-05-30T13:12:23Z</time>
      </trkpt>
      <trkpt lat="44.6181" lon="4.44202">
        <ele>263.26</ele>
        <time>2021-05-30T13:12:31Z</time>
      </trkpt>
      <trkpt lat="44.61811" lon="4.442">
        <ele>263.27</ele>
        <time>2021-05-30T13:12:32Z</time>
      </trkpt>
      <trkpt lat="44.61811" lon="4.44198">
        <ele>263.26</ele>
        <time>2021-05-30T13:12:33Z</time>
      </trkpt>
      <trkpt lat="44.61811" lon="4.44196">
        <ele>263.27</ele>
        <time>2021-05-30T13:12:34Z</time>
      </trkpt>
      <trkpt lat="44.61811" lon="4.44194">
        <ele>263.27</ele>
        <time>2021-05-30T13:12:35Z</time>
      </trkpt>
      <trkpt lat="44.61811" lon="4.44185">
        <ele>263.27</ele>
        <time>2021-05-30T13:12:40Z</time>
      </trkpt>
      <trkpt lat="44.61811" lon="4.44183">
        <ele>263.26</ele>
        <time>2021-05-30T13:12:41Z</time>
      </trkpt>
      <trkpt lat="44.61812" lon="4.44176">
        <ele>260.95</ele>
        <time>2021-05-30T13:12:44Z</time>
      </trkpt>
      <trkpt lat="44.61814" lon="4.44165">
        <ele>258.67</ele>
        <time>2021-05-30T13:12:49Z</time>
      </trkpt>
      <trkpt lat="44.61815" lon="4.44159">
        <ele>261.18</ele>
        <time>2021-05-30T13:12:52Z</time>
      </trkpt>
      <trkpt lat="44.61816" lon="4.44149">
        <ele>261.17</ele>
        <time>2021-05-30T13:12:58Z</time>
      </trkpt>
      <trkpt lat="44.61815" lon="4.44148">
        <ele>261.16</ele>
        <time>2021-05-30T13:12:59Z</time>
      </trkpt>
      <trkpt lat="44.61815" lon="4.44146">
        <ele>261.17</ele>
        <time>2021-05-30T13:13:00Z</time>
      </trkpt>
      <trkpt lat="44.61815" lon="4.44144">
        <ele>261.17</ele>
        <time>2021-05-30T13:13:01Z</time>
      </trkpt>
      <trkpt lat="44.61814" lon="4.44141">
        <ele>261.17</ele>
        <time>2021-05-30T13:13:02Z</time>
      </trkpt>
      <trkpt lat="44.61813" lon="4.44139">
        <ele>261.17</ele>
        <time>2021-05-30T13:13:03Z</time>
      </trkpt>
      <trkpt lat="44.61813" lon="4.44137">
        <ele>261.17</ele>
        <time>2021-05-30T13:13:04Z</time>
      </trkpt>
      <trkpt lat="44.61809" lon="4.4412">
        <ele>258.87</ele>
        <time>2021-05-30T13:13:15Z</time>
      </trkpt>
      <trkpt lat="44.61804" lon="4.44093">
        <ele>257.26</ele>
        <time>2021-05-30T13:13:29Z</time>
      </trkpt>
      <trkpt lat="44.618" lon="4.44074">
        <ele>256.51</ele>
        <time>2021-05-30T13:13:39Z</time>
      </trkpt>
      <trkpt lat="44.61798" lon="4.44059">
        <ele>252.8</ele>
        <time>2021-05-30T13:13:47Z</time>
      </trkpt>
      <trkpt lat="44.61798" lon="4.44056">
        <ele>252.69</ele>
        <time>2021-05-30T13:13:48Z</time>
      </trkpt>
      <trkpt lat="44.61798" lon="4.44054">
        <ele>257.31</ele>
        <time>2021-05-30T13:13:49Z</time>
      </trkpt>
      <trkpt lat="44.61797" lon="4.44052">
        <ele>257.24</ele>
        <time>2021-05-30T13:13:50Z</time>
      </trkpt>
      <trkpt lat="44.61796" lon="4.44025">
        <ele>256.38</ele>
        <time>2021-05-30T13:14:04Z</time>
      </trkpt>
      <trkpt lat="44.61797" lon="4.4402">
        <ele>253.84</ele>
        <time>2021-05-30T13:14:06Z</time>
      </trkpt>
      <trkpt lat="44.61798" lon="4.44011">
        <ele>253.84</ele>
        <time>2021-05-30T13:14:11Z</time>
      </trkpt>
      <trkpt lat="44.61798" lon="4.44009">
        <ele>253.84</ele>
        <time>2021-05-30T13:14:12Z</time>
      </trkpt>
      <trkpt lat="44.61798" lon="4.44008">
        <ele>253.69</ele>
        <time>2021-05-30T13:14:13Z</time>
      </trkpt>
      <trkpt lat="44.61799" lon="4.44006">
        <ele>253.66</ele>
        <time>2021-05-30T13:14:14Z</time>
      </trkpt>
      <trkpt lat="44.61799" lon="4.44004">
        <ele>253.84</ele>
        <time>2021-05-30T13:14:15Z</time>
      </trkpt>
      <trkpt lat="44.61797" lon="4.43977">
        <ele>252.62</ele>
        <time>2021-05-30T13:14:29Z</time>
      </trkpt>
      <trkpt lat="44.61795" lon="4.43962">
        <ele>252.65</ele>
        <time>2021-05-30T13:14:40Z</time>
      </trkpt>
      <trkpt lat="44.61795" lon="4.43956">
        <ele>252.65</ele>
        <time>2021-05-30T13:14:44Z</time>
      </trkpt>
      <trkpt lat="44.61795" lon="4.43954">
        <ele>252.65</ele>
        <time>2021-05-30T13:14:45Z</time>
      </trkpt>
      <trkpt lat="44.61795" lon="4.43952">
        <ele>252.66</ele>
        <time>2021-05-30T13:14:46Z</time>
      </trkpt>
      <trkpt lat="44.61795" lon="4.4395">
        <ele>252.61</ele>
        <time>2021-05-30T13:14:47Z</time>
      </trkpt>
      <trkpt lat="44.61795" lon="4.43948">
        <ele>252.65</ele>
        <time>2021-05-30T13:14:48Z</time>
      </trkpt>
      <trkpt lat="44.61795" lon="4.43946">
        <ele>252.66</ele>
        <time>2021-05-30T13:14:49Z</time>
      </trkpt>
      <trkpt lat="44.61793" lon="4.43929">
        <ele>255.06</ele>
        <time>2021-05-30T13:14:58Z</time>
      </trkpt>
      <trkpt lat="44.61794" lon="4.43922">
        <ele>255.07</ele>
        <time>2021-05-30T13:15:02Z</time>
      </trkpt>
      <trkpt lat="44.61795" lon="4.4392">
        <ele>255.07</ele>
        <time>2021-05-30T13:15:04Z</time>
      </trkpt>
      <trkpt lat="44.61795" lon="4.439">
        <ele>255.92</ele>
        <time>2021-05-30T13:15:16Z</time>
      </trkpt>
      <trkpt lat="44.61794" lon="4.43899">
        <ele>255.84</ele>
        <time>2021-05-30T13:15:17Z</time>
      </trkpt>
      <trkpt lat="44.61793" lon="4.43897">
        <ele>255.92</ele>
        <time>2021-05-30T13:15:18Z</time>
      </trkpt>
      <trkpt lat="44.61793" lon="4.43896">
        <ele>255.91</ele>
        <time>2021-05-30T13:15:19Z</time>
      </trkpt>
      <trkpt lat="44.61789" lon="4.43891">
        <ele>257.68</ele>
        <time>2021-05-30T13:15:34Z</time>
      </trkpt>
      <trkpt lat="44.61782" lon="4.43891">
        <ele>257.58</ele>
        <time>2021-05-30T13:15:41Z</time>
      </trkpt>
      <trkpt lat="44.61768" lon="4.4389">
        <ele>259.27</ele>
        <time>2021-05-30T13:15:54Z</time>
      </trkpt>
      <trkpt lat="44.61765" lon="4.43889">
        <ele>259.24</ele>
        <time>2021-05-30T13:15:57Z</time>
      </trkpt>
      <trkpt lat="44.61753" lon="4.4389">
        <ele>260.12</ele>
        <time>2021-05-30T13:16:07Z</time>
      </trkpt>
      <trkpt lat="44.61749" lon="4.4389">
        <ele>260.05</ele>
        <time>2021-05-30T13:16:11Z</time>
      </trkpt>
      <trkpt lat="44.61735" lon="4.43892">
        <ele>263.08</ele>
        <time>2021-05-30T13:16:23Z</time>
      </trkpt>
      <trkpt lat="44.6172" lon="4.43892">
        <ele>263.79</ele>
        <time>2021-05-30T13:16:37Z</time>
      </trkpt>
      <trkpt lat="44.6171" lon="4.43896">
        <ele>264.57</ele>
        <time>2021-05-30T13:16:47Z</time>
      </trkpt>
      <trkpt lat="44.61709" lon="4.43895">
        <ele>264.56</ele>
        <time>2021-05-30T13:16:48Z</time>
      </trkpt>
      <trkpt lat="44.61702" lon="4.43893">
        <ele>265.32</ele>
        <time>2021-05-30T13:16:54Z</time>
      </trkpt>
      <trkpt lat="44.61698" lon="4.43892">
        <ele>265.31</ele>
        <time>2021-05-30T13:16:57Z</time>
      </trkpt>
      <trkpt lat="44.61695" lon="4.4389">
        <ele>265.3</ele>
        <time>2021-05-30T13:17:00Z</time>
      </trkpt>
      <trkpt lat="44.61695" lon="4.43888">
        <ele>265.27</ele>
        <time>2021-05-30T13:17:01Z</time>
      </trkpt>
      <trkpt lat="44.61691" lon="4.43876">
        <ele>266.94</ele>
        <time>2021-05-30T13:17:14Z</time>
      </trkpt>
      <trkpt lat="44.6169" lon="4.43873">
        <ele>263.74</ele>
        <time>2021-05-30T13:17:24Z</time>
      </trkpt>
      <trkpt lat="44.61689" lon="4.43873">
        <ele>267.39</ele>
        <time>2021-05-30T13:17:25Z</time>
      </trkpt>
      <trkpt lat="44.61687" lon="4.43871">
        <ele>265</ele>
        <time>2021-05-30T13:17:29Z</time>
      </trkpt>
      <trkpt lat="44.61686" lon="4.4387">
        <ele>267.8</ele>
        <time>2021-05-30T13:17:31Z</time>
      </trkpt>
      <trkpt lat="44.61689" lon="4.43866">
        <ele>267.76</ele>
        <time>2021-05-30T13:17:42Z</time>
      </trkpt>
      <trkpt lat="44.61691" lon="4.4386">
        <ele>265.14</ele>
        <time>2021-05-30T13:17:51Z</time>
      </trkpt>
      <trkpt lat="44.61695" lon="4.43852">
        <ele>261.69</ele>
        <time>2021-05-30T13:18:03Z</time>
      </trkpt>
      <trkpt lat="44.61701" lon="4.43849">
        <ele>258.61</ele>
        <time>2021-05-30T13:18:13Z</time>
      </trkpt>
      <trkpt lat="44.61709" lon="4.43841">
        <ele>255.43</ele>
        <time>2021-05-30T13:18:28Z</time>
      </trkpt>
      <trkpt lat="44.61715" lon="4.43845">
        <ele>253.69</ele>
        <time>2021-05-30T13:18:38Z</time>
      </trkpt>
      <trkpt lat="44.61716" lon="4.43846">
        <ele>252.89</ele>
        <time>2021-05-30T13:18:39Z</time>
      </trkpt>
      <trkpt lat="44.6172" lon="4.43849">
        <ele>252.02</ele>
        <time>2021-05-30T13:18:48Z</time>
      </trkpt>
      <trkpt lat="44.6172" lon="4.43836">
        <ele>248.64</ele>
        <time>2021-05-30T13:19:02Z</time>
      </trkpt>
      <trkpt lat="44.6172" lon="4.43829">
        <ele>240.52</ele>
        <time>2021-05-30T13:19:10Z</time>
      </trkpt>
      <trkpt lat="44.6172" lon="4.43828">
        <ele>247.81</ele>
        <time>2021-05-30T13:19:12Z</time>
      </trkpt>
      <trkpt lat="44.6172" lon="4.43826">
        <ele>247.85</ele>
        <time>2021-05-30T13:19:13Z</time>
      </trkpt>
      <trkpt lat="44.61722" lon="4.4382">
        <ele>245.23</ele>
        <time>2021-05-30T13:19:18Z</time>
      </trkpt>
      <trkpt lat="44.61722" lon="4.43819">
        <ele>245.21</ele>
        <time>2021-05-30T13:19:19Z</time>
      </trkpt>
      <trkpt lat="44.61729" lon="4.43807">
        <ele>241.82</ele>
        <time>2021-05-30T13:19:31Z</time>
      </trkpt>
      <trkpt lat="44.61737" lon="4.43796">
        <ele>238.36</ele>
        <time>2021-05-30T13:19:44Z</time>
      </trkpt>
      <trkpt lat="44.61744" lon="4.43792">
        <ele>235.45</ele>
        <time>2021-05-30T13:19:59Z</time>
      </trkpt>
      <trkpt lat="44.61741" lon="4.43794">
        <ele>235.73</ele>
        <time>2021-05-30T13:20:16Z</time>
      </trkpt>
      <trkpt lat="44.61749" lon="4.43785">
        <ele>233.5</ele>
        <time>2021-05-30T13:20:29Z</time>
      </trkpt>
      <trkpt lat="44.61755" lon="4.43778">
        <ele>230.01</ele>
        <time>2021-05-30T13:20:37Z</time>
      </trkpt>
      <trkpt lat="44.61762" lon="4.43768">
        <ele>227.61</ele>
        <time>2021-05-30T13:20:47Z</time>
      </trkpt>
      <trkpt lat="44.61768" lon="4.4376">
        <ele>225.89</ele>
        <time>2021-05-30T13:20:54Z</time>
      </trkpt>
      <trkpt lat="44.61775" lon="4.4375">
        <ele>223.1</ele>
        <time>2021-05-30T13:21:05Z</time>
      </trkpt>
      <trkpt lat="44.6178" lon="4.43741">
        <ele>219.59</ele>
        <time>2021-05-30T13:21:16Z</time>
      </trkpt>
      <trkpt lat="44.61784" lon="4.43733">
        <ele>216.84</ele>
        <time>2021-05-30T13:21:29Z</time>
      </trkpt>
      <trkpt lat="44.61786" lon="4.43722">
        <ele>213.62</ele>
        <time>2021-05-30T13:21:39Z</time>
      </trkpt>
      <trkpt lat="44.61788" lon="4.43709">
        <ele>210.89</ele>
        <time>2021-05-30T13:21:52Z</time>
      </trkpt>
      <trkpt lat="44.61788" lon="4.43707">
        <ele>210.87</ele>
        <time>2021-05-30T13:21:53Z</time>
      </trkpt>
      <trkpt lat="44.61787" lon="4.43695">
        <ele>209.11</ele>
        <time>2021-05-30T13:22:02Z</time>
      </trkpt>
      <trkpt lat="44.61787" lon="4.43693">
        <ele>207.97</ele>
        <time>2021-05-30T13:22:03Z</time>
      </trkpt>
      <trkpt lat="44.61788" lon="4.4369">
        <ele>208.11</ele>
        <time>2021-05-30T13:22:16Z</time>
      </trkpt>
      <trkpt lat="44.61791" lon="4.43687">
        <ele>207.22</ele>
        <time>2021-05-30T13:22:28Z</time>
      </trkpt>
      <trkpt lat="44.61794" lon="4.43682">
        <ele>206.41</ele>
        <time>2021-05-30T13:22:39Z</time>
      </trkpt>
      <trkpt lat="44.61795" lon="4.4368">
        <ele>206.42</ele>
        <time>2021-05-30T13:22:40Z</time>
      </trkpt>
      <trkpt lat="44.61795" lon="4.43679">
        <ele>206.41</ele>
        <time>2021-05-30T13:22:41Z</time>
      </trkpt>
      <trkpt lat="44.61796" lon="4.43675">
        <ele>202.34</ele>
        <time>2021-05-30T13:22:44Z</time>
      </trkpt>
      <trkpt lat="44.61796" lon="4.43674">
        <ele>205.52</ele>
        <time>2021-05-30T13:22:45Z</time>
      </trkpt>
      <trkpt lat="44.61797" lon="4.43671">
        <ele>208.02</ele>
        <time>2021-05-30T13:22:47Z</time>
      </trkpt>
      <trkpt lat="44.618" lon="4.43663">
        <ele>205.54</ele>
        <time>2021-05-30T13:22:54Z</time>
      </trkpt>
      <trkpt lat="44.61801" lon="4.43662">
        <ele>205.65</ele>
        <time>2021-05-30T13:23:06Z</time>
      </trkpt>
      <trkpt lat="44.61802" lon="4.43663">
        <ele>205.63</ele>
        <time>2021-05-30T13:23:21Z</time>
      </trkpt>
      <trkpt lat="44.61802" lon="4.43661">
        <ele>205.62</ele>
        <time>2021-05-30T13:23:28Z</time>
      </trkpt>
      <trkpt lat="44.61803" lon="4.4366">
        <ele>205.62</ele>
        <time>2021-05-30T13:23:29Z</time>
      </trkpt>
      <trkpt lat="44.61804" lon="4.43659">
        <ele>205.61</ele>
        <time>2021-05-30T13:23:30Z</time>
      </trkpt>
      <trkpt lat="44.61811" lon="4.43642">
        <ele>205.57</ele>
        <time>2021-05-30T13:23:42Z</time>
      </trkpt>
      <trkpt lat="44.61812" lon="4.43641">
        <ele>205.56</ele>
        <time>2021-05-30T13:23:43Z</time>
      </trkpt>
      <trkpt lat="44.61817" lon="4.43626">
        <ele>204.79</ele>
        <time>2021-05-30T13:23:53Z</time>
      </trkpt>
      <trkpt lat="44.61822" lon="4.43613">
        <ele>203.9</ele>
        <time>2021-05-30T13:24:01Z</time>
      </trkpt>
      <trkpt lat="44.61822" lon="4.43612">
        <ele>203.89</ele>
        <time>2021-05-30T13:24:02Z</time>
      </trkpt>
      <trkpt lat="44.61826" lon="4.436">
        <ele>203.89</ele>
        <time>2021-05-30T13:24:09Z</time>
      </trkpt>
      <trkpt lat="44.61826" lon="4.43598">
        <ele>203.89</ele>
        <time>2021-05-30T13:24:10Z</time>
      </trkpt>
      <trkpt lat="44.61836" lon="4.43573">
        <ele>203.06</ele>
        <time>2021-05-30T13:24:25Z</time>
      </trkpt>
      <trkpt lat="44.61839" lon="4.43565">
        <ele>203.04</ele>
        <time>2021-05-30T13:24:29Z</time>
      </trkpt>
      <trkpt lat="44.61839" lon="4.43563">
        <ele>203.04</ele>
        <time>2021-05-30T13:24:30Z</time>
      </trkpt>
      <trkpt lat="44.6184" lon="4.43562">
        <ele>203.04</ele>
        <time>2021-05-30T13:24:31Z</time>
      </trkpt>
      <trkpt lat="44.61848" lon="4.43542">
        <ele>202.98</ele>
        <time>2021-05-30T13:24:45Z</time>
      </trkpt>
      <trkpt lat="44.61851" lon="4.43537">
        <ele>202.96</ele>
        <time>2021-05-30T13:24:49Z</time>
      </trkpt>
      <trkpt lat="44.61855" lon="4.43524">
        <ele>202.93</ele>
        <time>2021-05-30T13:24:56Z</time>
      </trkpt>
      <trkpt lat="44.61856" lon="4.4352">
        <ele>202.9</ele>
        <time>2021-05-30T13:25:00Z</time>
      </trkpt>
      <trkpt lat="44.61857" lon="4.43518">
        <ele>202.12</ele>
        <time>2021-05-30T13:25:01Z</time>
      </trkpt>
      <trkpt lat="44.61861" lon="4.4351">
        <ele>202.09</ele>
        <time>2021-05-30T13:25:13Z</time>
      </trkpt>
      <trkpt lat="44.61861" lon="4.43511">
        <ele>202.03</ele>
        <time>2021-05-30T13:25:27Z</time>
      </trkpt>
      <trkpt lat="44.6186" lon="4.43515">
        <ele>201.96</ele>
        <time>2021-05-30T13:25:41Z</time>
      </trkpt>
      <trkpt lat="44.61864" lon="4.43507">
        <ele>201.85</ele>
        <time>2021-05-30T13:26:01Z</time>
      </trkpt>
      <trkpt lat="44.61865" lon="4.43502">
        <ele>201.83</ele>
        <time>2021-05-30T13:26:04Z</time>
      </trkpt>
      <trkpt lat="44.61865" lon="4.43501">
        <ele>201.82</ele>
        <time>2021-05-30T13:26:05Z</time>
      </trkpt>
      <trkpt lat="44.61872" lon="4.43481">
        <ele>201.75</ele>
        <time>2021-05-30T13:26:18Z</time>
      </trkpt>
      <trkpt lat="44.61874" lon="4.43476">
        <ele>201.71</ele>
        <time>2021-05-30T13:26:27Z</time>
      </trkpt>
      <trkpt lat="44.61874" lon="4.43475">
        <ele>201.71</ele>
        <time>2021-05-30T13:26:28Z</time>
      </trkpt>
      <trkpt lat="44.61875" lon="4.43474">
        <ele>201.71</ele>
        <time>2021-05-30T13:26:29Z</time>
      </trkpt>
      <trkpt lat="44.61875" lon="4.43472">
        <ele>201.71</ele>
        <time>2021-05-30T13:26:30Z</time>
      </trkpt>
      <trkpt lat="44.61876" lon="4.43471">
        <ele>201.7</ele>
        <time>2021-05-30T13:26:31Z</time>
      </trkpt>
      <trkpt lat="44.61877" lon="4.4347">
        <ele>201.69</ele>
        <time>2021-05-30T13:26:32Z</time>
      </trkpt>
      <trkpt lat="44.61878" lon="4.43468">
        <ele>201.69</ele>
        <time>2021-05-30T13:26:33Z</time>
      </trkpt>
      <trkpt lat="44.61878" lon="4.43466">
        <ele>201.69</ele>
        <time>2021-05-30T13:26:34Z</time>
      </trkpt>
      <trkpt lat="44.61879" lon="4.43465">
        <ele>201.68</ele>
        <time>2021-05-30T13:26:35Z</time>
      </trkpt>
      <trkpt lat="44.6188" lon="4.43463">
        <ele>201.68</ele>
        <time>2021-05-30T13:26:36Z</time>
      </trkpt>
      <trkpt lat="44.6188" lon="4.43462">
        <ele>201.67</ele>
        <time>2021-05-30T13:26:37Z</time>
      </trkpt>
      <trkpt lat="44.61883" lon="4.43458">
        <ele>201.66</ele>
        <time>2021-05-30T13:26:41Z</time>
      </trkpt>
      <trkpt lat="44.61884" lon="4.43457">
        <ele>201.67</ele>
        <time>2021-05-30T13:26:42Z</time>
      </trkpt>
      <trkpt lat="44.61885" lon="4.43455">
        <ele>201.66</ele>
        <time>2021-05-30T13:26:43Z</time>
      </trkpt>
      <trkpt lat="44.61886" lon="4.43454">
        <ele>201.65</ele>
        <time>2021-05-30T13:26:44Z</time>
      </trkpt>
      <trkpt lat="44.61887" lon="4.43452">
        <ele>201.65</ele>
        <time>2021-05-30T13:26:45Z</time>
      </trkpt>
      <trkpt lat="44.61888" lon="4.4345">
        <ele>201.65</ele>
        <time>2021-05-30T13:26:46Z</time>
      </trkpt>
      <trkpt lat="44.61889" lon="4.43449">
        <ele>201.64</ele>
        <time>2021-05-30T13:26:47Z</time>
      </trkpt>
      <trkpt lat="44.61897" lon="4.4343">
        <ele>201.6</ele>
        <time>2021-05-30T13:27:00Z</time>
      </trkpt>
      <trkpt lat="44.61907" lon="4.43404">
        <ele>201.54</ele>
        <time>2021-05-30T13:27:17Z</time>
      </trkpt>
      <trkpt lat="44.61916" lon="4.43382">
        <ele>200.72</ele>
        <time>2021-05-30T13:27:32Z</time>
      </trkpt>
      <trkpt lat="44.61927" lon="4.43352">
        <ele>200.65</ele>
        <time>2021-05-30T13:27:50Z</time>
      </trkpt>
      <trkpt lat="44.61936" lon="4.43331">
        <ele>200.61</ele>
        <time>2021-05-30T13:28:05Z</time>
      </trkpt>
      <trkpt lat="44.61947" lon="4.43313">
        <ele>199.61</ele>
        <time>2021-05-30T13:28:19Z</time>
      </trkpt>
      <trkpt lat="44.6196" lon="4.43286">
        <ele>198.66</ele>
        <time>2021-05-30T13:28:38Z</time>
      </trkpt>
      <trkpt lat="44.6197" lon="4.4327">
        <ele>197.61</ele>
        <time>2021-05-30T13:28:49Z</time>
      </trkpt>
      <trkpt lat="44.6197" lon="4.43268">
        <ele>196.8</ele>
        <time>2021-05-30T13:28:50Z</time>
      </trkpt>
      <trkpt lat="44.61971" lon="4.43267">
        <ele>196.78</ele>
        <time>2021-05-30T13:28:51Z</time>
      </trkpt>
      <trkpt lat="44.61971" lon="4.43266">
        <ele>196.78</ele>
        <time>2021-05-30T13:28:52Z</time>
      </trkpt>
      <trkpt lat="44.61972" lon="4.43264">
        <ele>196.77</ele>
        <time>2021-05-30T13:28:53Z</time>
      </trkpt>
      <trkpt lat="44.61975" lon="4.43257">
        <ele>195.96</ele>
        <time>2021-05-30T13:28:58Z</time>
      </trkpt>
      <trkpt lat="44.61975" lon="4.43254">
        <ele>195.95</ele>
        <time>2021-05-30T13:28:59Z</time>
      </trkpt>
      <trkpt lat="44.61975" lon="4.43252">
        <ele>195.95</ele>
        <time>2021-05-30T13:29:00Z</time>
      </trkpt>
      <trkpt lat="44.61975" lon="4.4325">
        <ele>195.97</ele>
        <time>2021-05-30T13:29:01Z</time>
      </trkpt>
      <trkpt lat="44.61976" lon="4.43248">
        <ele>195.96</ele>
        <time>2021-05-30T13:29:02Z</time>
      </trkpt>
      <trkpt lat="44.61976" lon="4.43246">
        <ele>195.93</ele>
        <time>2021-05-30T13:29:03Z</time>
      </trkpt>
      <trkpt lat="44.61977" lon="4.43244">
        <ele>195.93</ele>
        <time>2021-05-30T13:29:04Z</time>
      </trkpt>
      <trkpt lat="44.61977" lon="4.43243">
        <ele>195.91</ele>
        <time>2021-05-30T13:29:05Z</time>
      </trkpt>
      <trkpt lat="44.61978" lon="4.43241">
        <ele>195.91</ele>
        <time>2021-05-30T13:29:06Z</time>
      </trkpt>
      <trkpt lat="44.61979" lon="4.43239">
        <ele>195.89</ele>
        <time>2021-05-30T13:29:07Z</time>
      </trkpt>
      <trkpt lat="44.6198" lon="4.43237">
        <ele>195.89</ele>
        <time>2021-05-30T13:29:08Z</time>
      </trkpt>
      <trkpt lat="44.6198" lon="4.43234">
        <ele>195.88</ele>
        <time>2021-05-30T13:29:09Z</time>
      </trkpt>
      <trkpt lat="44.61981" lon="4.43233">
        <ele>195.88</ele>
        <time>2021-05-30T13:29:10Z</time>
      </trkpt>
      <trkpt lat="44.61989" lon="4.43215">
        <ele>194.93</ele>
        <time>2021-05-30T13:29:22Z</time>
      </trkpt>
      <trkpt lat="44.61996" lon="4.43197">
        <ele>193.99</ele>
        <time>2021-05-30T13:29:34Z</time>
      </trkpt>
      <trkpt lat="44.62003" lon="4.43187">
        <ele>193.96</ele>
        <time>2021-05-30T13:29:44Z</time>
      </trkpt>
      <trkpt lat="44.62006" lon="4.43185">
        <ele>193.95</ele>
        <time>2021-05-30T13:29:48Z</time>
      </trkpt>
      <trkpt lat="44.62007" lon="4.43185">
        <ele>193.95</ele>
        <time>2021-05-30T13:29:49Z</time>
      </trkpt>
      <trkpt lat="44.62008" lon="4.43183">
        <ele>193.94</ele>
        <time>2021-05-30T13:29:50Z</time>
      </trkpt>
      <trkpt lat="44.62009" lon="4.43182">
        <ele>193.93</ele>
        <time>2021-05-30T13:29:51Z</time>
      </trkpt>
      <trkpt lat="44.62011" lon="4.43179">
        <ele>193.93</ele>
        <time>2021-05-30T13:29:54Z</time>
      </trkpt>
      <trkpt lat="44.62012" lon="4.43178">
        <ele>193.93</ele>
        <time>2021-05-30T13:29:55Z</time>
      </trkpt>
      <trkpt lat="44.62013" lon="4.43176">
        <ele>193.92</ele>
        <time>2021-05-30T13:29:56Z</time>
      </trkpt>
      <trkpt lat="44.62023" lon="4.43157">
        <ele>193.89</ele>
        <time>2021-05-30T13:30:10Z</time>
      </trkpt>
      <trkpt lat="44.62031" lon="4.43142">
        <ele>193.87</ele>
        <time>2021-05-30T13:30:24Z</time>
      </trkpt>
      <trkpt lat="44.62033" lon="4.43139">
        <ele>193.86</ele>
        <time>2021-05-30T13:30:26Z</time>
      </trkpt>
      <trkpt lat="44.62033" lon="4.43138">
        <ele>193.86</ele>
        <time>2021-05-30T13:30:27Z</time>
      </trkpt>
      <trkpt lat="44.62034" lon="4.43136">
        <ele>193.85</ele>
        <time>2021-05-30T13:30:28Z</time>
      </trkpt>
      <trkpt lat="44.62036" lon="4.43135">
        <ele>193.85</ele>
        <time>2021-05-30T13:30:29Z</time>
      </trkpt>
      <trkpt lat="44.62037" lon="4.43134">
        <ele>193.84</ele>
        <time>2021-05-30T13:30:30Z</time>
      </trkpt>
      <trkpt lat="44.62037" lon="4.43133">
        <ele>193.84</ele>
        <time>2021-05-30T13:30:31Z</time>
      </trkpt>
      <trkpt lat="44.62038" lon="4.43131">
        <ele>193.83</ele>
        <time>2021-05-30T13:30:32Z</time>
      </trkpt>
      <trkpt lat="44.62039" lon="4.4313">
        <ele>193.83</ele>
        <time>2021-05-30T13:30:33Z</time>
      </trkpt>
      <trkpt lat="44.62042" lon="4.43125">
        <ele>193.8</ele>
        <time>2021-05-30T13:30:37Z</time>
      </trkpt>
      <trkpt lat="44.62043" lon="4.43124">
        <ele>193.8</ele>
        <time>2021-05-30T13:30:38Z</time>
      </trkpt>
      <trkpt lat="44.62044" lon="4.43123">
        <ele>193.79</ele>
        <time>2021-05-30T13:30:39Z</time>
      </trkpt>
      <trkpt lat="44.62044" lon="4.43121">
        <ele>193.79</ele>
        <time>2021-05-30T13:30:40Z</time>
      </trkpt>
      <trkpt lat="44.62045" lon="4.43119">
        <ele>193.79</ele>
        <time>2021-05-30T13:30:41Z</time>
      </trkpt>
      <trkpt lat="44.62045" lon="4.43117">
        <ele>193.78</ele>
        <time>2021-05-30T13:30:42Z</time>
      </trkpt>
      <trkpt lat="44.62048" lon="4.43109">
        <ele>192.97</ele>
        <time>2021-05-30T13:30:48Z</time>
      </trkpt>
      <trkpt lat="44.62048" lon="4.43108">
        <ele>192.96</ele>
        <time>2021-05-30T13:30:49Z</time>
      </trkpt>
      <trkpt lat="44.62052" lon="4.43097">
        <ele>192.91</ele>
        <time>2021-05-30T13:30:56Z</time>
      </trkpt>
      <trkpt lat="44.62061" lon="4.43074">
        <ele>192.84</ele>
        <time>2021-05-30T13:31:10Z</time>
      </trkpt>
      <trkpt lat="44.62062" lon="4.43071">
        <ele>192.8</ele>
        <time>2021-05-30T13:31:12Z</time>
      </trkpt>
      <trkpt lat="44.62064" lon="4.43068">
        <ele>192.79</ele>
        <time>2021-05-30T13:31:14Z</time>
      </trkpt>
      <trkpt lat="44.62065" lon="4.43067">
        <ele>192.78</ele>
        <time>2021-05-30T13:31:15Z</time>
      </trkpt>
      <trkpt lat="44.62067" lon="4.43062">
        <ele>192.77</ele>
        <time>2021-05-30T13:31:18Z</time>
      </trkpt>
      <trkpt lat="44.62069" lon="4.43059">
        <ele>192.75</ele>
        <time>2021-05-30T13:31:21Z</time>
      </trkpt>
      <trkpt lat="44.62069" lon="4.43057">
        <ele>192.74</ele>
        <time>2021-05-30T13:31:22Z</time>
      </trkpt>
      <trkpt lat="44.6207" lon="4.43055">
        <ele>192.73</ele>
        <time>2021-05-30T13:31:23Z</time>
      </trkpt>
      <trkpt lat="44.6207" lon="4.43054">
        <ele>192.73</ele>
        <time>2021-05-30T13:31:24Z</time>
      </trkpt>
      <trkpt lat="44.62071" lon="4.43052">
        <ele>188.77</ele>
        <time>2021-05-30T13:31:25Z</time>
      </trkpt>
      <trkpt lat="44.62072" lon="4.43051">
        <ele>192.72</ele>
        <time>2021-05-30T13:31:26Z</time>
      </trkpt>
      <trkpt lat="44.62073" lon="4.43049">
        <ele>193.88</ele>
        <time>2021-05-30T13:31:27Z</time>
      </trkpt>
      <trkpt lat="44.62073" lon="4.43047">
        <ele>193.89</ele>
        <time>2021-05-30T13:31:28Z</time>
      </trkpt>
      <trkpt lat="44.62084" lon="4.43022">
        <ele>193.79</ele>
        <time>2021-05-30T13:31:45Z</time>
      </trkpt>
      <trkpt lat="44.62095" lon="4.43003">
        <ele>193.72</ele>
        <time>2021-05-30T13:32:00Z</time>
      </trkpt>
      <trkpt lat="44.62106" lon="4.42982">
        <ele>193.65</ele>
        <time>2021-05-30T13:32:14Z</time>
      </trkpt>
      <trkpt lat="44.62113" lon="4.42961">
        <ele>194.67</ele>
        <time>2021-05-30T13:32:27Z</time>
      </trkpt>
      <trkpt lat="44.62117" lon="4.42954">
        <ele>192.3</ele>
        <time>2021-05-30T13:32:32Z</time>
      </trkpt>
      <trkpt lat="44.62125" lon="4.42936">
        <ele>192.3</ele>
        <time>2021-05-30T13:32:45Z</time>
      </trkpt>
      <trkpt lat="44.62126" lon="4.42936">
        <ele>192.3</ele>
        <time>2021-05-30T13:32:46Z</time>
      </trkpt>
      <trkpt lat="44.62135" lon="4.42918">
        <ele>192.24</ele>
        <time>2021-05-30T13:32:59Z</time>
      </trkpt>
      <trkpt lat="44.62135" lon="4.42916">
        <ele>192.23</ele>
        <time>2021-05-30T13:33:00Z</time>
      </trkpt>
      <trkpt lat="44.62136" lon="4.42914">
        <ele>192.22</ele>
        <time>2021-05-30T13:33:01Z</time>
      </trkpt>
      <trkpt lat="44.62138" lon="4.42907">
        <ele>192.2</ele>
        <time>2021-05-30T13:33:06Z</time>
      </trkpt>
      <trkpt lat="44.62138" lon="4.42905">
        <ele>192.19</ele>
        <time>2021-05-30T13:33:07Z</time>
      </trkpt>
      <trkpt lat="44.62139" lon="4.42903">
        <ele>192.18</ele>
        <time>2021-05-30T13:33:08Z</time>
      </trkpt>
      <trkpt lat="44.62148" lon="4.42879">
        <ele>192.08</ele>
        <time>2021-05-30T13:33:23Z</time>
      </trkpt>
      <trkpt lat="44.6216" lon="4.42854">
        <ele>191.95</ele>
        <time>2021-05-30T13:33:40Z</time>
      </trkpt>
      <trkpt lat="44.62165" lon="4.42843">
        <ele>191.9</ele>
        <time>2021-05-30T13:33:47Z</time>
      </trkpt>
      <trkpt lat="44.62166" lon="4.42842">
        <ele>191.89</ele>
        <time>2021-05-30T13:33:48Z</time>
      </trkpt>
      <trkpt lat="44.62167" lon="4.4284">
        <ele>191.89</ele>
        <time>2021-05-30T13:33:49Z</time>
      </trkpt>
      <trkpt lat="44.62168" lon="4.42839">
        <ele>191.88</ele>
        <time>2021-05-30T13:33:50Z</time>
      </trkpt>
      <trkpt lat="44.62168" lon="4.42837">
        <ele>191.87</ele>
        <time>2021-05-30T13:33:51Z</time>
      </trkpt>
      <trkpt lat="44.62169" lon="4.42836">
        <ele>191.86</ele>
        <time>2021-05-30T13:33:52Z</time>
      </trkpt>
      <trkpt lat="44.62172" lon="4.42831">
        <ele>191.84</ele>
        <time>2021-05-30T13:33:56Z</time>
      </trkpt>
      <trkpt lat="44.62173" lon="4.42829">
        <ele>191.84</ele>
        <time>2021-05-30T13:33:57Z</time>
      </trkpt>
      <trkpt lat="44.62173" lon="4.42827">
        <ele>191.83</ele>
        <time>2021-05-30T13:33:58Z</time>
      </trkpt>
      <trkpt lat="44.62184" lon="4.42804">
        <ele>191.73</ele>
        <time>2021-05-30T13:34:15Z</time>
      </trkpt>
      <trkpt lat="44.6219" lon="4.42792">
        <ele>191.69</ele>
        <time>2021-05-30T13:34:23Z</time>
      </trkpt>
      <trkpt lat="44.62194" lon="4.42783">
        <ele>191.65</ele>
        <time>2021-05-30T13:34:30Z</time>
      </trkpt>
      <trkpt lat="44.62195" lon="4.42781">
        <ele>191.64</ele>
        <time>2021-05-30T13:34:31Z</time>
      </trkpt>
      <trkpt lat="44.62195" lon="4.4278">
        <ele>191.63</ele>
        <time>2021-05-30T13:34:32Z</time>
      </trkpt>
      <trkpt lat="44.62204" lon="4.4276">
        <ele>191.58</ele>
        <time>2021-05-30T13:34:46Z</time>
      </trkpt>
      <trkpt lat="44.62204" lon="4.42759">
        <ele>191.57</ele>
        <time>2021-05-30T13:34:47Z</time>
      </trkpt>
      <trkpt lat="44.62215" lon="4.42734">
        <ele>191.5</ele>
        <time>2021-05-30T13:35:03Z</time>
      </trkpt>
      <trkpt lat="44.62217" lon="4.4273">
        <ele>191.48</ele>
        <time>2021-05-30T13:35:06Z</time>
      </trkpt>
      <trkpt lat="44.62218" lon="4.42729">
        <ele>191.48</ele>
        <time>2021-05-30T13:35:07Z</time>
      </trkpt>
      <trkpt lat="44.62224" lon="4.42712">
        <ele>191.47</ele>
        <time>2021-05-30T13:35:18Z</time>
      </trkpt>
      <trkpt lat="44.62236" lon="4.42687">
        <ele>191.4</ele>
        <time>2021-05-30T13:35:35Z</time>
      </trkpt>
      <trkpt lat="44.62236" lon="4.42686">
        <ele>191.39</ele>
        <time>2021-05-30T13:35:36Z</time>
      </trkpt>
      <trkpt lat="44.62237" lon="4.42685">
        <ele>191.39</ele>
        <time>2021-05-30T13:35:37Z</time>
      </trkpt>
      <trkpt lat="44.62238" lon="4.42684">
        <ele>191.39</ele>
        <time>2021-05-30T13:35:38Z</time>
      </trkpt>
      <trkpt lat="44.62248" lon="4.42667">
        <ele>191.37</ele>
        <time>2021-05-30T13:35:51Z</time>
      </trkpt>
      <trkpt lat="44.62251" lon="4.42657">
        <ele>191.35</ele>
        <time>2021-05-30T13:35:58Z</time>
      </trkpt>
      <trkpt lat="44.62252" lon="4.42655">
        <ele>191.35</ele>
        <time>2021-05-30T13:35:59Z</time>
      </trkpt>
      <trkpt lat="44.62253" lon="4.42654">
        <ele>191.34</ele>
        <time>2021-05-30T13:36:00Z</time>
      </trkpt>
      <trkpt lat="44.62256" lon="4.42645">
        <ele>191.31</ele>
        <time>2021-05-30T13:36:06Z</time>
      </trkpt>
      <trkpt lat="44.62257" lon="4.42644">
        <ele>191.31</ele>
        <time>2021-05-30T13:36:07Z</time>
      </trkpt>
      <trkpt lat="44.62257" lon="4.42642">
        <ele>191.31</ele>
        <time>2021-05-30T13:36:08Z</time>
      </trkpt>
      <trkpt lat="44.62258" lon="4.42641">
        <ele>191.3</ele>
        <time>2021-05-30T13:36:09Z</time>
      </trkpt>
      <trkpt lat="44.62258" lon="4.42639">
        <ele>191.3</ele>
        <time>2021-05-30T13:36:10Z</time>
      </trkpt>
      <trkpt lat="44.62259" lon="4.42638">
        <ele>191.3</ele>
        <time>2021-05-30T13:36:11Z</time>
      </trkpt>
      <trkpt lat="44.6226" lon="4.42635">
        <ele>191.28</ele>
        <time>2021-05-30T13:36:13Z</time>
      </trkpt>
      <trkpt lat="44.62261" lon="4.42634">
        <ele>191.28</ele>
        <time>2021-05-30T13:36:14Z</time>
      </trkpt>
      <trkpt lat="44.62262" lon="4.42632">
        <ele>191.28</ele>
        <time>2021-05-30T13:36:15Z</time>
      </trkpt>
      <trkpt lat="44.62262" lon="4.42631">
        <ele>191.27</ele>
        <time>2021-05-30T13:36:16Z</time>
      </trkpt>
      <trkpt lat="44.62272" lon="4.42613">
        <ele>191.21</ele>
        <time>2021-05-30T13:36:29Z</time>
      </trkpt>
      <trkpt lat="44.62281" lon="4.42593">
        <ele>191.16</ele>
        <time>2021-05-30T13:36:43Z</time>
      </trkpt>
      <trkpt lat="44.62287" lon="4.42581">
        <ele>191.13</ele>
        <time>2021-05-30T13:36:51Z</time>
      </trkpt>
      <trkpt lat="44.62287" lon="4.42579">
        <ele>191.13</ele>
        <time>2021-05-30T13:36:52Z</time>
      </trkpt>
      <trkpt lat="44.62288" lon="4.42578">
        <ele>191.13</ele>
        <time>2021-05-30T13:36:53Z</time>
      </trkpt>
      <trkpt lat="44.62299" lon="4.42557">
        <ele>191.08</ele>
        <time>2021-05-30T13:37:08Z</time>
      </trkpt>
      <trkpt lat="44.62307" lon="4.42542">
        <ele>191.06</ele>
        <time>2021-05-30T13:37:19Z</time>
      </trkpt>
      <trkpt lat="44.62315" lon="4.42521">
        <ele>191</ele>
        <time>2021-05-30T13:37:32Z</time>
      </trkpt>
      <trkpt lat="44.62324" lon="4.42496">
        <ele>190.94</ele>
        <time>2021-05-30T13:37:48Z</time>
      </trkpt>
      <trkpt lat="44.62336" lon="4.42475">
        <ele>190.87</ele>
        <time>2021-05-30T13:38:03Z</time>
      </trkpt>
      <trkpt lat="44.62336" lon="4.42469">
        <ele>190.86</ele>
        <time>2021-05-30T13:38:07Z</time>
      </trkpt>
      <trkpt lat="44.62318" lon="4.42462">
        <ele>190.77</ele>
        <time>2021-05-30T13:38:22Z</time>
      </trkpt>
      <trkpt lat="44.62313" lon="4.42457">
        <ele>190.7</ele>
        <time>2021-05-30T13:38:32Z</time>
      </trkpt>
      <trkpt lat="44.62312" lon="4.42456">
        <ele>190.7</ele>
        <time>2021-05-30T13:38:33Z</time>
      </trkpt>
      <trkpt lat="44.62304" lon="4.42452">
        <ele>190.66</ele>
        <time>2021-05-30T13:38:41Z</time>
      </trkpt>
      <trkpt lat="44.62302" lon="4.4245">
        <ele>190.65</ele>
        <time>2021-05-30T13:38:43Z</time>
      </trkpt>
      <trkpt lat="44.62301" lon="4.42449">
        <ele>190.65</ele>
        <time>2021-05-30T13:38:44Z</time>
      </trkpt>
      <trkpt lat="44.62292" lon="4.42444">
        <ele>190.61</ele>
        <time>2021-05-30T13:38:54Z</time>
      </trkpt>
      <trkpt lat="44.62273" lon="4.42434">
        <ele>190.56</ele>
        <time>2021-05-30T13:39:11Z</time>
      </trkpt>
      <trkpt lat="44.62258" lon="4.42425">
        <ele>190.54</ele>
        <time>2021-05-30T13:39:24Z</time>
      </trkpt>
      <trkpt lat="44.62244" lon="4.42417">
        <ele>190.54</ele>
        <time>2021-05-30T13:39:36Z</time>
      </trkpt>
      <trkpt lat="44.62236" lon="4.42412">
        <ele>190.55</ele>
        <time>2021-05-30T13:39:42Z</time>
      </trkpt>
      <trkpt lat="44.62233" lon="4.42411">
        <ele>190.55</ele>
        <time>2021-05-30T13:39:45Z</time>
      </trkpt>
      <trkpt lat="44.62232" lon="4.4241">
        <ele>190.55</ele>
        <time>2021-05-30T13:39:46Z</time>
      </trkpt>
      <trkpt lat="44.6223" lon="4.42409">
        <ele>190.55</ele>
        <time>2021-05-30T13:39:47Z</time>
      </trkpt>
      <trkpt lat="44.62229" lon="4.42408">
        <ele>190.56</ele>
        <time>2021-05-30T13:39:48Z</time>
      </trkpt>
      <trkpt lat="44.62228" lon="4.42407">
        <ele>190.56</ele>
        <time>2021-05-30T13:39:49Z</time>
      </trkpt>
      <trkpt lat="44.62227" lon="4.42406">
        <ele>190.56</ele>
        <time>2021-05-30T13:39:50Z</time>
      </trkpt>
      <trkpt lat="44.62226" lon="4.42405">
        <ele>190.56</ele>
        <time>2021-05-30T13:39:51Z</time>
      </trkpt>
      <trkpt lat="44.62214" lon="4.42398">
        <ele>190.57</ele>
        <time>2021-05-30T13:40:03Z</time>
      </trkpt>
      <trkpt lat="44.62211" lon="4.42394">
        <ele>190.57</ele>
        <time>2021-05-30T13:40:06Z</time>
      </trkpt>
      <trkpt lat="44.622" lon="4.42385">
        <ele>190.56</ele>
        <time>2021-05-30T13:40:16Z</time>
      </trkpt>
      <trkpt lat="44.62197" lon="4.42384">
        <ele>190.57</ele>
        <time>2021-05-30T13:40:18Z</time>
      </trkpt>
      <trkpt lat="44.62196" lon="4.42383">
        <ele>190.57</ele>
        <time>2021-05-30T13:40:19Z</time>
      </trkpt>
      <trkpt lat="44.6218" lon="4.42377">
        <ele>190.58</ele>
        <time>2021-05-30T13:40:33Z</time>
      </trkpt>
      <trkpt lat="44.62164" lon="4.4237">
        <ele>190.6</ele>
        <time>2021-05-30T13:40:47Z</time>
      </trkpt>
      <trkpt lat="44.62142" lon="4.42355">
        <ele>190.64</ele>
        <time>2021-05-30T13:41:06Z</time>
      </trkpt>
      <trkpt lat="44.6213" lon="4.42345">
        <ele>190.65</ele>
        <time>2021-05-30T13:41:16Z</time>
      </trkpt>
      <trkpt lat="44.62127" lon="4.42343">
        <ele>190.65</ele>
        <time>2021-05-30T13:41:20Z</time>
      </trkpt>
      <trkpt lat="44.62126" lon="4.42342">
        <ele>189.37</ele>
        <time>2021-05-30T13:41:24Z</time>
      </trkpt>
      <trkpt lat="44.62125" lon="4.42343">
        <ele>192.62</ele>
        <time>2021-05-30T13:41:26Z</time>
      </trkpt>
      <trkpt lat="44.62125" lon="4.42343">
        <ele>187.4</ele>
        <time>2021-05-30T13:41:27Z</time>
      </trkpt>
      <trkpt lat="44.62124" lon="4.42343">
        <ele>221.65</ele>
        <time>2021-05-30T13:41:28Z</time>
      </trkpt>
    </trkseg>
  </trk>
</gpx>